US_Partners_Report 1

pictures.dealer.com

US_Partners_Report 1

Status Updated

ACTIVE

Created FIN Code Company Address City State Zip Country Keycontact Title Phone Alt Phone Email

11/7/2010 11/8/2010 VS492 ASRC Service Center 3900 C Street, Suite 202 Anchorage AK 99503 US

11/7/2010 11/8/2010 NC798 Ready Mix USA, LLC 2570 Ruffner Road Birmingham AL 35210 US

11/7/2010 11/8/2010 ZY730 Huie, Fernambucq & Stewart LLP 3 Protective Ctr, Ste 200, 2801 Hwy 280S Birmingham AL 35223 US

11/7/2010 11/8/2010 BA004 Altec Industries, Inc. 33 Inberess Center Parkway Suite 25 Birmingham AL 35242 US

11/7/2010 11/8/2010 BA271 Fontaine Truck Equipment 2490 Tinson Valley Parkway Birmingham AL 35217 US

11/7/2010 11/8/2010 NY901 Infinity 3700 Colonnade Parkway Birmingham AL 35243 US

11/7/2010 11/8/2010 WG875 Motion Industries Incorporated 1605 Alton Road Birmingham AL 35210 US

11/7/2010 11/8/2010 ZY731 M I Ford Tractor & Engine Company, Inc. 30762 State Highway 181 Daphne AL 36526 US

12/14/2010 11/8/2010 ZY728 Electricfil Corp 18831 Carters Circle Elkmont AL 35620 US Lynn Lane HR Manager 256-732-4044 256-431-9050 lynn.lane@electricfil.com

11/7/2010 11/8/2010 XM364 Vulcan Engineering Co 1 Vulcan Drive Helena AL 35080 US

12/8/2010 11/8/2010 NJ213 Dynetics, Inc. 1002 Explorer Boulevard Huntsville AL 35806 US Meridith Martin Operations Manager 2569229230 2569644266 meridith.martin@dynetics.com

11/7/2010 11/8/2010 WQ438 Alfa Insurance 2108 East South Blvd Montgomery AL 36191 US

11/7/2010 11/8/2010 ZY732 Tiffin Motor Homes 105 Second St. NW Red Bay AL 35582 US

11/7/2010 11/8/2010 PU545 Southern Comfort Conversions 7769 Gadsden Highway Trussville AL 35173 US

11/7/2010 11/8/2010 XA815 Westernvelt 1400 Jack Warner Parkway Tuscaloosa AL 35404 US

11/7/2010 11/8/2010 ZY733 Tuskegee University Office of HR Mgt., 101 Kresge Center Tuskeegee Inst. AL 36088 US

11/7/2010 11/8/2010 XG321 WestPoint Homes, Inc 6211 Fairfax Bypass Valley AL 36854 US

12/8/2010 11/8/2010 XA814 Vulcan Materials Company 1200 Urban Center Drive Vestavia AL 35242 US Mary Thomas Brewer Product Manager 205-298-3797 205-821-2336 thomas-brewerm@vmcmail.com

11/7/2010 11/8/2010 XD253 T.A.W., Inc. 105 Collum Lane West ALMA AR 72921 US

11/7/2010 11/8/2010 NB165 Snapon Tools 309 Exchange Avenue Conway AR 72032 US

11/7/2010 11/8/2010 ZY748 Federal Coach 7400 S. 28th Street Fort Smith AR 72906 US

11/7/2010 11/8/2010 ZY746 Acxiom Corp 1 Information Way P.O. Box 8180 Little Rock AR 72202 US

11/7/2010 11/8/2010 NY895 Windstream Communications 4001 Rodney Parham Road Little Rock AR 72212 US

11/7/2010 11/8/2010 UH147 ALLTEL One Allied Drive Little Rock AR 72202 US

11/7/2010 11/8/2010 XI628 J.B. Hunt Transport, Inc. 615 JB Hunt Drive Lowell AR 72745 US

11/7/2010 11/8/2010 ZY747 Cloyes Gear & Products PO 528 615 West Walnut Street Paris AR 72855 US

11/7/2010 11/8/2010 XS357 Wal-Mart Stores Inc. 922 West Walnut, Suite A, Mail Code 3450 Rogers AR 72756-3540 US

11/7/2010 11/8/2010 XB822 Tyson Foods, Inc. 2210 Oaklawn Drive Springdale AR 72762 US

11/7/2010 11/8/2010 WR814 Banner Health 7300 W. Detroit Street Chandler AZ 85226 US

11/7/2010 11/8/2010 AD992 Coach-Net 900 N Lake Havasu Ave Lake Havasu City AZ 86403 US

11/7/2010 11/8/2010 YB118 Cruise America 11 West Hampton Avenue Mesa AZ 85210 US

11/7/2010 11/8/2010 XZ069 Hunt Corporation 6720 N Scottsdale Rd Ste 300 PARADISE VALLEY AZ 85253 US

9/6/2011 11/8/2010 XC145 Freeport-McMoRan Copper & Gold 333 North Central Avenue Phoenix AZ 85004 US Allison Stuart HR Generalist 602-366-8581 602-366-7636 allison_stuart@fmi.com

3/25/2011 3/25/2011 AC442 UTI United Technical Institute 20410 north 19th ave.,suite 200 Phoenix AZ 85027 US Greg Dickson 800-859-7249 gdickson@uti.com

3/1/2011 11/8/2010 AD962 Universal Technical Institue 20410 North 19th Ave. ,suite 200 Phoenix AZ 85027 US Greg Dickson VP Customer Solutions & Advanced Training 800-859-7249 623-3630026 gdickson@uti.edu

12/20/2010 11/8/2010 XL678 Cable One 1314 N 3rd St., FL 3 Phoenix AZ 85004 US Melissa Findley Director Purchasing 602-364-6000 Melissa.Findley@Cableone.biz

11/7/2010 11/8/2010 WI143 CBS Outdoor 3150 S 48th St, Ste 200 Phoenix AZ 85040 US

11/7/2010 11/8/2010 WI313 Ewing Irrigation Products 3441 E Harbor Dr PHOENIX AZ 85034 US

11/7/2010 11/8/2010 VB336 Republic Services, Inc 18500 N. Allied Way Phoenix AZ 85054 US

11/7/2010 11/8/2010 ZY740 Eagle Picher Industries 3402 E. University Drive Phoenix AZ 85034 US

11/7/2010 11/8/2010 ZY743 Snell & Wilmer 400 E. Van Buren PHOENIX AZ 85004 US

11/7/2010 11/8/2010 ZY744 SunState Equipment Co 5425 Washington Street Phoenix AZ 85034 US

11/7/2010 11/8/2010 ZY745 Universal Technical Institute 20410 North 19th Avenue Phoenix AZ 85027 US

11/7/2010 11/8/2010 WQ997 Meadow Valley Contractors 4602 E Thomas Rd PHOENIX AZ 85018 US

11/7/2010 11/8/2010 VT939 Swift Transportation Corp Inc. 2200 South 75th Avenue Phoenix AZ 85043 US

11/7/2010 11/8/2010 XE151 Safeway Inc. 20427 North 27th Ave. Phoenix AZ 85027 US

11/7/2010 11/8/2010 BX079 Auto Safety House 2630 W Buckeye Rd PHOENIX AZ 85009 US

11/7/2010 11/8/2010 YA495 U-Haul 2727 North Central Avenue Phoenix AZ 85004 US

11/7/2010 11/8/2010 UH089 Pinnacle West Capital Corp. 400 N 5th Street Phoenix AZ 85004 US

10/27/2011 10/27/2011 AE119 PF Chang's China Bistro Inc. 7676 E. Pinnacle Peak Road Scottsdale AZ 85255 US

11/7/2010 11/8/2010 XJ591 Blood Systems Inc. 6210 E Oak St SCOTTSDALE AZ 85257 US

11/7/2010 11/8/2010 ZY737 B33 Consulting, Inc. 8277 E Remuda Drive SCOTTSDALE AZ 85255 US

11/7/2010 11/8/2010 ZY738 Barrett-Jackson Auction Co. 7400 E. Monte Cristo Avenue SCOTTSDALE AZ 85260 US

11/7/2010 11/8/2010 HB692 Rental Service Corp. 6929 E. Greenway Prky Ste 200 Scottsdale AZ 85254 US

3/4/2011 11/8/2010 WI988 ASML US, Inc. 8555 S River Pkwy Tempe AZ 85284 US Sharon Garza Fleet Administrator 480-383-4159 sharon.garza@asml.com

11/7/2010 11/8/2010 ZY735 Arizona Cardinals Football Club 8701 South Hardy Drive Tempe AZ 85284 US

11/7/2010 11/8/2010 ZY736 Arizona State University Emp. Wellness Program P.O. Box 875612 Tempe AZ 85287 US

11/7/2010 11/8/2010 AC884 MOBILE MINI INC 7420 S Kyrene Road, Ste 101 TEMPE AZ 85283 US

11/7/2010 11/8/2010 NQ051 Tolt Service Group 850 W Elliott, Ste110 TEMPE AZ 85284 US

11/7/2010 11/8/2010 XY866 Pulte Building Systems 600 South 94th Avenue Tolleson AZ 85353 US

11/7/2010 11/8/2010 UH488 Tucson Electric Power 4354 East Irvington Road Tucson AZ 85702 US

12/20/2010 11/8/2010 UH135 First Energy 76 S Main Street Akron CA 44308 US Tom Messick President 714-693-3693 714-693-3693 tom@employeemall.com

11/7/2010 11/8/2010 HA152 Operating Engineers Local Union #3 1620 South Loop Road ALAMEDA CA 94502 US

12/7/2010 11/8/2010 NQ886 RSI Home Products 400 E. Orangethrope Ave. Anaheim CA 92801 US Luke Aoe HR Manager 1-714-578-2081 1-714-292-0422 laoe@rsihomeproducts.com

11/7/2010 11/8/2010 ZY755 Associated Volume Buyers Inc. 100 South Anaheim Blvd Suite 250 Anaheim CA 92805 US

11/7/2010 11/8/2010 ZY786 Iteris, Inc. 1515 S. Manchester Ave. Anaheim CA 92802 US

11/7/2010 11/8/2010 XG375 Western Exterminator Co. 305 North Crescent Way Anaheim CA 92801 US

11/7/2010 11/8/2010 XG986 Penhall Company 1801 Penhall Way Anaheim CA 92801 US

11/7/2010 11/8/2010 ZY791 Long's Drugs 5065 Deer Valley Road Antioch CA 94531 US

11/7/2010 11/8/2010 WC302 First Alarm Security Patrol 1111 Estates Drive APTOS CA 95003 US

11/7/2010 11/8/2010 XQ762 William Bolthouse Farms 7200 East Brundage Lane Bakersfield CA 93307 US

11/7/2010 11/8/2010 XD012 Aera Energy LLC 10000 Ming Avenue Bakersfield CA 93311 US

11/7/2010 11/8/2010 XX615 Grimmway Enterprises 6900 Mountain View Road Bakersfield CA 93307 US

11/7/2010 11/8/2010 XG185 Western Oil Field Supply 3404 State Street PO Box 2248 Bakersfield CA 93303 US

12/6/2010 11/8/2010 WZ271 Allied Exhaust Systems Inc. P.O. Box 2004 Benicia CA 94510 US Bob Hopton Chief Financial Officer 707-745-0506 707-747-3318 bob.hopton@alliedexhaust.com

11/7/2010 11/8/2010 ZY764 California, Berkeley (Univ of) Faculty 191 Unversity Dr 1106 Berkeley CA 94720 US

11/7/2010 11/8/2010 XU972 Hilton Hotels Corporation 9336 Civic Center Drive Beverly Hills CA 90210 US

11/7/2010 11/8/2010 WR839 Fox Studios 10201 W Pico Blvd, Bldg 667 Beverly Hills CA 90213 US

11/7/2010 11/8/2010 XC256 Beckman Coulter 250 S Kraemer Blvd BREA CA 92821 US

11/7/2010 11/8/2010 XY001 Peterson Brothers Construction, Inc. 1560 West Lambert Road Brea CA 92821 US

11/7/2010 11/8/2010 BA396 Krystal Enterprises 2701 E. Imperial Hwy. Brea CA 92821 US

11/7/2010 11/8/2010 ZI784 Harbor Truck Bodies 255 Boyager Avenue Brea CA 92821 US

12/10/2010 11/8/2010 VX083 Hitachi America 1000 Marina Blvd Brisbane CA 94005 US Carol Kale Assistant Manager 925-918-2311 carol.kale@hal.hitachi.com

12/14/2010 11/8/2010 AD936 Page One 211 South Hill Dr., Suite D Brisbane CA 94005 US Terry Page Owner 415-824-0450 415-467-1000 terry@pageoneauto.com

3/13/2011 3/4/2011 AE059 Monster Cable 455 Valley Drive Brisbane CA 94005 US

11/7/2010 11/8/2010 AA930 Mobile Storage Group 7490 N Glenoaks Blvd. BURBANK CA 91504 US

11/7/2010 11/8/2010 AA986 Detection Logic Fire Protection 7605 N San Fernando Road BURBANK CA 91505 US

11/7/2010 11/8/2010 NP523 Warner Brothers 400 Warner Boulevard Burbank CA 91522 US

3/13/2011 3/4/2011 AE040 Archco 1350 Bayshore Highway, Suite 218 Burlingame CA 94010 US

11/7/2010 11/8/2010 XC231 Valley Crest 24121 Ventura Boulevard Calabasas CA 91302 US

11/7/2010 11/8/2010 ZY828 Transit Authority Co. 8020 Deering Avenue Canoga Park CA 91304 US

11/7/2010 11/8/2010 AD966 Merlin Entertainment One Legoland Drive Carlsbad CA 92008 US Heather Moyer (760) 918-5346 Heather.Moyer@legoland.com

Nov-10


11/7/2010 11/8/2010 AC440 Callaway Golf Company 2180 Rutherford Road Carlsbad CA 92008 US

11/7/2010 11/8/2010 XK946 Carl Karcher Enterprises 6307 Carpinteria Ave Suite A Carpinteria CA 93013 US Jennifer Blades

11/7/2010 11/8/2010 NP300 Southern Wine & Spirits 17101 Valley View Ave CERRITOS CA 90703 US

2/11/2011 11/8/2010 WR503 Valley Power Systems, Inc 425 S. Hacienda Blvd City of Industry CA 91745 US Diane Nelson Manager, Administration 626-934-6156 626-333-1243 diane.nelson@valleypsi.com

11/7/2010 11/8/2010 ZY818 Smart & Final 600 Citadel Drive Commerce CA 90040 US

11/7/2010 11/8/2010 WF902 Old Republic Title Company 1001 Galaxy Way Suite 100 Concord CA 94520 US Susan Fullerton

11/7/2010 11/8/2010 XG646 Swinerton Builders 4055 Nelson Avenue Concord CA 94520 US

11/7/2010 11/8/2010 BA457 Tiffany Coachworks 1771 Delilah Corona CA 92879 US

12/6/2010 11/8/2010 HC789 Ceradyne, Inc. 3169 Redhill Avenue Costa Mesa CA 92626 US Cynthia Rivers H.R. receptionist 1-714-549-0421 ext 0 crivers@ceradyne.com

11/7/2010 11/8/2010 WN015 Valeant Pharmaceuticals 3300 Hyland Avenue Costa Mesa CA 92626 US

11/7/2010 11/8/2010 XE849 Experian 475 Anton Boulevard Costa Mesa CA 92626 US

11/7/2010 11/8/2010 WA715 SONY PICTURES 10202 W. Washington Blvd. Culver City CA 90232 US

11/7/2010 11/8/2010 XG894 Apple Inc. 1 Infinite Loop MS 50 OPS Cupertino CA 95014 US

12/7/2010 11/8/2010 XS610 Yamaha Motor Corporation 6555 Katella Ave Cypress CA 90630 US Lynn Palmer Vehicle Administrator 714-761-7637 714-761-7637 lynn_palmer@yamaha-motor.com

11/7/2010 11/8/2010 ZY805 PacifiCare 5995 Plaza Drive Cypress CA 90630 US

11/7/2010 11/8/2010 AD978 Mitsubishi Motor Sales of America 6400 Catella Avenue Cypress CA 90630 US

11/7/2010 11/8/2010 ZY770 DST Output 5220 Robert J. Matthews Parkway El Dorado Hills CA 95762 US

11/7/2010 11/8/2010 XC857 Computer Science Corporation 2100 East Grand Avenue El Segundo CA 90245 US Leonie Von Halle

11/7/2010 11/8/2010 XC212 Northrop Grumman Corp 1 Hornet Way El Segundo CA 90245 US

11/7/2010 11/8/2010 WA254 MV Transportation, Inc. 360 Campus Lane, Suite 201 Fairfield CA 94534 US

11/7/2010 11/8/2010 ZY765 Calpine Corporation 1180 Iron Point Road, Ste 300 Folsom CA 95630 US

11/7/2010 11/8/2010 WX597 Gilead 333 Lakeside Drive Foster City CA 94404 US Nou Vongchantha

11/7/2010 11/8/2010 AD975 Hyundai Motor America 10550 Talbert Avenue Fountain Valley CA 92708 US

12/8/2010 11/8/2010 ZY801 Omron Scientific Technologies, Inc 6550 Dumbarton Circle FREMONT CA 94555 US Betty Wargo HR Manager 510-608-3400 betty_wargo@sti.com

11/7/2010 11/8/2010 BX301 Scelzi Enterprises 2286 East Date Fresno CA 93706 US

11/7/2010 11/8/2010 VR760 Prime Wheel Corporation 17705 South Main Street Gardena CA 90248 US

11/7/2010 11/8/2010 WF941 Mygrant Glass 3271 Arden Road Hayward CA 94545 US

1/28/2011 11/8/2010 XZ201 Paramount Pictures 5555 Melrose Avenue Hollywood CA 90038 US Benjamin Slutsky Financial Analyst 323-956-4028 ben_slutsky@paramount.com

9/14/2011 9/14/2011 AE113 Resources Global 17101 Armstrong Avenue Irvine CA 92614 US Carol Ackerman (714) 241-6928

5/18/2011 5/18/2011 NX647 ISTA Pharmaceuticals 50 Technology Drive Irvine CA 92618 US Irma Acuna (949) 789-3169 iacuna@istavision.com

3/2/2011 11/8/2010 ZY819 Specific Media 4 Park Plaza, Ste. 1500 IRVINE CA 92614 US Jennifer Hagstedt Director of Human Resources 949.861.2425 248.658.3809 jhagstedt@specificmedia.com

3/13/2011 11/8/2010 NN321 Edwards Lifesciences, LLC One Edwards Way Irvine CA 92614 US Raelene Kretchman YouDecide 222-222-2222 222-222-2222 kevin.kannenberg@youdecide.com

9/12/2011 11/8/2010 WG544 Allergan, Inc. 2525 Dupont Dr IRVINE CA 92612 US Stephanie Rogers Fleet Administrator 1-714-246-6475 rogers_stephanie@allergan.com

11/7/2010 11/8/2010 ZY754 AMP Research 2552 McGaw Irvine CA 92614 US

11/7/2010 11/8/2010 ZY766 Corvel 2010 Main Street Suite #600 Irvine CA 92614 US

11/7/2010 11/8/2010 VK472 Monier Lifetile 7575 Irvine Center Drive, #100 Irvine CA 92618 US

11/7/2010 11/8/2010 ZY815 Saleen, Inc. 76 Fairbanks Irvine CA 92618 US

11/7/2010 11/8/2010 ZY823 Technicon Design Corp 18004 Skypark Circle Suite 210 Irvine CA 92614 US

11/7/2010 11/8/2010 VS655 Mazda North American Operations 7755 Irvine Center Drive Irvine CA 92623 US

11/7/2010 11/8/2010 AD976 Kia Motors of America 111 Peters Canyon Road Irvine CA 92606 US

11/7/2010 11/8/2010 NT208 Autobytel, Inc. 18872 MacArthur Blvd. Irvine CA 92612 US

11/7/2010 11/8/2010 VW706 Stantec Consulting 19 Technology Dr Irvine CA 92618 US

11/7/2010 11/8/2010 XF793 Southland Industries 17941 Fitch Irvine CA 92614 US

11/7/2010 11/8/2010 AC598 Summit Events 7668 El Camino Real #104-170 La Costa CA 92009 US Randy Hanson Owner 760-438-2306 randyh@seonthenet.com

11/7/2010 11/8/2010 AC812 Douglas Henry Design 26081 Merit Circle #107 Laguna Hills CA 92653 US Doug Henry Owner 949-263-0388 dhdesgn@aol.com

11/30/2010 11/30/2010 AE013 Camisasca 20352 Hermana Circle Lake Forest CA 92630 US Peter Triolo 201-529-3100 201-529-1334 specialityacc@aol.com

11/7/2010 11/8/2010 VY603 Apria Healthcare Inc. 26220 Enterprise Ct Lake Forest CA 92630 US

11/7/2010 11/8/2010 ZY812 Rexhall Industries 46147 Seventh Street W. Lancaster CA 93534 US

11/7/2010 11/8/2010 WT484 F Rodgers Specialist Corp 7775 Las Positas Road Livermore CA 94551 US

11/7/2010 11/8/2010 XY836 Cupertino Electric Inc. 2659 Collier Canyon Road Livermore CA 94550 US

11/7/2010 11/8/2010 WE461 Top Grade Construction Company 50 Contractors Street Livermore CA 94551 US

11/7/2010 11/8/2010 NK056 Foster Farms 1333 Swan Street Livingston CA 95334 US

12/29/2010 11/8/2010 ZY807 Pioneer Electronics Corporation 1925 E Dominguez St. Long Beach CA 90810 US Liliana Velazquez HR Generalist 310-952-2139 Liliana.Velazquez@pioneer-usa.com

11/7/2010 11/8/2010 AB327 Alliance Inspection Mgt 330 Golden Shore, Ste 400 LONG BEACH CA 90802 US

11/7/2010 11/8/2010 XC227 Farmers Insurance Company 4750 Wilshire Blvd Los Angeles CA 90010 US Doyle Lee

11/7/2010 11/8/2010 NC640 BreitBurn Mgt Co LLC 515 S Flower St #4800 LOS ANGELES CA 90071 US

11/7/2010 11/8/2010 XN164 Roll International Corp 11444 West Olympic Blvd., Suite 120 LOS ANGELES CA 90064 US

11/7/2010 11/8/2010 ZY783 Graphic Press, LLC 6100 S. Malt Avenue Los Angeles CA 90040 US

11/7/2010 11/8/2010 ZY796 Metro-Goldwin-Mayer Studios, Inc. 10250 Constellation Blvd Los Angeles CA 90067 US

11/7/2010 11/8/2010 XX087 GARDA 3021 Gilroy Street Los Angeles CA 90039 US

11/7/2010 11/8/2010 ZY761 Battery M.D. 5926 Patrol Road, Bldg 1093 McClellan CA 95652 US

11/7/2010 11/8/2010 ZY756 ATC Onlane 4600 Bohannon Drive, Suite 100 MENLO PARK CA 94025 US

11/7/2010 11/8/2010 ZY813 Robert Half International, Inc. 2884 Sand Hill Rd MENLO PARK CA 94025 US

11/7/2010 11/8/2010 ZY810 PTS Hadley Auto 4500 B-Etiwanda Avenue Mira Loma CA 91752 US

3/22/2011 11/8/2010 WT382 James Hardie Industries, Inc. 26300 LA Alameda, Suite 400 Mission Viejo CA 92691 US Laurie Gizer Fleet Administrator 9093567423 laurie.gizer@jameshardie.com

11/7/2010 11/8/2010 ZY771 DST, Inc. 25909 Pala; Suite 250 MISSION VIEJO CA 92691 US

11/7/2010 11/8/2010 HP001 Hewlett Packard 690 E. Middlefield Road, MS 2041 Mountain View CA 94043 US

11/7/2010 11/8/2010 WG061 Fosters Wine Estates Americas Co PO Box 450 NAPA CA 94558 US Helen Roberts

3/25/2011 3/25/2011 AE012 BT Western 4 Upper Newport Plaza, Suite 200 Newport Beach CA 92660 US Frank Muccia 949-476-8424 Fmuccia@btwestern.com

11/7/2010 11/8/2010 XC334 MCM Constuction Co. 6413 32nd Street NORTH HIGHLANDS CA 95660 US

11/7/2010 11/8/2010 AC956 International Promotions 10725 Vanowen St. North Hollywood CA 91605 US Linda Swick President 818-755-6333 linda@intlpromotions.com

11/30/2010 11/30/2010 AE019 Peak Performance 9255 Corbin Ave Suite 100 Northridge CA 91324 US Patricia Gaulin 800-888-0024 X2259 818-407-3912 pgaulin@peakpartner.com

11/7/2010 11/8/2010 XE240 Firemans Fund Insurance 777 San Marin Drive Novato CA 94998 US

2/1/2011 11/8/2010 XG379 Matson Navigation 555 12th Street, 8th Floor Oakland CA 94607 US Rick Ryan Workforce Planning Analyst 510-628-4306 rryan@matson.com

11/7/2010 11/8/2010 ZY793 Matson Navigation Co 555 12th Street OAKLAND CA 94607 US

11/7/2010 11/8/2010 ZY825 The Clorox Company 1221 Broadway Oakland CA 94612 US

11/7/2010 11/8/2010 XX795 American President Lines 1111 Broadway Oakland CA 94607 US

11/7/2010 11/8/2010 VV831 Northern CA Carpenters Regional Council 448 Hegenberger Road Oakland CA 94621 US

11/7/2010 11/8/2010 WF207 McGuire & Hester Construction Company 9009 Railroad Ave Oakland CA 94603 US

5/26/2011 11/8/2010 ZY826 Thermal Dynamics 4850 E Airport Drive Ontario CA 91761 US Alfonso Facility Manager 909-390-3944 800-266-5645 asalgado@thermaldynamics.com

11/7/2010 11/8/2010 ZY775 EGR 4000 E Greystone Drive Ontario CA 91761 US

11/7/2010 11/8/2010 WD993 ICEE Company 4701 Airport Drive Ontario CA 91761 US

11/7/2010 11/8/2010 XQ791 AmeriSourceBergen 4000 Metropolitan Drive Orange CA 92868 US

2/14/2011 11/8/2010 AD941 Pacific Vehicle Processors 5601 Edison Drive Oxnard CA 93033 US Maria Reyes Human Resources Manager 805 986-5730 805 444-3101 Maria.Reyes@2wglobal.com

12/12/2011 12/12/2011 AE127 VMware 3401 Hillview Avenue Palo Alto CA 94304 US

11/7/2010 11/8/2010 XF544 Con-way Inc. 3240 Hillview Avenue Palo Alto CA 94304 US

11/7/2010 11/8/2010 WV561 Sun Microsystems 901 San Antonio Road Palo Alto CA 94301 US

11/7/2010 11/8/2010 ZY767 Creative Technology 14000 Arminta Street PANORAMA CITY CA 91402 US

11/7/2010 11/8/2010 BX453 Royal Truck Body 14001 Garfield Avenue Paramount CA 90723 US

11/7/2010 11/8/2010 ZY773 Earthlink 460 Sierra Madre Villa Pasadena CA 91107 US

11/7/2010 11/8/2010 ZY798 MWH Americas 301 N. Lake Avenue #600 Pasadena CA 91101 US

11/7/2010 11/8/2010 VM365 Pacific Clinics 909 South Fair Oaks Avenue Pasadena CA 91105 US

11/7/2010 11/8/2010 ZY799 National RV 3411 N. Perris Blvd. Perris CA 92571 US

11/7/2010 11/8/2010 ZY800 NSC 6920 Koll Center Parkway, Ste 211 Pleasanton CA 94566 US

11/7/2010 11/8/2010 WP434 Simpson Manufacturing Company, Inc. 5956 West Laspositas Bouleva Pleasanton CA 94588 US

11/7/2010 11/8/2010 UH065 Southern California Ediso 265 E End Pomona CA 91767 US


11/7/2010 11/8/2010 ZY790 Kumho Tire Co., Inc 10299 6th Street Rancho Cucamonga CA 91730 US

11/7/2010 11/8/2010 ZY803 Oracle Corp. 500 Oracle Parkway Redwood City CA 94065 US

11/7/2010 11/8/2010 XZ177 DPR Construction Inc 1450 Veterans Boulevard Redwood City CA 94063 US

11/7/2010 11/8/2010 NE358 Fleetwood Enterprises, Inc. 3125 Myers Street Riverside CA 92503 US

11/7/2010 11/8/2010 AC414 Pride Industries 10030 Foothills Blvd ROSEVILLE CA 95747 US

6/10/2011 11/8/2010 VH799 Elan Pharmaceuticals 180 Oyster Point Blvd. S. San Francisco CA 94080 US Marilyn Chan-Hinoki Fleet Management Operations 650-794-5903 Marilyn.Chan-Hinoki@elan.com

8/4/2011 11/8/2010 NI616 Actelion Pharmaceuticals US Inc 5000 Shoreline Ct, Suite 200 S. San Francisco CA 94080 US Rehana Hussain HR Specialist (Fleet) 6506246900 6506246943 rehana.hussain@actelion.com

11/7/2010 11/8/2010 XC340 A. Teichert and Son, Inc. P. O. BOX 15002 Sacramento CA 95851 US

11/7/2010 11/8/2010 WM911 Fresh Express 627 Brunken Salinas CA 93912 US

11/7/2010 11/8/2010 ZY772 Duda 1260 Growers Street Salinas CA 93902 US

11/7/2010 11/8/2010 XH109 Tanimura & Antle One Harris Ranch Road Salinas CA 93908 US

4/6/2011 11/30/2010 AE018 Myron & Davis 1425 Cooley Court San Bernardino CA 92408 US Arthur Chang Project Manager 909-796-3199 achang@myronanddavis.com

11/7/2010 11/8/2010 XY500 Stater Brothers Markets 301 Tippecanoe Avenue San Bernardino CA 92408 US Ron Figueredo

11/7/2010 11/8/2010 XJ203 Kelly-Moore Paint Co. 987 Commercial Street San Carlos CA 94070 US

11/7/2010 11/8/2010 NZ716 Amylin Pharmaceuticals, Inc. 9360 Towne Centre Dr SAN DIEGO CA 92121 US Beth Bryan

11/7/2010 11/8/2010 UH993 Sempra 101 Ash Street San Diego CA 92101 US David Giese

11/7/2010 11/8/2010 NG746 Prometheus 9410 Carroll Park Drive San Diego CA 92121 US Sushmita Utpala

11/7/2010 11/8/2010 WJ558 Kleinfelder 5015 Shoreham Place San Diego CA 92122 US

11/7/2010 11/8/2010 ZY749 Affinity Development Group 5910 Pacific Center Blvd San Diego CA 92121 US

11/7/2010 11/8/2010 AC503 Carefusion 3750 Torrey View Ct SAN DIEGO CA 92130 US

11/7/2010 11/8/2010 ZY829 United States Lifesaving Assoc 3850 Sequoia Street SAN DIEGO CA 92109 US

11/7/2010 11/8/2010 XC320 McKesson 1 Post Street 28th Floor San Francisco CA 94104 US

11/7/2010 11/8/2010 ZY776 Esurance, Inc. 747 Front Street, 4th Floor San Francisco CA 94111 US

11/7/2010 11/8/2010 XD882 Yellow Cab Coop Inc. 1200 Mississippi St SAN FRANCISCO CA 94107 US

11/7/2010 11/8/2010 UH066 Pacific Gas and Electric 245 Market Street, MC N5F San Francisco CA 94105 US

11/7/2010 11/8/2010 UH163 California Water Service Company 1720 North First Street San Jose CA 95112 US

11/7/2010 11/8/2010 NB527 Draeger Construction 605 Commercial Street San Jose CA 95112 US

11/7/2010 11/8/2010 NG003 Cisco Systems 170 W Tasman Bldg 5 3rd Floor San Jose CA 95134 US

11/7/2010 11/8/2010 WN858 Rosendin Electric 880 N Maybury Rd San Jose CA 95133 US

11/7/2010 11/8/2010 ZY780 Fry's Electronics 600 East Brokaw Road San Jose CA 95112 US

11/7/2010 11/8/2010 ZY762 Bigge Crane & Rigging Company 10700 Bigge Avenue San Leandro CA 94577 US

11/7/2010 11/8/2010 ZY806 Peterson Holding Company 955 Marina Boulevard San Leandro CA 94577 US

11/7/2010 11/8/2010 AD046 Hunter Industries Incorporated 1940 Diamond St SAN MARCOS CA 92078 US

11/7/2010 11/8/2010 NK477 Menlo Worldwide 2855 Campus Dr., Suite 300 SAN MATEO CA 94403 US

11/7/2010 11/8/2010 ZY831 WageWorks, Inc. Two Waters Park Drive, Suite 250 San Mateo CA 94403 US

11/7/2010 11/8/2010 ZY758 Autodesk 111 McInnis Parkway San Rafael CA 94903 US

11/7/2010 11/8/2010 ZY804 Orient Oversea Container Line Inc (Oocl) 2633 Camino Ramon, Suite 400 San Ramon CA 94583 US

11/7/2010 11/8/2010 XP061 First American Title 114 E. Fifth St. Santa Ana CA 92701 US

11/7/2010 11/8/2010 ZY797 MSC Software Corporation 2 MacArthur Place Santa Ana CA 92707 US

11/7/2010 11/8/2010 NQ330 Advanced Medical Optics 1700 East St. Andrews Place Santa Ana CA 92705 US

11/11/2011 11/11/2011 AE125 Automotive Lease Guide (ALG) 3760 State Street, Suite 200 Santa Barbara CA 93105 US Sharon Zamora (805) 898-8402 szamora@alg.com

11/7/2010 11/8/2010 ZY759 Automotive Lease Guide Inc. 3760 State Street, Suite 200 SANTA BARBARA CA 93105 US

11/7/2010 11/8/2010 ZY811 QAD, Inc. 100 Innovation Place SANTA BARBARA CA 93108 US

11/7/2010 11/8/2010 VQ174 Mission Linen Supply East Montecito Street Santa Barbara CA 93102 US

11/7/2010 11/8/2010 WT867 Jordanos, Inc. 550 S Patterson Ave SANTA BARBARA CA 93111 US

3/13/2011 3/4/2011 AE068 Renesas Electronics 2880 Scott Blvd Santa Clara CA 95050-2554 US

11/7/2010 11/8/2010 NC039 Agilent Technologies 5301 Stevens Creek Boulevard Santa Clara CA 95051 US

11/7/2010 11/8/2010 VM301 Sasco Electric Company 3508 Bassett Street Santa Clara CA 95054 US

11/7/2010 11/8/2010 BX342 Marathon Industries 25655 Springbrook Santa Clarita CA 91350 US

11/5/2011 11/8/2010 QS135 ALT CREATE 121 Colorado St Santa Cruz CA 95060 US Ana Todd Marketing & Design Director 954-261-8945 954-261-8945 ana@altcreate.com

10/13/2011 3/4/2011 AE071 Seagate Technology 920 Disc Drive Scotts Valley CA 95066 US

11/7/2010 11/8/2010 XY105 Sutter Home Winery 277 South St Helena Highway St Helena CA 94574 US Rocio Wilson

11/7/2010 11/8/2010 NN978 CBS Studio Center 4024 Radford Avenue Studio City CA 91604 US

11/7/2010 11/8/2010 NJ080 Yahoo! 701 First Ave Sunnyvale CA 94089 US

11/7/2010 11/8/2010 ZY817 SIMCO Electronics 1178 Bordeaux Drive Sunnyvale CA 94089 US

11/7/2010 11/8/2010 ZY824 TeleNav 1130 Kifer Road SUNNYVALE CA 94086 US

12/6/2010 11/8/2010 WB250 Amgen Inc One Amgen Center Drive Thousand Oaks CA 91320 US Marilyn Mansell US Fleet Manager 805-447-1000 mmansell@amgen.com

12/13/2010 11/8/2010 AC447 PCGCampbell 2340 Plaze Del Amo, #130 Torrance CA 90501 US Kyle Reuter Account Director 310-224-4900 310-224-4957 kreuter@pcgcampbell.com

11/7/2010 11/8/2010 AD935 The Prietive Group 1227 A Knox St. Torrance CA 90502 US Patrick Prieto General Manager 310-324-9903 pprieto@prietive-group.com

11/7/2010 11/8/2010 AD969 American Honda Motor Company 1919 Torrance Boulevard Torrance CA 90501 US

11/7/2010 11/8/2010 AD982 Toyota Motor Sales, USA 19001 S. Western Avenue Torrance CA 90501 US

11/7/2010 11/8/2010 AD983 Acura Motors of America 700 Van Ness Avenue Torrance CA 90501 US

11/7/2010 11/8/2010 AD985 Lexus Motor Cars 19001 S. Western Avenue Torrance CA 90501 US

11/7/2010 11/8/2010 WP054 Universal Studios 100 Universal City Plaza Universal City CA 91608 US

1/21/2011 11/8/2010 WS120 Gothic Landscape 27502 Avenue Scott Valencia CA 91355 US Larry Saltman Director of Purchasing 661-257-1266 lsaltman@gothiclandscape.com

11/7/2010 11/8/2010 ZY760 AVK Industrial Products 25323 Rye Canyon Road Valencia CA 91355 US

11/7/2010 11/8/2010 ZY822 Superior Industries International 7800 Woodley Avenue Van Nuys CA 91406 US

7/26/2011 7/21/2011 XI324 Basic American Foods 2121 N. California Blvd. Walnut Creek CA 94596 US Jackie White Fleet Manager 925-472-4253 jwhite@baf.com

2/16/2011 11/8/2010 ZY779 Fox Racing Shox 130 Hangar Way WATSONVILLE CA 95076 US Bonnie Chesser HR Operations Leader 831.728.7671 831.274.6585 bchesser@foxracingshox.com

11/7/2010 11/8/2010 ZY769 Driscoll's Strawberries A 345 Westridge Drive Watsonville CA 95077 US

11/7/2010 11/8/2010 JI152 Granite Construction 587 W. Beach Street Watsonville CA 95076 US

2/1/2011 11/8/2010 XF912 Dole Food Company 1 Dole Drive Westlake Village CA 91362 US Patrick Yau Business Analyst 8188744000 patrick.yau@dole.com

12/23/2010 11/8/2010 ZY787 J.D. Power and Associates 2625 Townsgate Road., Suite 100 Westlake Village CA 91361 US Sharon Welz HR Administrator 805-418-8681 805-418-8000 sharon.welz@jdpa.com

11/7/2010 11/8/2010 HC370 Consolidated Electrical Distributors 31356 Via Colinas Westlake Village CA 91362 US

11/7/2010 11/8/2010 NF375 Tremont Group 1000 N. East Street Woodland CA 95776 US

12/13/2011 12/12/2011 AE126 Productive Access 22343 La Palma, Suite 110 Yorba Linda CA 92887 US Mark Lummas Director of Client Services (714) 693-3110 mlummas@paiwhq.com

4/17/2011 11/8/2010 WV384 USAA 17451 Bastanchury Road Suite 201 Yorba Linda CA 92886 US Tom Messick President-EmployeeMall 714-693-3693 tom@employeemall.com

11/7/2010 11/8/2010 WV304 Wagner Equipment Co. 18000 Smith Road Aurora CO 80011 US

1/4/2012 11/8/2010 ZY853 Level 3 Communications 1025 Eldorado Blvd Broomfield CO 80021-8254 US Michelle Parrish Billing Coordinator 720-888-1598 720-888-3929 mikki.parrish@level3.com

11/7/2010 11/8/2010 WJ242 Ball Corporation 300 W 108th Circle BROOMFIELD CO 80021 US

11/7/2010 11/8/2010 ZY837 Casey Industrial Inc. 11845 Teller Street BROOMFIELD CO 80020 US

11/7/2010 11/8/2010 VI210 Heating & Plumbing Engineers 407 W. Fillmore Place Colorado Springs CO 80907 US

11/7/2010 11/8/2010 ZY835 Auto Truck Group / Layton Truck Equipment 2425 East Platte Colorado Springs CO 80915 US

11/7/2010 11/8/2010 BA313 Layton Truck Equipment 2425 East Platte COLORADO SPRINGS CO 80915 US

11/7/2010 11/8/2010 AD943 Fleet Car Carrier PO Box 250 Commerce City CO 80037-0250 US Keith Oxenreider President Operations 800 624 3256 303 358 2500 koxenreider@fleetcar.com

11/7/2010 11/8/2010 AD933 Automotive Media Solutions 4835 Monaco St., Unit C Commerce City CO 80022 US Paul Shipley Owner 303-292-1150 paul@testcars.net

11/7/2010 11/8/2010 ZY846 Fleet Car Lease 7563 Dahlia Street Commerce City CO 80022 US

11/7/2010 11/8/2010 ZY860 PCL Construction 7815 Highway 6 and 85 Commerce City CO 80022 US

11/7/2010 11/8/2010 BX147 Frontier Truck 7167 East 53rd St. Commerce City CO 80022 US

11/7/2010 11/8/2010 AD953 Charles M Schayer Company 3839 Newport Street Denver CO 90207 US Charles M Schayer President 303 399 5160 cms@schayer.com

2/9/2011 11/8/2010 UH209 Qwest Communications Inc. 1801 California St. 23rd Floor Denver CO 80202 US Margie Dobis Pension Manager

Purchasing Manager, Global Indirect/MRO

303 992-6286 margie.dobis@qwest.com

1/24/2011 11/8/2010 XB015 Gates Corp. 1551 Wewatta Street Denver CO 80202 US Rosanne Savino

Purchasing 303-744-4072 rs2020@gates.com

2/4/2011 11/8/2010 UH807 Xcel Energy 1800 Larimer, Suite 1500 Denver CO 80202 US Tracey Fergerson Marketing Specialist 303-294-2349 303-250-3473 tracey.fergerson@xcelenergy.com

11/7/2010 11/8/2010 UI273 SourceGas 370 Van Gordon St, Ste 4000 DENVER CO 80228 US


11/7/2010 11/8/2010 VE123 Pioneer Natural Resources 1401 17th Street 1200 Denver CO 80202 US

11/7/2010 11/8/2010 XB836 Noble Energy 1625 Broadway, Suite 2000 Denver CO 80202 US

11/7/2010 11/8/2010 AC110 Verizon Business 707 17th St. 4100 Denver CO 80202 US

11/7/2010 11/8/2010 ZY841 DCP Midstream 370 17th Street Denver CO 80202 US

11/7/2010 11/8/2010 ZY856 Nextel Communications 4643 South Ulster St., Ste.500 Denver CO 80237 US

11/7/2010 11/8/2010 ZY870 Tuff Shed 1777 S. Harrison Street, #600 Denver CO 80210 US

11/7/2010 11/8/2010 NT060 Chipotle 1401 Wynkopp Street Denver CO 80202 US

3/24/2011 11/8/2010 ZY768 DIRECTV, Inc. 6501 E Belleview Ave Englewood CO 80111 US Brandon Morris Director, Fleet Services 3033956073 bmorris@dtvhs.com

1/27/2011 12/28/2010 WW753 The Sports Authority 1050 West Hamden Avenue Englewood CO 80110 US Mike Mavelle VP Risk Management (303) 863-2285 mmavelle@thesportsauthority.com

11/7/2010 11/8/2010 ZY838 CH2M Hill, Inc. 9191 South Jamaica Street Englewood CO 80112 US

11/7/2010 11/8/2010 ZY842 Echostar Dish Network 9601 S. Meridian Blvd. ENGLEWOOD CO 80112 US

11/7/2010 11/8/2010 ZY844 First Data Corp Western Union 6200 South Quebec, Suite 440 Englewood CO 80111 US

11/7/2010 11/8/2010 NW852 180 Connect/Ironwood 6501 E. Belleview Ave. Englewood CO 80111 US

11/7/2010 11/8/2010 XY738 TeleTech 9197 S. Peoria , 2-156.3 Englewood CO 80112 US

11/7/2010 11/8/2010 ZY852 Leed Energy Services 1352 Factory Dr. P.O. Box 329 Fort Lupton CO 80621 US

11/7/2010 11/8/2010 ZY859 Pason Systems Inc 16100 Table Mountain Parkway, Ste 100 Golden CO 80403 US

11/7/2010 11/8/2010 ZY840 Crop Production Services 7251 W 4th St GREELEY CO 80634 US

11/7/2010 11/8/2010 ZY854 LEXTRON INC 822 7TH ST, SUITE 610 GREELEY CO 80633 US

12/15/2010 11/8/2010 XB296 FCCServices, Inc. 7951 East Maplewood Avenue, Suite 225 Greenwood Village CO 80111 US Pat McFarland Director of National Discount Programs 303.721.3236 303.721.3247 pat.mcfarland@fccservices.com

11/7/2010 11/8/2010 WC253 Charter Communications 6399 S. Fiddler's Green Circle 6th Floor Greenwood Village CO 80111 US

11/7/2010 11/8/2010 ZY855 MYR Group, Inc. 12150 112th Avenue Henderson CO 80640 US

11/7/2010 11/8/2010 ZY834 Arcadis 630 Plaza Drive, Suite 200 Highlands Ranch CO 80129 US

11/7/2010 11/8/2010 ZY850 Kinder Morgan INC. 370 Van Gordon St. Lakewood CO 80228 US

11/7/2010 11/8/2010 NB292 American Civil Constructors 4901 South Windermere Littleton CO 80120 US

11/7/2010 11/8/2010 ND254 Time Warner Telecom, Inc. 10475 Park Meadows Drive Littleton CO 80124 US

11/7/2010 11/8/2010 ZY845 Flatiron Constructors, Inc. 10090 I-25 Frontage Road Longmont CO 80504 US

11/7/2010 11/8/2010 ZY867 TIC International, Inc. 2211 Elk River Road Steamboat Springs CO 80487 US

11/7/2010 11/8/2010 ZY871 Vail Resorts Inc. P.O. Box 7 Vail CO 81658 US

11/7/2010 11/8/2010 ZY858 Orica USA 33101 East Quincy Avenue Watkins CO 80137 US

11/7/2010 11/8/2010 UH156 Tri-State Generation & Trans. 1100 W. 116th Avenue Westminster CO 80234 US

11/7/2010 11/8/2010 UH037 Northeast Utilities 107 Selden Street Berlin CT 6037 US

11/7/2010 11/8/2010 ZY882 Otis Service Center 212 West Newberry Bloomfield CT 6002 US

11/7/2010 11/8/2010 ZY880 Independent Warehouse Distributors, Inc 688 E. Main Street Branford CT 6405 US

12/12/2011 12/12/2011 AE035 People's United Bank 850 Main Street Bridgeport CT 6604 US Ken Catrone (203) 338-7332 Kenneth.catrone@peoples.com

11/7/2010 11/8/2010 ZY875 Barnes Group, Inc. 123 Main Street Bristol CT 6010 US

11/7/2010 11/8/2010 NC258 Alstom 2000 Day Hill Road BROAD BROOK CT 6016 US

11/7/2010 11/8/2010 WK527 Tyree Equipment Corp. 125 Commerce Drive BROOKFIELD CT 6804 US

5/19/2011 11/8/2010 XC432 Lane Construction 90 Fieldstone Court Cheshire CT 6410 US Mark Dennis Fleet Manager 203-439-2900 mdennis@laneconstruct.com

11/7/2010 11/8/2010 ZY888 Whelen Engineering Company Inc Route 145, Winthrop Road Chester CT 6412 US

11/7/2010 11/8/2010 XA113 Praxair, Inc. 39 Old Ridgebury Road Danbury CT 6810 US

11/7/2010 11/8/2010 ZY877 Environmental Systems 7 Kripes Road EAST GRANBY CT 6026 US

11/7/2010 11/8/2010 XA058 General Electric 3135 Easton Turnpike Fairfield CT 6828 US

2/9/2011 11/8/2010 CP003 United Technologies 4 Farm Springs Road, 2nd Floor Farmington CT 6034 US Patrick McGrath Fleet Manager 860-678-4599 patrick.mcgrath@utc.com

3/13/2011 3/4/2011 AE049 CitationAir by Cessna 5 American Lane Greenwich CT 6831 US

11/7/2010 11/8/2010 NL059 Rockwood Service Corp 43 Arch Street Greenwich CT 6830 US

11/7/2010 11/8/2010 AX073 United States Smokeless Tobacco 100 West Putnam Avenue Greenwich CT 6830 US

11/7/2010 11/8/2010 HC110 United Rentals, Inc. 5 Greenwich Office Park Greenwich CT 6830 US

11/7/2010 11/8/2010 NW935 Edible Arrangements 1952 Whitney Avenue Hamden CT 6517 US

11/7/2010 11/8/2010 XC641 The Hartford Hartford Plaza HO-2-18 Hartford CT 6115 US

11/7/2010 11/8/2010 ZY876 Cigna 900 Cottage Grove Rd B7CDH Hartford CT 6152 US

11/7/2010 11/8/2010 XA110 The Travelers Indemnity Co One Tower Square-MS01A HARTFORD CT 6183 US

3/13/2011 11/8/2010 WP216 Chemtura Corp 199 Benson Road Middlebury CT 6749 US

12/13/2010 11/8/2010 WN442 Stanley Works 480 Myrtle Street New Britain CT 6053 US Jennifer Ward Fleet Manager 817-522-8300 jward4@stanleyworks.com

7/29/2011 11/8/2010 VT378 ASSA ABLOY Inc. 110 Sargent Drive New Haven CT 6511 US Randy Walker AD Purchasing & Logistics 203-499-6871 203-498-5545 rwalker@assaabloyusa.com

11/7/2010 11/8/2010 YV124 Aamity Car & Truck Rental, LLC 129 Whalley Avenue New Haven CT 6511 US

3/13/2011 3/4/2011 AE065 Quebecor World 291 State Street North Haven CT 6473 US

4/5/2011 3/4/2011 AE057 HEI Hotels & Resorts 101 Merritt 7 Corporate Park Norwalk CT 6851 US Catherine Salerno Director of Sales and Marketing 222-222-2222 222-222-2222 catherine.salerno@hanovermarriott.com

12/15/2010 11/8/2010 WM133 Diagio 801 Main Ave Norwalk CT 6851 US Patricia Smith Sr. Specialist Facilities/Fleet Management 203-229-4022 203-919-6369 patricia.smith@diageo.com

11/7/2010 11/8/2010 WW133 Diageo North America 801 Main Ave NORWALK CT 6851 US

10/13/2011 11/8/2010 XD748 Boehringer Ingelheim Pharmaceuticals 900 Ridgebury Rd RIDGEFIELD CT 6877 US Lee Miller YouDecide 222-222-2222 222-222-2222 lee.miller@boehringer-ingelheim.com

12/7/2010 11/8/2010 WQ558 Sonitrol Security of Hartford 65 Inwood Road Rock Hill CT 6067 US Joel Zimmerman V.P. Operations 860-247-4500 860-616-7548 joel.zimmerman@sonitrolnewengland.com

2/8/2011 11/8/2010 WJ354 Henkel of America One Henkel Way ROCKY HILL CT 6067 US York Tausend Purchasing Manager 860-571-5235 york.tausend@us.henkel.com

11/7/2010 11/8/2010 ZY883 Rogers Corporation 1 Technology Drive Rogers CT 6263 US

10/27/2011 10/27/2011 XY368 Bic Corporation One Bic Way Shelton CT 6484 US Eileen Barcello (203) 783-2374 eileen.barcello@bicworld.com

11/7/2010 11/8/2010 XA190 Crane Co 100 First Stamford Place STAMFORD CT 6902 US Anthony Diaz

2/28/2011 11/8/2010 WG198 Daymon Worldwide Inc. 700 Fairfield Avenue Stamford CT 6902 US Janet Ward Executive Assistant 203-352-7913 203-352-7500 jward@daymon.com

4/27/2011 11/8/2010 XJ180 Purdue Pharma, L.P. 201 Tresser Boulevard Stamford CT 6901 US Jason Lore Fleet Specialist (203) 588-4083 (203) 588-7083 jason.lore@pharma.com

4/15/2011 4/11/2011 AE096 Royal Bank of Scotland 600 Washington Blvd. Stamford CT 6901 US Sal Di Liberti VP, Benefits (203) 897-2615 Sal.Diliberti@rbs.com

3/13/2011 3/4/2011 AE055 Gartner Group, Inc. 56 Top Gallant Road Stamford CT 06904-2212 US

11/7/2010 11/8/2010 ZY886 The Thomson Corporation Metro Center, One Station Place Stamford CT 6902 US

11/7/2010 11/8/2010 W0501 CTM Brochures 11 Largo Drive South Stamford CT 6907 US

11/7/2010 11/8/2010 ZY879 GLOBAL STEERING SYSTEMS LLC 156 PARK RD WATERTOWN CT 6795 US

11/7/2010 11/8/2010 NS583 Legrand North America 60 Woodlawn Street WEST HARTFORD CT 6110 US

11/7/2010 11/8/2010 WA475 News America, Inc. 20 Westport Road Wilton CT 6897 US

1/31/2011 11/8/2010 XP384 Kaman Industrial Tech. 1 Waterside Crossing 3 Windsor CT 6095 US Rick Frazier Director of Real Estate & Fleet 860-687-5040 860-967-4896 Rick.Frazier@kaman.com

11/7/2010 11/8/2010 ZY881 Konica Minolta 500 Day Hill Road WINDSOR CT 6095 US

11/7/2010 11/8/2010 ZY884 Stanadyne Corporation 92 Deerfield Road Windsor CT 6095 US

2/23/2011 11/8/2010 WC151 Howard University 2244 10th St NW Ste 422 Washington DC 20059 US Crystal Duncan Benefits Manager 2028061287 2028061280 crystal.duncan@howard.edu

6/14/2011 3/4/2011 HC890 Pepco Holdings, Inc. 701 9th Street, NW Washington DC 20001 US

11/7/2010 11/8/2010 LX001 Carey International 4530 Wisconsin Ave. N. W. Washington DC 20016 US

11/7/2010 11/8/2010 AB453 Marriott International, Inc. One Marriott Drive Washington DC 20058 US

11/7/2010 11/8/2010 XD405 Fort Myers Construction 2237 33rd Street Northeast Washington DC 20018 US

11/7/2010 11/8/2010 XD997 Geico Direct One Geico Plaza Washington DC 20076 US

11/7/2010 11/8/2010 ZY893 Aspira Association, Inc. 1444 I Street, N.W., Suite 800 Washington DC 20005 US

11/7/2010 11/8/2010 ZY897 National Council of La Raza 1126 16th St. N.W., Suite 600 Washington DC 20036 US

11/7/2010 11/8/2010 ZY898 NCQA Healthcare Supplier 2000 L Street, NW, Suite 500 Washington DC 20036 US

11/7/2010 11/8/2010 WB531 IBEW 900 Seventh St NW WASHINGTON DC 20001 US

11/7/2010 11/8/2010 WD476 Washington Post 1150 15th Street NW Washington DC 20071 US

3/13/2011 11/8/2010 ZY892 W. L. Gore & Associates, Inc. 555 Papermill Road Newark DE 19711 US

12/20/2011 11/8/2010 ZY890 E.I. DuPont 1007 Market Street D3062 Wilmington DE 19898 US Barbara B. Banks Manager - Fleet & Corporate Card Services (302) 992-2962 Barbara.B.Banks@USA.dupont.com

9/5/2011 11/8/2010 XA448 AstraZeneca Pharmaceuticals, LP 1800 Concord Pike, FOP 1-332 Wilmington DE 19803 US Mariellen Zabel field sales 610-431-6988 610-431-6988 mariellen.zabel@astrazeneca.com

11/7/2010 11/8/2010 ZY891 Morris, Nichols, Arsht and Tunnell LLP 1201 North Market Street Wilmington DE 19899 US

11/7/2010 11/8/2010 WB847 Advance Publications 1313 N Marketing Street 10th Floor Wilmington DE 19801 US

11/7/2010 11/8/2010 XY200 Traffic Control Devices 242 North Westmonte Dr Altamonte Springs FL 32714 US

11/7/2010 11/8/2010 NN779 The GEO Group, Inc. One Park Place, Suite 700 Boca Raton FL 33487 US


11/7/2010 11/8/2010 ZY937 Lumbermens Underwriting Allliance 1905 N. W. Corporate Boulevard Boca Raton FL 33431 US

11/7/2010 11/8/2010 ZY956 SBA Network Services 5900 Broken Sound Parkway NW Boca Raton FL 33487 US

11/7/2010 11/8/2010 ZY972 Volvo Aero Services, LP 645 Park of Commerce Way Boca Raton FL 33487 US

12/9/2010 11/8/2010 LF017 Pinch A Penny 14480 62nd Street N CLEARWATER FL 33760 US Tom Perry Transportation Mgr 7275318913 tperry@pinchapenny.com

3/13/2011 3/4/2011 AE064 Pinellas County, FL 400 South Fort Harrison Avenue Clearwater FL 33756-5113 US

3/13/2011 3/4/2011 AE074 Tech Data Corporation 5301 Tech Data Drive Clearwater FL 33760 US

11/7/2010 11/8/2010 AC939 Frontline Communications 12770 44th St. North Clearwater FL 33762 US

11/7/2010 11/8/2010 ZY905 Cardno TBE 380 Park Place Boulevard 300 Clearwater FL 33759 US

11/7/2010 11/8/2010 ZY936 Lincare, Inc. 19387 U.S. 19 North Clearwater FL 33764 US

1/28/2011 11/8/2010 AD934 Prestige Auto 6601 Lyons Rd, Suite I-3 Coconut Creek FL 33073 US Marcello Serrato President & CEO 954-428-6689 mserrato@prestigeautous.com

11/7/2010 11/8/2010 ZY911 Coach Industries Group, Inc. 12330 SW 53rd Street, Suite 704 Cooper City FL 33330 US

12/7/2010 11/8/2010 WS020 MasTec 800 Douglas Road 12th Floor Coral Gables FL 33134 US Chris Valiente Dir, Planning & Asset Mgmt 305-406-1806 chris.valiente@mastec.com

11/8/2010 WG844 Bacardi USA 2701 Le Jeune Road Coral Gables FL 33134 US Edna Betancur Talent Management Specialist 786-264-8136 786-264-8136 embetancur@bacardi.com

11/7/2010 11/8/2010 ZY977 Zubi Advertising 355 Alhambra Circle Suite 1000 Coral Gables FL 33134 US

12/14/2010 11/8/2010 VM475 Nationalease 12530 West Atlantic Blvd. Coral Springs FL 33071 US James Sweeney VP Capital Equipment 954-509-7114 jsweeney@nationalease.com

11/7/2010 11/8/2010 XX293 DART CONTAINER SALES COMPANY 600 W. Hillsboro Boulevard, 600 Deerfield Beach FL 33441 US

11/7/2010 11/8/2010 JH403 AutoNation, Inc 110 SE 6th Street Fort Lauderdale FL 33301 US

11/7/2010 11/8/2010 VF249 Consolidated Citrus LTD Part. 4210 Metro Parkway #250 Ft. Myers FL 33916 US

11/7/2010 11/8/2010 XN004 Florida Pest Control & Chemical Co 116 NW 16th Avenue Gainesville FL 32601 US

11/7/2010 11/8/2010 LF015 AAA 1000 AAA Drive, MS-15 Heathrow FL 32746 US

11/7/2010 11/8/2010 VN798 Southern Wine and Spirits 2400 SW 145th Ave, Ste 300 HOLLYWOOD FL 33027 US

12/7/2010 11/8/2010 ZY935 Landstar System, Inc. 13410 Sutton Park Drive South Jacksonville FL 32224 US Annette Forster Human Resources Secretary 904-390-1576 904-390-4926 aforster@landstar.com

12/20/2010 11/8/2010 ZY952 PSS World Medical Inc. 4345 Southpoint Blvd. Jacksonville FL 32216 US John Wannamaker Corporate Fleet Manager 904-380-4536 904-329-6090 jwannamaker@pssd.com

12/29/2010 11/8/2010 AD944 Proficient Auto Transport 10057 103rd Street Jacksonville FL 32210 US Kirk Williams President & CEO 904 772 1175 904 910 2903 kirk@proficientautotransport.net

11/7/2010 11/8/2010 ZY907 CEVA Logistics 10751 Deerwood Park Blvd. Suite 200 Jacksonville FL 32256 US

11/7/2010 11/8/2010 ZY913 Crowley Liner Services 9487 Regency Square Blvd. Jacksonville FL 32225 US

11/7/2010 11/8/2010 ZY914 CSX Transportation 500 Water Street Jacksonville FL 32202 US

11/7/2010 11/8/2010 ZY919 Fidelity National Information Services 601 Riverside Avenue Jacksonville FL 32204 US

11/7/2010 11/8/2010 BA506 Sherrod Vans 6464 Greenland Road Jacksonville FL 32258 US

11/7/2010 11/8/2010 ZY961 St. John & Partners 5220 Belfort Road Suite 400 Jacksonville FL 32256 US

11/7/2010 11/8/2010 WD191 Swisher International, Inc. 459 East 16th Street Jacksonville FL 32206 US

11/7/2010 11/8/2010 XA704 W W Gay, Inc. 526 Stockton St JACKSONVILLE FL 32204 US

11/7/2010 11/8/2010 XA713 Gate Petroleum 9540 San Jose Boulevard Jacksonville FL 32257 US

11/7/2010 11/8/2010 ZY910 Clay Electric Cooperative PO BOX 308 Keystone Heights FL 32656 US

11/7/2010 11/8/2010 XH269 Wiginton Corporation 255 Primera Blvd., Suite 230 Lake Mary FL 32746 US

11/7/2010 11/8/2010 ZY918 Fed Ex National Ltl. 1144 W Griffin Road Lakeland FL 33804 US

11/7/2010 11/8/2010 XA790 Publix Super Markets, Inc 1936 George Jenkins Boulevard Lakeland FL 33802 US

11/7/2010 11/8/2010 ZY903 BCH Mechanical, Inc. 6350 118th Ave NW LARGO FL 33773 US

11/7/2010 11/8/2010 BX534 Floridas Body Company 6782 118th Avenue North Largo FL 33773 US

11/7/2010 11/8/2010 NT951 Waste Pro USA 2101 West SR 434 Suite 315 LONGWOOD FL 32779 US

7/29/2011 7/29/2011 AE107 Diaz & Associates 782 N.W. 42 Avenue, Suite 637 Miami FL 33126 US Amanda Diaz 305-442-4344 amanda_diazassoc@bellsouth.net

7/25/2011 7/21/2011 AE105 La Comunidad 6400 Biscayne Blvd. Miami FL 33138 US Antoinette Zel President 305-865-9600 antoinette@lacomunidad.com

11/7/2010 11/8/2010 WB903 Neff Corporation 3750 NW 87th Avenue #400 Miami FL 33178 US Jim Custer

2/10/2011 11/8/2010 XD324 Kelly Tractor 8255 NW 58th Street Miami FL 33166 US John Horn HR Manager 305 592 5374 ext 1158 John_Horn@kellytractor.com

11/7/2010 11/8/2010 WR174 Carnival Cruise Lines 3655 Northwest 87th ave Miami FL 33178 US Rita English

11/7/2010 11/8/2010 ZY904 Burger King 5505 Blue Lagoon Drive MIAMI FL 33126 US

11/7/2010 11/8/2010 XF202 Royal Caribbean Cruises, LTD. 1050 Caribbean Way Miami FL 33132 US

11/7/2010 11/8/2010 ZY939 Mcclatchy Shared Services One Herald Plaza, 4th Floor Miami FL 33132 US

11/7/2010 11/8/2010 ZY946 PBS & J 2001 NW 107th Avenue Miami FL 33172 US

11/7/2010 11/8/2010 RY001 Ryder Systems 11690 NW 105th Street MIAMI FL 33178 US

11/7/2010 11/8/2010 XB410 The Mosaic Company 5000 Old Highway 37 South MULBERRY FL 33860 US

11/7/2010 11/8/2010 XA798 W.S. Badcock Corp. 200 North Phosphate Mulberry FL 33860 US

11/7/2010 11/8/2010 WJ212 The Nielsen Company 501 Brooker Creek Blvd Oldsmar FL 34677 US

1/12/2011 11/8/2010 ZY957 SeaWorld Parks & Entertainment 9205 South Park Center Loop, suite 400 ORLANDO FL 32819 US Jane Ruby Sr. Dir. Compensation & Benefits 407-262-5023 407-262-5003 jane.ruby@seaworld.com

11/7/2010 11/8/2010 TU001 Tupperware Brands Corporation 14901 South Orange Blossom Trail Orlando FL 32837 US Margaret Persad

3/13/2011 3/4/2011 KJ878 Bridges of America 2011 Mercy Drive Orlando FL 32808-5613 US

3/13/2011 3/4/2011 AE062 Orlando Health 1414 Kuhl Avenue Orlando FL 32806 US

11/7/2010 11/8/2010 ZY906 Carlton Fields, P.A. 450 S. Orange Avenue, Suite 500 ORLANDO FL 32801 US

11/7/2010 11/8/2010 ZY909 City Electric Supply Company 6827 North Orange Blossom Trail Orlando FL 32810 US

11/7/2010 11/8/2010 ZY915 Darden Restaurants 5900 Lake Ellenor Drive Orlando FL 32809 US

11/7/2010 11/8/2010 ZY928 HD Supply 501 W Church St Orlando FL 32805 US

11/7/2010 11/8/2010 HB744 Signature Flight Support 201 S. Orange Ave., Ste. 1100 Orlando FL 32801 US

11/7/2010 11/8/2010 XI617 Highway Equipment & Supply Company 1016 West Church Street Orlando FL 32805 US

11/7/2010 11/8/2010 XA739 Universal Engineering Sciences 3532 Maggie Blvd Orlando FL 32811 US

11/7/2010 11/8/2010 ZY924 G4S Wackenhut 4200 Wackenhut Drive, #100 Palm Beach Gardens FL 33410 US

11/7/2010 11/8/2010 HB894 Dycom Industries, Inc. 11770 U.S. Highway 1, Suite 101 Palm Beach Gardens FL 33408 US

12/8/2010 11/8/2010 XR139 Lamar Advertising 1401 N Terragonna Street Pensacola FL 32501 US Betsy Bragg Fleet Manager 850-433-0024 betbragg@lamar.com

11/7/2010 11/8/2010 ZY942 Mustang Club of America 4051 Barrancas Ave. PENSACOLA FL 32507 US

3/13/2011 11/8/2010 ZY916 DHL 1200 S Pine Island Rd Plantation FL 33324 US

11/7/2010 11/8/2010 ZY951 PRC, LLC 8151 Peters Road, Suite 3000 Plantation FL 33324 US

11/7/2010 11/8/2010 ZY962 Steeda Autosports Inc. 1351 NW Steeda Way Pompano Beach FL 33069 US

4/20/2011 11/8/2010 UH140 Florida Power & Light 2457 Port West Blvd. Riviera Beach FL 33407 US Ariel Alepuz Instrumentation & Controls 222-222-2222 222-222-2222 ariel.alepuz@fpl.com

11/7/2010 11/8/2010 ZY948 Pirtek USA 501 Harvey Court Rockledge FL 32955 US

11/7/2010 11/8/2010 ZY931 Hoveround Corp 2151 Whitfield Industrial Way Sarasota FL 34243 US

12/5/2010 12/5/2010 2F413 SMITH & NEPHEW 970 Lake Carillon St Petersburg FL US Sara Gertsch

11/7/2010 11/8/2010 VV358 Power Design Inc. 11207 S. Danka Blvd., Suite A St Petersburg FL 33716 US

11/7/2010 11/8/2010 HY001 Payless Car Rental System 2350 N 34th Street North St Petersburg FL 33713 US

1/13/2011 11/8/2010 WQ812 Ring Power 500 World Connerce Parkway St. Augustine FL 32092 US VEITCH, WAYNE VICE PRESIDENT 904-494-1110 904-669-2272 wayne.veitch@ringpower.com

11/7/2010 11/8/2010 XR661 Florida East Coast Railway 1 Malaga Street St. Augustine FL 32084 US

11/7/2010 11/8/2010 ZY963 Sumter Electric Cooperative 293 South US Highway 301 Sumterville FL 33585 US

11/7/2010 11/8/2010 ZY927 GT Technologies, Inc. 2919 COMMONWEALTH BLVD. TALLAHASSEE FL 32303 US

11/7/2010 11/8/2010 QS385 Florida A & M University 211 Foote-Hilyer Admin. Center Tallahassee FL 32307 US

11/7/2010 11/8/2010 XA755 Thyssen Krupp 5781 Pine Island Road #390 Tamarac FL 33321 US Tom Armstrong

6/4/2011 3/4/2011 AE060 Kforce Inc. 1001 East Palm Avenue Tampa FL 33605 US adijat telufusi Clinical research associate 222-222-2222 222-222-2222 ade_telu@yahoo.com

11/7/2010 11/8/2010 UH166 Tampa Electric Company 2200 East Sligh Avenue Tampa FL 33610 US

11/7/2010 11/8/2010 XX414 Walter Energy 4211 W. Boy Scout Blvd. 10th Floor Tampa FL 33607 US

11/7/2010 11/8/2010 ZY908 Checkers Drive-In Restaurants, Inc. 4300 West Cypress Street Tampa FL 33607 US

11/7/2010 11/8/2010 ZY941 Metastorm 5481 W Waters Ave ste 100 Tampa FL 33634 US

11/7/2010 11/8/2010 ZY949 Pitney Bowes Management Services 5310 Cypress Center Dr., #110 Tampa FL 33609 US

11/7/2010 11/8/2010 ZY964 The Food Group 14497 N Dale Maybry Hwy, Suite 220 Tampa FL 33618 US

11/7/2010 11/8/2010 ZY971 URS Corporation 7650 W. Courtney Campbell C-way Tampa FL 33607 US

11/7/2010 11/8/2010 ZY921 Florida Crystals Corporation 626 North Dixie Highway West Palm Beach FL 33401 US

11/7/2010 11/8/2010 BX431 Rayside Truck & Trailer 2983 South Military Trail West Palm Beach FL 33415 US

11/7/2010 11/8/2010 NB463 Nodarse & Associates, Inc. 1675 Lee Rd Winter Park FL 32789 US

11/7/2010 11/8/2010 BA084 Wheeled Coach/Collin 2778 N. Forsyth Winter Park FL 32792 US

11/7/2010 11/8/2010 ZY932 Hubbard Construction 1936 Lee Road WINTER PARK FL 32789 US


11/7/2010 11/8/2010 LP001 LeasePlan 1165 Sanctuary Pkwy Alpharetta GA 30004 US Carolyn Edwards

11/7/2010 11/8/2010 WP640 Exide Technologies 13000 Deerfield Pkwy,Bldg 200 Alpharetta GA 30004 US

11/7/2010 11/8/2010 XD272 MACTEC, Inc. 1105 Sanctuary Parkway, Suite 300 Alpharetta GA 30004 US

11/7/2010 11/8/2010 NX287 Alimera Sciences, Inc 6120 Windward Parkway, Suite 290 Alpharetta GA 30005 US

1/22/2012 11/8/2010 XA666 Delta Airlines 1030 Delta Blvd Dept 837 Atlanta GA 30320 US bonita reynolds bailey general manager 4047158651 4047986656 bonita.reynolds@delta.com

12/13/2010 11/8/2010 XA661 Georgia Pacific 133 Peachtree St., NE ATLANTA GA 30303 US Brenda Pickens HR Administrator/Employee Relations 404-652-4696 404-652-5456 brenda.pickens@gapac.com

11/7/2010 11/8/2010 NT070 BlueLinx Corp 4300 Wildwood Parkway Atlanta GA 30339 US Carroll Rollins

4/8/2011 11/8/2010 NR410 Atlantic Southeast Airlines 990 Toffie Terrace Atlanta GA 30354 US Cynthia Milner Manager - Rewards &Recognition 404-856-1237 Cynthia.Milner@flyasa.com

8/10/2011 11/8/2010 XA659 Crawford & Co. 1001 Summit Blvd ATLANTA GA 30319 US Kathy Brook Fleet Manager 404 300 1000 404 300 1956 kathy_brook@us.crawco.com

6/29/2011 11/8/2010 XC843 Cox Enterprises, Inc. 6205 Peachtree Dunwoody Road Atlanta GA 30328 US Tammy Myers Paralegal 404-429-2516 678-645-0653 tammy.myers@coxinc.com

3/13/2011 11/8/2010 NL762 Rollins 2170 Piedmont Road Atlanta GA 30324 US Teresa Smith YouDecide 222-222-2222 222-222-2222 kevin.kannenberg@youdecide.com

6/9/2011 11/8/2010 VZ587 Interface 2859 Paces Ferry Road, Suite 2000 ATLANTA GA 30339 US Tim Riordan VP, Supply Chain 7708036958 7704376800 tim.riordan@interfaceglobal.com

3/13/2011 3/4/2011 AE067 Randstad 2015 South Park Place Atlanta GA 30339 US

3/13/2011 3/4/2011 AE073 Sterling National Corporation 210 Interstate North Parkway, Suite 4000 Atlanta GA 30339 US

3/13/2011 11/8/2010 QN881 Georgia Insitiute of Technology Faculty 955 Fowler Street Northwest Atlanta GA 30332 US

3/30/2011 3/4/2011 AE037 AFC Enterprises (Popeyes) 5555 Glenridge Connector NE, Suite 300 Atlanta GA 30342 US

3/13/2011 3/4/2011 AE038 American Cancer Society 250 Williams Street Atlanta GA 30303 US

11/7/2010 11/8/2010 XJ876 Southern Company 241 Ralph McGill Boulevard Atlanta GA 30302 US

11/7/2010 11/8/2010 XY810 Home Depot 2455 Paces Road C15 Atlanta GA 30339 US

11/7/2010 11/8/2010 VH146 AGL Resources 10 Peachtree Place NE ATLANTA GA 30309 US

11/7/2010 11/8/2010 WN887 McKenna Long & Aldridge LLP 303 Peachtree Street, NE Suite 5300 ATLANTA GA 30308 US

11/7/2010 11/8/2010 WP165 CRH/Oldcastle, Inc. 375 Northridge Road Suite 350 Atlanta GA 30350 US

11/7/2010 11/8/2010 XT236 Gold Kist, Inc. 244 Perimeter Center Pkwy. N.E. Atlanta GA 30346 US

11/7/2010 11/8/2010 XC865 Equifax 1550 Peachtree Street ATLANTA GA 30309 US

11/7/2010 11/8/2010 XW110 Chick-fil-A 5200 Buffington Road Atlanta GA 30349 US

11/7/2010 11/8/2010 XG036 Genuine Parts Company 2999 Circle 75 Parkway Atlanta GA 30339 US

11/7/2010 11/8/2010 ZY981 Assurant Solutions 260 Interstate North Circle SE ATLANTA GA 30339 US

11/7/2010 11/8/2010 CC001 Coca Cola Company 1 COCA COLA PLZ NW Atlanta GA 30313 US

11/7/2010 11/8/2010 CC006 Coca Cola Enterprises, Inc. One Coca-Cola Plaza ATLANTA GA 30313 US

11/7/2010 11/8/2010 ZY987 Clark Atlanta University 223 James P. Brawley Drive S.W Atlanta GA 30314 US

11/7/2010 11/8/2010 ZZ002 Internet Security Systems 6303 Barfield Road Atlanta GA 30328 US

11/7/2010 11/8/2010 ZZ012 Sanderson Industries Inc. 3550 Atlanta Industrial Pkwy Atlanta GA 30331 US

11/7/2010 11/8/2010 XA905 APAC, Inc. 900 Ashwood Parkway Atlanta GA 30338 US

11/7/2010 11/8/2010 XM289 Morris Communications 643 Broad Street PO Box 936 Augusta GA 30903 US

11/7/2010 11/8/2010 VF118 Yancey Bros. Co. 330 Lee Industrial Blvd. Austell GA 30168 US

12/6/2010 11/8/2010 AD939 Atlantic Vehicle Processors 175 Penniman Circle Brunswick GA 31523-8102 US Ed Roden General Manager 912 262-6113 ext 11 912-617-1831 ed.roden@2wglobal.com

11/8/2010 LF028 Toms Foods 900 8th Street Columbus GA 31902 US

11/7/2010 11/8/2010 H587D Hoover Precision Products 2200 Pendley Road Cumming GA 30041 US

11/7/2010 11/8/2010 XR215 Shaw Industries Group, Inc 900 U.D. Parrot Jr. Parkway DALTON GA 30722 US

11/7/2010 11/8/2010 WR524 Allied Holdings 160 Clairemont Ave., Fifth Floor Decatur GA 30030 US

11/7/2010 11/8/2010 NP448 Merial, Ltd. 3239 Satellite Blvd.; Bld. 500 Duluth GA 30096 US Cathy Shaw

12/8/2010 11/8/2010 WN132 AGCO 4205 River Green Parkway Duluth GA 30096 US Ralf Wessel Global Fleet Manager 7702328101 Ralf.Wessel@agcocorp.com

11/7/2010 11/8/2010 XN704 Saia Motor Freight Line Inc. 11465 Johns Creek Parkway, Suite 400 Duluth GA 30097 US

11/7/2010 11/8/2010 WC089 Stiefel Laboratories 6340 Sugarload Parkway, Suite 400 Duluth GA 30097 US

11/7/2010 11/8/2010 ZY982 Atlanta Falcons 4400 Falcon Parkway Flowery Branch GA 30542 US

11/7/2010 11/8/2010 RV239 Blue Bird Corporation 402 Blue Bird Boulevard Fort Valley GA 31030 US

12/7/2010 11/8/2010 AD964 John S James Co 6002 Commerce Blvd, Suite 115 P O Box 2166 Garden City GA 31408 US P. Jill James Chief Operating Officer 912 963 2962 912 713 4801 jill.james@johnsjames.com

12/7/2010 11/8/2010 ZY984 Brand Energy and Infrastructure Inc. 1325 Cobb International Dr. Suite A1 KENNESAW GA 30152 US Kathy Lambert Corp HR Manager 678-285-1400 kathy.lambert@beis.com

11/7/2010 11/8/2010 ZZ699 Heidelburg 1000 Gutenburg Drive Kennesaw GA 30144 US Kim Brown

11/7/2010 11/8/2010 WL346 Wise Foods, Inc 245 Townpark Drive, NW Suite 075 Kennesaw GA 30144 US

11/7/2010 11/8/2010 ZY993 Dixien LLC (Dixie Numerics LLC) 5286 Circle Drive Lake City GA 30260 US

11/7/2010 11/8/2010 WT792 Convergent Media 975 Old Norcross Rd., Suite D Lawrenceville GA 30045 US

11/7/2010 11/8/2010 XX880 YKK Corporation of America 1850 Parkway Place, Suite 300 Marietta GA 30067 US

11/7/2010 11/8/2010 WW011 T-Staff, Inc. 4343 Shallowford Road Suite C Marietta GA 30062 US

11/7/2010 11/8/2010 ZY983 Azur Pharma, Inc 3115 Brookview Drive MARIETTA GA 30068 US

11/7/2010 11/8/2010 XA654 C.W. Matthews Constructions Company 1600 Kenview Drive Marietta GA 30061 US

12/21/2010 11/8/2010 ZZ018 Unisia of Georgia 1000 Unisia Drive Monroe GA 30655 US Margie Parks HR Generalist 770-207-0050 770-266-5055 mparks@unisiaga.com

11/7/2010 11/8/2010 WQ515 Linde Gas, LLC 1500C Indian Trail Road Norcross GA 30093 US

11/7/2010 11/8/2010 XX294 RockTenn Company 504 Thrasher Street Norcross GA 30071 US

11/7/2010 11/8/2010 NC817 Wayne Farms LLC 4110 Continental Dr Oakwood GA 30566 US

11/7/2010 11/8/2010 ZZ019 Unisia Steering System Inc 5750 McEver Road Oakwood GA 30566 US

11/7/2010 11/8/2010 ZZ010 Pirelli Tire SPA 100 Pirelli Drive ROME GA 30161 US

11/7/2010 11/8/2010 WN285 Boral Brick 200 Mansell Court Suite 305 Roswell GA 30076 US Linda Ellis

11/7/2010 11/8/2010 WV147 Single Source, Inc. 1000 Holcomb Woods Pkwy, Ste 415 Roswell GA 30076 US

11/7/2010 11/8/2010 NB402 Action Electric Company 2600 Collins Springs Dr.,S.E. Smyrna GA 30080 US

11/7/2010 11/8/2010 WS512 UCB, Inc. 1950 Lake Park Drive Smyrna GA 30080 US

11/7/2010 11/8/2010 ZZ009 OPC, GTC & GSOC 2100 East Exchange Place Tucker GA 30084 US

11/7/2010 11/8/2010 XP506 Iowa Glass 4150 C Street SW Cedar Rapids IA 52404 US

11/7/2010 11/8/2010 UH911 MidAmerican Energy Holding Companies 500 East Ct Des Moines IA 50309 US

11/7/2010 11/8/2010 XL283 The Waldinger Corporation 2601 Bell Avenue DES MOINES IA 50321 US

11/7/2010 11/8/2010 ZZ188 Dee Zee 1572 N.E. 58th Avenue Des Moines IA 50316 US

11/7/2010 11/8/2010 XE354 CONTINENTAL WESTERN GROUP 11201 Douglas DES MOINES IA 50306 US

11/7/2010 11/8/2010 XF347 Allied Group-Nationwide Subsidiary 701 5th Avenue, Dept. 2000 Des Moines IA 50391 US

12/14/2010 11/8/2010 ZZ190 Dubuque Data Services 4135 Westmark Dr. Dubuque IA 52002 US Patricia Dietz HR Director 563-557-7300 pdietz@ddslive.com

11/7/2010 11/8/2010 RV013 Winnebago Industries Gate 1 Crystal Lake P.O. Box 152 Forest City IA 50436 US

11/7/2010 11/8/2010 BA112 Stellar Industries, Inc. 190 State St GARNER IA 50438 US

11/7/2010 11/8/2010 LC160 Dodgen Industries, Inc. PO Box 39, Hwy 169 N Humboldt IA 50548 US

11/7/2010 11/8/2010 WS015 Stanley Consultants 225 Iowa Ave Muscatine IA 52761 US

2/1/2011 11/8/2010 ZZ191 Heartland Express, Inc. 901 N Kansas Ave North Liberty IA 52317 US Julie Durr Director of Event and Employee Relations 3196263600 events@heartlandexpress.com

11/7/2010 11/8/2010 XB214 Quad States Industries 1020 Albany Place SE Orange City IA 51041 US

11/7/2010 11/8/2010 XD189 Wright Tree Service, Inc. 139 6th St WEST DES MOINES IA 50265 US Kevin Fitzpatrick

3/21/2011 11/8/2010 XB212 GuideOne Mutual Insurance Company 1111 Ashworth Rd WEST DES MOINES IA 50265 US Pam Ulfers Fleet Admin 5152675813 pulfers@guideone.com

11/7/2010 11/8/2010 ZA719 Farm Bureau Financial 5400 University Avenue West Des Moines IA 50266 US

11/7/2010 11/8/2010 XC133 J.R. Simplot Company 999 Main Street Boise ID 83702 US

11/7/2010 11/8/2010 ZZ021 Building Materials Holding Corporation 720 Park Boulevard, Suite 200 Boise ID 83712 US

11/7/2010 11/8/2010 ZZ022 Washington Group International 720 Park Blvd. Boise ID 83712 US

11/7/2010 11/8/2010 XB414 Abbott Labs 100 Abbott Park Road Department 073V Abbott Park IL 60064 US Diane Lopez

11/7/2010 11/8/2010 WN223 Associated Material Handling 133 N Swift Road Addison IL 60188 US

11/7/2010 11/8/2010 ZZ087 Ritter Technology, LLC 4838 West 128th Place Alsip IL 60803 US

11/7/2010 11/8/2010 ZZ049 Engineered Abrasives 11631 South Austin Avenue Alsip IL 60803 US

11/7/2010 11/8/2010 ZZ027 American Colloid Company 1500 W. Shure, 1 N. Arlington Arlington Heights IL 60004 US

11/7/2010 11/8/2010 ZZ077 Nicor Gas 424 South River Street Aurora IL 60506 US

11/7/2010 11/8/2010 ZZ042 Chemcentral 7050 West 70 st Street

One State Farm Plaza, Total Rewards-Benefits C-

Bedford Park IL 60638 US

12/29/2010 11/8/2010 XB516 State Farm Insurance

1 Bloomington IL 61710 US Shaun Totterer HR Benefits Analyst 309-766-4824 shauntona.m.totterer.cj1b@statefarm.com


11/7/2010 11/8/2010 XX838 Growmark 1701 Towanda Avenue Bloomington IL 61702 US

11/7/2010 11/8/2010 ZZ084 R.G. Ray Corporation 900 Busch Parkway Buffalo Grove IL 60089 US

11/7/2010 11/8/2010 ZZ041 Central Decal Company, Inc. 6901 High Grove Blvd. Burr Ridge IL 60527 US

11/7/2010 11/8/2010 ZZ069 Methode Electronic Inc 111 West Buchanan Carthage IL 62321 US

11/7/2010 11/8/2010 ZZ036 Big 3 Precision Products, Inc, 2923 South Wabash Centralia IL 62801 US

11/7/2010 11/8/2010 ZZ103 Univ of Illinois Faculty 807 South Right Road #330 Champaign IL 61820 US

11/8/2010 ZZ058 Hinshaw and Culbertson LLP 222 North LaSalle Street, #300 Chicago IL 60601 US Ana Medina Legal Assistant 312-704-3947 amedina@hinshawlaw.com

4/26/2011 3/4/2011 AE048 Children's Memorial Hospital 2300 Children's Plaza Chicago IL 60614-3394 US Ann Wannemacher Registered Dietitian 773-880-4000 awannemacher@childrensmemorial.org

11/7/2010 11/8/2010 ZZ056 Grant Thornton LLP 175 W. Jackson Blvd., 20th Floor Chicago IL 60604 US John Gohmann

4/8/2011 4/4/2011 AE093 Plan B, Inc. 116 W. Illinois 2W Chicago IL 60654 US Margie Shabazz Controller (312) 222-0303 margie@thisisplanb.com

12/10/2010 11/8/2010 ZZ607 Trans Union 555 W Adams St Chicago IL 60613 US Mike Chen HR Representative 3129852836 3129852836 mchen@transunion.com

1/6/2012 11/8/2010 XB472 USG Corporation 550 W Adams Street Chicago IL 60606 US Nora Kouba Fleet Coordinator 312-436-3999 nkouba@usg.com

1/12/2012 11/8/2010 WJ254 Wirtz Corporation 680 North Lakeshore Drive Suite 1900 Chicago IL 60611 US Rich DeMondo warehouse manager 312-475-6323 312-943-7000 Rich.Demondo@wirtzbev.com

11/7/2010 11/8/2010 LR009 AMMS Limousine Service Inc. 5509 N Cumberland Avenue Chicago IL 60656 US

11/7/2010 11/8/2010 XB195 General Growth Properties 110 N. Wacker Chicago IL 60606 US

11/7/2010 11/8/2010 ZZ089 RR Donnelley Company 111 South Wacker Drive CHICAGO IL 60606 US

11/7/2010 11/8/2010 ZZ092 Smedberg Machine Corporation 7934 South Chicago Avenue Chicago IL 60617 US

11/7/2010 11/8/2010 ZZ099 The Walsh Construction Group 929 West Adams Street Chicago IL 60607 US

11/7/2010 11/8/2010 XB441 Catholic Bishop of Chicago 155 E Superior Street CHICAGO IL 60611 US

11/7/2010 11/8/2010 NG770 Feeding America 35 East Wacker, Suite 2000 Chicago IL 60601 US

11/7/2010 11/8/2010 NI139 DePaul University 55 East Jackson CHICAGO IL 60604 US

11/7/2010 11/8/2010 NN096 Northern Trust Corporation 50 South LaSalle Street Chicago IL 60675 US

11/7/2010 11/8/2010 VX849 Jones Lang LaSalle 200 E. Randolph Dr. CHICAGO IL 60601 US

11/7/2010 11/8/2010 WY433 Glass America 150 N Michigan Ave CHICAGO IL 60601 US

11/7/2010 11/8/2010 ZZ029 Amsted Industries 180 North Stetson Street Suite1800 Chicago IL 60601 US

11/7/2010 11/8/2010 ZZ032 Aon Corporation 200 East Randolf St Chicago IL 60601 US

11/7/2010 11/8/2010 ZZ053 Freedman Seating Company 4545 West Augusta Boulevard Chicago IL 60651 US

11/7/2010 11/8/2010 ZZ059 Hyatt Hotels 71 South Wacker 15th FL Chicago IL 60606 US

11/7/2010 11/8/2010 ZZ075 Navteq 222 Merchandise Mart, Ste. 900 Chicago IL 60654 US

12/6/2010 11/8/2010 XG597 Archer Daniels Midland 4666 Faries Parkway, Box 1470 Decatur IL 62525 US Dyann Craig Fleet Administrator 217-451-4438 dyann.craig@adm.com

11/7/2010 11/8/2010 XY527 Astellas Pharma US, Inc. 3 Parkway North Deerfield IL 60015 US Gail Jurzec

12/6/2010 11/8/2010 VS383 Takeda 1 Takeda Parkway Deerfield IL 60015 US John Choi Fleet Administrator 224-554-3176 224-554-4621 john.choi@tpna.com

11/7/2010 11/8/2010 XL254 Walgreens 102 Wilmot Road Deerfield IL 60015 US Kris Dimitriou

7/27/2011 11/8/2010 ZZ035 Baxter Healthcare One Baxter Parkway Deerfield IL 60015 US Kristin O'Driscoll Manager, Fleet Management 8479483288 kristin_o'driscoll@baxter.com

11/7/2010 11/8/2010 ZA858 Wheels Inc. 666 Garland Place Des Plaines IL 60016 US Barb Knoeppel

10/24/2011 11/8/2010 XG575 Salvation Army - USA 10 West Algonquin Road Des Plaines IL 60016 US Karen Bremer HR Specialist 847-294-2027 karen_bremer@usc.salvationarmy.org

11/7/2010 11/8/2010 NC073 Culligan International Company 9399 West Higgins Rd DES PLAINES IL 60018 US

11/7/2010 11/8/2010 ZZ072 Mutual of Omaha 2720 S River Road Des Plaines IL 60018 US

11/7/2010 11/8/2010 AB777 Sara Lee 3500 Lacey Road Downers Grove IL 60515 US

11/7/2010 11/8/2010 ZZ034 ATC Technology Corporation 1400 Opus Place, Suite 600 Downers Grove IL 60515 US

11/7/2010 11/8/2010 AD937 G. Schmitz 1089 Rock Road Lane, Unit 3 East Dundee IL 60118 US Greg Schmitz Owner 847-836-8773 greg@gschmitz.com

11/7/2010 11/8/2010 ZZ039 Cassens Transport 145 North Kansas Street Edwardsville IL 62025 US

3/1/2011 11/8/2010 ZZ060 Icon Identity Solutions 1418 Elmhurst Road Elk Grove Village IL 60007 US Larry Brigman Executive Vice President, Human Resources 847-631-3120 lbrigman@iconid.com

11/7/2010 11/8/2010 ZZ091 Semblex Corporation 199 W. Diversey Ave. Elmhurst IL 60126 US

11/7/2010 11/8/2010 ZZ095 Superior Ambulance Company Inc. 395 West Lake Street ELMHURST IL 60126 US

11/7/2010 11/8/2010 WF886 Anderson Pest Control 219 West Diversey Elmhurst IL 60126 US

11/7/2010 11/8/2010 ZZ079 Northwestern University 2020 Ridge Avenue, room 237 Evanston IL 60208 US

11/7/2010 11/8/2010 ZZ076 Newell Rubbermaid, Inc. 29 East Stephenson Street Freeport IL 61032 US

12/7/2010 11/8/2010 XB489 Illinois Tool Works Inc. 1000 Milwaukee Avenue, 4th Floor Glenview IL 60025 US Keith Scolan Manager, Global Fleet 847-657-6189 kscolan@itw.com

12/11/2010 12/11/2010 0AA04 Anixter Inc. 2301 Patriot Blvd 1N Glenview IL 60026 US Linda Ryzewicz Manager Fleet Operations 224-521-8026 linda.ryzewicz@anixter.com

11/7/2010 11/8/2010 ZZ085 Reedy Industries, Inc. 1701 E. Lake Street, Suite 360 Glenview IL 60025 US

11/7/2010 11/8/2010 ZZ038 Buske Lines, Inc. 7 West Gateway Commerce Cent Granite City IL 62040 US

11/7/2010 11/8/2010 ZZ101 True Value 320 S Division St HARVARD IL 60033 US

2/22/2011 11/8/2010 ZZ054 Fuchs Lubricants Company 17050 Lathrop Avenue Harvey IL 60426 US Vicki Biegel HR & Payroll Generalist 708-333-8900 vbiegel@fuchs.com

11/7/2010 11/8/2010 XC459 Sears Holdings Corp. 3333 Beverly Road Hoffman Estates IL 60179 US Tiffany Matthews

11/7/2010 11/8/2010 YA914 Emkay 805 W. Thorndale Ave Itasca IL 60143 US Michelle Murphy

3/13/2011 3/4/2011 WO619 Brunswick 1 N. Field Ct. Lake Forest IL 60045-4811 US

11/7/2010 11/8/2010 ZZ081 Pactiv Corporation 1900 West Field Court Lake Forest IL 60045 US

11/7/2010 11/8/2010 VT803 Packaging Corporation of America 1900 West Field Court, Room 1W-800 LAKE FOREST IL 60045 US

11/7/2010 11/8/2010 NB242 Tenneco Automotive 500 North Field Drive Lake Forest IL 60045 US

11/7/2010 11/8/2010 ZZ107 WW Grainger, Inc. 100 Grainger Parkway Lake Forest IL 60045 US

11/7/2010 11/8/2010 NT110 Hospira 275 N. Field Drive Lake Forest IL 60045 US

11/7/2010 11/8/2010 ZZ025 All Rite Industries 470 Oakwood Road Lake Zurich IL 60047 US

11/7/2010 11/8/2010 ZZ065 K-Five Construction Corp. 13769 Main Street Lemont IL 60439 US

11/7/2010 11/8/2010 WR966 Gohmann & Associates 14047 Petronella Drive, Suite 201 Libertyville IL 60048 US

11/7/2010 11/8/2010 XJ635 Armour-Eckrich 4225 Naperville Rd, Ste 600 LISLE IL 60532 US

11/7/2010 11/8/2010 XR181 Veolia Transportation, Inc. 720 Butterfield Road Suite 300 LOMBARD IL 60148 US

11/7/2010 11/8/2010 XI968 SGS North America 1919 South Highland Avenue, Suite 140d Lombard IL 60148 US

11/7/2010 11/8/2010 WG706 Alberto Culver 2525 West Armitage Melrose Park IL 60160 US

2/11/2011 11/8/2010 XC818 Kone, Inc. One Kone Court Moline IL 61265 US Barb Miller Fleet Administrator 309-743-5387 barb.miller@kone.com

11/7/2010 11/8/2010 LF018 John Deere Independent Dealers One John Deere Place Moline IL 61265 US

11/7/2010 11/8/2010 XF287 Morton Buildings P.O. Box 399 Morton IL 61550 US

11/7/2010 11/8/2010 ZZ096 TDK Corporation of America 1221 Business Center Drive MOUNT PROSPECT IL 60056 US

11/7/2010 11/8/2010 NG043 NTN Corporation 1600 East Bishop Ct., P.O.Box 7604 Mount Prospect IL 60056 US

11/7/2010 11/8/2010 WJ735 Cummins-Allison Corporation 852 Feehanville Drive Mt Prospect IL 60056 US

11/7/2010 11/8/2010 ZZ068 Maclean Fogg Company 1000 Allanson Road Mundelein IL 60060 US

11/7/2010 11/8/2010 XB493 Nalco Company 1601 West Diehl Road Naperville IL 60563 US Aphrodite Papaioannou

1/18/2011 11/8/2010 NJ952 Potash Corporation 1101 Skokie Blvd. Suite 400 Northbrook IL 60062 US Rochelle Fjeldstrom Coordinator, Corporate Procurement 306-933-8603 rochelle.fjeldstrom@potashcorp.com

11/7/2010 11/8/2010 WO876 Donlen Corporation 2315 Sanders Road Northbrook IL 60062 US Tasha Heines

11/7/2010 11/8/2010 ZZ026 Allstate Insurance Company 2775 Sanders Rd, Ste E6 NORTHBROOK IL 60062 US

11/7/2010 11/8/2010 XY014 Kraft Foods Three Lakes Drive Northfield IL 60093 US John Dmochowsky

11/7/2010 11/8/2010 WR055 McDonald's Corporation 2915 Jorie Blvd. Oak Brook IL 60523 US Sue Miller

11/7/2010 11/8/2010 AA034 Highway Technologies 915 Harger Road Oak Brook IL 60523 US

11/7/2010 11/8/2010 ZZ083 Professional Service Industries 1901 South Meyers Road #400 Oakbrook Terrace IL 60181 US

11/7/2010 11/8/2010 ZZ050 Exelon Three Lincoln Centre Oakbrook Terrace IL 60181 US

11/7/2010 11/8/2010 HS753 Andrew Corporation 10500 West 153rd Street Orland Park IL 60462 US

11/7/2010 11/8/2010 XP148 Schneider Electric - Square D 1415 South Roselle Road Palatine IL 60067 US Betsy Kupkowski

11/7/2010 11/8/2010 WL271 North American Lighting, Inc. 2275 South Main Street Paris IL 61944 US

11/7/2010 11/8/2010 XY501 Continental Midland, LLC. 24000 S. Western Avenue Park Forest IL 60466 US

11/7/2010 11/8/2010 ZZ023 Advanced Technology Services 8201 North University Peoria IL 61615 US

11/7/2010 11/8/2010 ZZ040 Caterpillar 100 NE Adams St Peoria IL 61629 US

11/7/2010 11/8/2010 WD158 Ken's Beverage Company 10015 South Madel Plainfield IL 60585 US

11/7/2010 11/8/2010 BA465 Knapheide Truck 1848 Westphalia Street P.O. Box 7140 QUINCY IL 62301 US

11/7/2010 11/8/2010 WF517 Gardner Denver, Inc. 1800 Gardner Expressway QUINCY IL 62301 US

11/7/2010 11/8/2010 ZZ024 AG Manufacturing 200 East Avenue G. ROCHELLE IL 61068 US


11/7/2010 11/8/2010 ZZ088 Rockford Spring Company 3801 South Central Avenue Rockford IL 61102 US

11/7/2010 11/8/2010 ZZ057 Gunite Corporation 302 Peoples Avenue Rockford IL 61104 US

11/7/2010 11/8/2010 ZZ086 Relational Technology Solutions 3701 Algonquin Rd, Ste 6000 ROLLING MEADOWS IL 60008 US

11/7/2010 11/8/2010 ZZ105 Wayne Steel Dist. Center 21901 Cottage Grove Avenue Sauk Village IL 60411 US

11/7/2010 11/8/2010 NM731 American Pharma 1501 E Woodfield Suite 300E Schaumberg IL 60173 US Mary Lynn Jackson

12/15/2010 11/8/2010 ZZ100 THK America Inc. 200 E. Commerce Drive SCHAUMBURG IL 60173 US DeAnn Peroutka Asst. H.R. Manager 847-310-1111 847-310-5814 dperoutka@thk.com

11/30/2010 11/30/2010 XB497 Motorola 1303 East Algonquin Road Schaumburg IL 60196 US Karl Nitz Karl.nitz@motorola.com

2/8/2011 11/8/2010 WF725 INX International Ink Co. 150 N. Martingale Road, Suite 700 Schaumburg IL 60173 US Leah Fallico Fleet Manager 630-382-1803 630-382-1800 Leah.Fallico@inxintl.com

11/7/2010 11/8/2010 XB449 Zurich N.A. 1400 American Lane Schaumburg IL 60196 US Lynn Henk

11/7/2010 11/8/2010 ZZ082 Pepsi America Inc 1475 E. Woodfield Road STE 1300 Schaumburg IL 60173 US

11/7/2010 11/8/2010 XB447 Motorola, Inc. 1303 East Algonquin Road Schaumburg IL 60196 US

11/7/2010 11/8/2010 ZZ051 Felsomat USA, Inc. 1700 Penny Lane SCHAUMBURG IL 60173 US

11/7/2010 11/8/2010 ZZ052 Foster Electric America 1000 E State Parkway, Suite G Schaumburg IL 60173 US

11/7/2010 11/8/2010 ZZ093 Spartan Light Metal Products, Inc. 510 East McClurken Avenue Sparta IL 62286 US

11/7/2010 11/8/2010 ZZ073 Nalco 1601 W. Diehl Road STEWARD IL 60553 US

11/7/2010 11/8/2010 ZZ047 Driv Lok, Inc. 1140 Park Avenue Sycamore IL 60178 US

11/7/2010 11/8/2010 NH739 Flex N Gate Corporation 1306 E. University Ave., P.O. Box 727 Urbana IL 61803 US

11/7/2010 11/8/2010 ZZ044 D.A. Stuart Company 4580 Weaver Parkway Warrenville IL 60555 US

11/7/2010 11/8/2010 ZZ062 International Truck & Engine Corporation 4201 Winfield Road Warrenville IL 60555 US

4/19/2011 3/25/2011 AE011 Aspen Marketing Services 1240 North Avenue West Chicago IL 60185 US Gary Nass VP Client Services 800-848-0212 630-293-9600 Gnass@aspenms.com

11/7/2010 11/8/2010 VG295 UPM -KYMMEME 999 Oakmont Plaza Drive Suite 200 Westmont IL 60559 US Scott Balogh

11/7/2010 11/8/2010 ZZ098 The Presentation Group 210 North Cass Ave A Westmont IL 60559 US

11/7/2010 11/8/2010 ZZ064 Julian Electric Inc. 406 Plaza Dr WESTMONT IL 60559 US

11/7/2010 11/8/2010 ZZ102 U.S. Tsubaki, Inc. 301 East Marquardt Dr Wheeling IL 60090 US

11/7/2010 11/8/2010 ZZ097 Tec Air, Inc. One Tec Air Ave. Willow Springs IL 60480 US

11/7/2010 11/8/2010 ZZ164 Remy 2902 Enterprise Drive Anderson IN 46013 US

2/1/2011 11/8/2010 ZZ150 Micromatic LLC 525 Berne Street BERNE IN 46711 US Sunita West Human Resource Assistant 260-589-2136 sunita.west@micromaticllc.com

11/7/2010 11/8/2010 ZZ129 FCC (Adams), LLC 936 East Parr Road BERNE IN 46711 US

11/7/2010 11/8/2010 XF966 Rogers Group, Inc. 2182 West Industrial Park Drive Bloomington IN 47404 US

11/7/2010 11/8/2010 QS007 Indiana University 1309 East 10th Street Bloomington IN 47405 US

11/7/2010 11/8/2010 ZZ181 Universal Bearings, Inc. 431 North Birkey Drive Bremen IN 46506 US

11/7/2010 11/8/2010 BX023 Bay Bridge Manufacturing 17666 Commerce Drive Bristol IN 46507 US

12/10/2010 11/8/2010 XY840 United States Infrastructure Corporation 13085 Hamilton Crossing Blvd Ste 200 Carmel IN 46032 US Phil Samuelson Manager Purchasing, Fleet, & Asset Mgmt 317-575-7800 317-575-7832 philsamuelson@usicinc.com

11/7/2010 11/8/2010 WX870 ADESA Corporation 13085 Hamilton Crossing Blvd., Carmel IN 46032 US

11/7/2010 11/8/2010 ZZ117 BRC Rubber & Plastics, Inc. 589 S Main St Churubusco IN 46723 US

11/7/2010 11/8/2010 XK049 Cummins, Inc. 500 Jackson Street Columbus IN 47201 US

11/7/2010 11/8/2010 ZZ126 EMCON Technologies 950 W 450 South COLUMBUS IN 47201 US

11/7/2010 11/8/2010 ZZ137 Heritage Products, Inc. 2000 Smith Ave CRAWFORDSVILLE IN 47933 US

10/6/2011 11/8/2010 VF652 ArcelorMittal USA 3220 Dickey Rd East Chicago IN 46312 US Charles Myers Employee 219-399-8367 Charles.Myers2@arcelormittal.com

11/7/2010 11/8/2010 ZZ166 Sacoma 955 South Walnut Street Edinburgh IN 46124 US

11/7/2010 11/8/2010 NE010 Forest River, Inc. 58277 State Road 19 Elkhart IN 46517 US

11/7/2010 11/8/2010 ZZ143 Kik Customer Products / Kem Krest 1919 Superior Street ELKHART IN 46516 US

11/7/2010 11/8/2010 ZZ160 Patrick Industries 28163 CR 20 Elkhart IN 46515 US

11/7/2010 11/8/2010 ZZ167 Siemens 23590 County Road 6 Elkhart IN 46514 US

11/7/2010 11/8/2010 ZZ178 Turtle Top 2810 Dexter Drive Elkhart IN 46514 US

11/7/2010 11/8/2010 BA290 Eclipse Conversions 135 E. County Road 6 Elkhart IN 46514 US

11/7/2010 11/8/2010 BA330 Goshen Coach, Inc. 25161 Leer Dr Elkhart IN 46514 US

11/7/2010 11/8/2010 BA331 Glaval Bus, Inc. 914 County Road 1 ELKHART IN 46514 US

11/7/2010 11/8/2010 BA514 Tuscany Motor Coach 2811 Tuscany Drive Elkhart IN 46514 US

11/7/2010 11/8/2010 PU017 Elk Automotive, Inc. 3012 Mobile Drive Elkhart IN 46514 US

11/7/2010 11/8/2010 RV016 Thor Industries 701 County Road 15 Elkhart IN 46515 US

11/7/2010 11/8/2010 RV017 Damon Corp. 301 S. Main Street P.O. Box 2888 Elkhart IN 46515 US

11/7/2010 11/8/2010 RV212 Dynamax Corporation 53103 Northland Drive Elkhart IN 46514 US

11/7/2010 11/8/2010 NF784 Accuride Corporation 7140 Office Circle Evansville IN 47716 US

11/7/2010 11/8/2010 AC475 Kentucky Data Link 3701 Communications Way EVANSVILLE IN 47715 US

11/7/2010 11/8/2010 VK011 EMCOR and Comfort Systems 7614 Opportunity Drive Fort Wayne IN 46801 US Dan Davis

11/7/2010 11/8/2010 ZZ145 KUS 2425 South Coliseum Boulevard Fort Wayne IN 46803 US

11/7/2010 11/8/2010 ZZ174 Steel Dynamics, Inc 6714 Point Inverness Suite 20 Fort Wayne IN 46804 US

11/7/2010 11/8/2010 ZZ149 Medtec Ambulance Corporation 2429 Lincoln Way East Goshen IN 46526 US

11/7/2010 11/8/2010 ZZ163 R Vision Inc 310 Steury Avenue Goshen IN 46526 US

11/7/2010 11/8/2010 BA287 Starcraft 2703 College Ave. Goshen IN 46526 US

11/7/2010 11/8/2010 BX227 American Cargo LLC 64141 U.S. 33 South Goshen IN 46526 US

11/7/2010 11/8/2010 BX474 Supreme Corp. 16500 County Road 38 Goshen IN 46528 US

11/7/2010 11/8/2010 XI575 Irving Materials, Inc. 8032 N State Rd 9 GREENFIELD IN 46140 US

12/7/2010 11/8/2010 ZZ131 Gecom Corporation 1025 Barachel Lane GREENSBURG IN 47240 US Deborah Ybarra Sr Mgr Org Planning and HR 812-663-2270 812-663-0582 deborah_ybarra@gecomcorp.com

11/7/2010 11/8/2010 ZZ169 Sintering Technologies. Inc 1024 Barachel Lane Greensburg IN 47240 US

11/7/2010 11/8/2010 BY714 H & H Sales Co Inc 16339 Lima Road Huntertown IN 46748 US

11/7/2010 11/8/2010 VU631 Styline Logistics 1008 Styline Drive HUNTINGBURG IN 47542 US

11/7/2010 11/8/2010 ZZ184 Wabash Technologies, Inc. 1375 Swan Street Huntington IN 46750 US

1/25/2011 11/8/2010 XD848 Eli Lilly and Company Lilly Corporate Center DC 5217 INDIANAPOLIS IN 46285 US Kim Cregar Fleet Administrator 317-276-2119 cregar_kim_s@lilly.com

1/24/2011 11/8/2010 WJ434 Duke Realty Corp. 600 E. 96th Street, Suite 100 Indianapolis IN 46240 US Tony Benner Assistant Controller 317-808-6000 tony.benner@dukerealty.com

3/13/2011 3/4/2011 AE075 Technicolor 10330 North Meridian Indianapolis IN 46292 US

11/7/2010 11/8/2010 UH218 Vectren Corporation 1630 North Meridian Street Indianapolis IN 46202 US

11/7/2010 11/8/2010 ZZ138 Hoosier Gasket Corporation 2400 Enterprise Park Place INDIANAPOLIS IN 46218 US

11/7/2010 11/8/2010 ZZ139 HP Products 4220 Saguaro Trail INDIANAPOLIS IN 46268 US

11/7/2010 11/8/2010 XM011 Edwards Electrical & Mechanical 2350 N Shadeland Ave INDIANAPOLIS IN 46219 US

11/7/2010 11/8/2010 ZZ171 Smock Fansler Corporation 2910 West Minnesota Street Indianapolis IN 46241 US

11/7/2010 11/8/2010 ZZ186 WellPoint Health Networks 120 Mounument Circle Indianapolis IN 46204 US

11/7/2010 11/8/2010 VH258 Simon Property Group 115 W. Washington Street Indianapolis IN 46204 US

11/7/2010 11/8/2010 NN056 Carrier Dealer Alliance 7310 West Morris Street Indianapolis IN 46231 US

11/7/2010 11/8/2010 NN317 Bryant Select 7310 West Morris Street Indianapolis IN 46231 US

11/7/2010 11/8/2010 XD808 Miller Pipeline 8850 Crawfordsville Road Indianapolis IN 46234 US

11/7/2010 11/8/2010 XE073 Roche Diagnostics 9115 Hague Road Indianapolis IN 46250 US

11/7/2010 11/8/2010 NV902 Roll Coater, Inc 8440 Woodfield Crossing, Ste. 500 Indianapolis IN 46240 US

11/7/2010 11/8/2010 WZ274 Finishmaster Inc 54 Monument Circle Indianapolis IN 46204 US

11/7/2010 11/8/2010 NR142 Channel Bio Corporation 612 East Dunlap Kentland IN 47951 US

11/7/2010 11/8/2010 XY516 Kirby Risk Electrical Supply 1815 Sagamore Parkway Lafayette IN 47904 US

11/7/2010 11/8/2010 ZZ122 Dutch Housing, Inc. 1500 North Detroit Street LaGrange IN 46761 US

11/7/2010 11/8/2010 PU268 L.A. West, Inc. 1995 East US 20 LaGrange IN 46761 US

5/31/2011 11/8/2010 ZZ151 Millennium Industries Corporation 925 North Main Street Ligonier IN 46767 US Beth Newman Human Resource/Payroll 260-894-3163 260-894-6343 bnewman@mill-ind.com

11/7/2010 11/8/2010 ZZ170 Small Parts, Inc 600 Humphrey Street Logansport IN 46947 US

11/7/2010 11/8/2010 NX851 Grote Industries 2600 Lanier Drive Madison IN 47250 US

11/7/2010 11/8/2010 BA394 Jayco, Inc. 903 South Main Street Middlebury IN 46540 US

11/7/2010 11/8/2010 RV061 Coachmen Industries 423 North Main St Middlebury IN 46540 US

11/7/2010 11/8/2010 ZZ159 Nyloncraft, Inc 616 West McKinley Avenue Mishawaka IN 46545 US

11/7/2010 11/8/2010 XC550 National Steel Corp 4100 Edison Lakes Parkway Mishawaka IN 46545 US


11/7/2010 11/8/2010 BA356 Gulf Stream Coach 502 S. Oakland P.O. Box 27 Nappanee IN 46550 US

11/7/2010 11/8/2010 RV326 Newmar Corporation 355 Delaware, P.O. Box 30 Nappanee IN 46550 US

11/7/2010 11/8/2010 ZZ161 Perkins Specialized Transportation 14450 Getz Road NOBLESVILLE IN 46060 US

11/7/2010 11/8/2010 ZZ158 Notre Dame University Faculty 100 Grace Hall Notre Dame IN 46556 US

11/7/2010 11/8/2010 XE031 Townsend Corporation 101 S Main St PARKER CITY IN 47368 US

11/7/2010 11/8/2010 ZZ116 Bomarko, Inc. 1955 North Oak Road Plymouth IN 46563 US

11/7/2010 11/8/2010 ZZ155 Mosey Mfg. Co. Inc. 1700 North F Street RICHMOND IN 47374 US

11/7/2010 11/8/2010 WC169 Belden Wire & Cable Company 2200 U.S. Highway 27 South Richmond IN 47374 US

11/7/2010 11/8/2010 ZZ113 Avery Dennison 650 West 67th Avenue Schererville IN 46375 US

12/22/2010 11/8/2010 ZZ172 South Bend Clinic 211 North Eddy Street South Bend IN 46617 US Marcia Mammolenti Employee Service Specialist 574-234-8161 mmammolenti@southbendclinic.com

11/7/2010 11/8/2010 ZZ119 Corporate Services 5681 West Cleveland Road South Bend IN 46628 US

11/7/2010 11/8/2010 WK194 Mittler Supply, Inc. 3607 South Main Street South Bend IN 46614 US

11/7/2010 11/8/2010 ZZ147 Lacay Fabrication & Manufacturing, Inc. 1344 West Sample Street South Bend IN 46619 US

11/7/2010 11/8/2010 ZZ148 Martins Supermarkets 760 W. Cotter St PO Box 27909 South Bend IN 46613 US

11/7/2010 11/8/2010 NL887 MISCOR Group, Ltd. 1125 S Walnut St SOUTH BEND IN 46619 US

11/7/2010 11/8/2010 ZZ175 Steel Parts Manufacturing, Inc. 801 Berryman Pike Tipton IN 46072 US

11/7/2010 11/8/2010 BX177 Utilimaster Corporation 65906 State Road 19 Wakarusa IN 46573 US

11/7/2010 11/8/2010 RV195 Monaco Coach Corpation 606 Nelson Parkway Wakarusa IN 46573 US

11/7/2010 11/8/2010 ZZ115 Biomet 56 East Bell Drive; PO Box 587 Warsaw IN 46581 US

11/7/2010 11/8/2010 BA509 Explorer Van Company 2749 N. Fox Farm Rd. Warsaw IN 46581 US

11/7/2010 11/8/2010 QS082 Purdue University 401 S. Grant, S Freehaferl West Lafayette IN 47907 US

11/7/2010 11/8/2010 ZZ193 KMT Waterjet Systems 635 West 12th Street Baxter Springs KS 66713 US

11/7/2010 11/8/2010 BY529 Collins Industries, Inc. 15 Compound Drive Hutchinson KS 67502 US

12/8/2010 11/8/2010 WA286 P1 Group 2151 Haskell Avenue Lawrence KS 66046 US Emily Cope Fleet Manager 7858432910 elc@p1group.com

11/7/2010 11/8/2010 XZ871 PROTECTION 1035 N. 3rd Street, Suite 101 Lawrence KS 66044 US

11/7/2010 11/8/2010 ZZ196 US Safety 8101 Lenexa Drive Lenexa KS 66214 US

11/7/2010 11/8/2010 VI334 Performance Contracting Inc 16400 College Blvd Lenexa KS 66219 US

11/7/2010 11/8/2010 WG535 Wachter Management Co 16001 West 99th Street Lenexa KS 66219 US

11/7/2010 11/8/2010 NX036 Railcrew Xpress 242 Fairland Drive, Suite D4 Louisburg KS 66053 US

11/7/2010 11/8/2010 XB617 Layne Christensen Company 1900 Shawnee Mission Parkway Mission Woods KS 66205 US

11/7/2010 11/8/2010 WX622 Terracon Consultants Inc 18001 W. 106th Street, Suite 300 Olathe KS 66061 US Ginny Liddle

4/20/2011 11/30/2010 AE017 Garmin International, Inc. 1200 East 151st St Olathe KS 66062 US Jeff Antoniewicz Global Strategic Sourcing Manager 913-397-8200 913-397-8282 jeff.antoniewicz@garmin.com

11/7/2010 11/8/2010 ZZ192 GARMIN 1200 E. 151st Sreet Olathe KS 66062 US

1/11/2011 11/8/2010 XB623 Ash Grove Cement Company 11011 Cody Street Overland Park KS 66210 US Michael Colbert Purchasing Manager 913 319 6076 913 451 8900 michael.colbert@ashgrove.com

12/27/2010 11/8/2010 WA100 Black & Veatch 11401 Lamar Ave Overland Park KS 66211 US Rod Cramer Fleet Manager 913 458 2000 913 458 7380 cramerrk@bv.com

11/7/2010 11/8/2010 WN021 Inland Truck Parts 4400 College Blvd, Suite 145 Overland Park KS 66211 US

11/7/2010 11/8/2010 ZZ194 Penton Media 9800 Metcalf Overland Park KS 66212 US

11/7/2010 11/8/2010 UH118 Sprint Nextel Corp. 6500 Sprint Pky MS KSOPHL03123 Overland Park KS 66251 US

11/7/2010 11/8/2010 RV183 Thor - El Dorado 1655 Wall Street Salina KS 67401 US

11/7/2010 11/8/2010 XZ829 RENZENBERGER, INC PO Box 16150 Shawnee KS 66203 US

11/7/2010 11/8/2010 NR274 Seaboard Foods 9000 W. 67th Street Suite 200 Shawnee Mission KS 66201 US

11/7/2010 11/8/2010 UH181 Westar Energy 4001 Northwest 14th Street Topeka KS 66601 US

11/7/2010 11/8/2010 UH817 Kansas Gas Service Company 501 Gage Topeka KS 66606 US

11/7/2010 11/8/2010 VP534 Martin Tractor PO Box 1698 Topeka KS 66601 US

11/7/2010 11/8/2010 WC315 Payless Shoe Source 3231 East 6th Street Topeka KS 66601 US

4/4/2011 4/4/2011 AE088 Koch 4111 E. 37th Street North Wichita KS 67220 US Scott McGahey (512) 615-5738

11/7/2010 11/8/2010 XB654 Koch Supply Co. 4111 East 37th Str. North Wichita KS 67220 US

11/7/2010 11/8/2010 ZZ195 The Cessna Aircraft Company Four Cessna Boulevard Wichita KS 67277 US

11/7/2010 11/8/2010 AC864 Viega 301 North Main Suite 900 WICHITA KS 67202 US

11/7/2010 11/8/2010 WD216 Foley Equipment Company 1550 S. West Street Wichita KS 67213 US

1/25/2011 11/8/2010 WL165 Airgas - Mid America 2950 Inductrial Dr Bowling Green KY 42101 US Daryl Cummings Safety Director 270824-9489 2709366232 daryl.cummings@airgas.com

1/24/2011 11/8/2010 ZZ209 Nasco 3251 Nashville Road Bowling Green KY 42101 US Don Gilbert Assistant HR Manager 2704672154 don.gilbert@nascospg.com

11/7/2010 11/8/2010 ZZ200 American National Rubber 277 Industrial Drive Cadiz KY 42211 US

11/7/2010 11/8/2010 ZZ202 CC Metals and Alloys LLC 524 North Main Street Calvert City KY 42029 US

11/7/2010 11/8/2010 ZZ203 CTA Acoustics Inc Robert E. Cox Road, P.O. Box 448 Corbin KY 40702 US

11/7/2010 11/8/2010 ZZ199 AGC Automotive Americas 1 Auto Glass Drive Elizabethtown KY 42701 US

12/9/2010 11/8/2010 XQ719 Heritage Propane 500 Meijer Drive, Suite 200 FLORENCE KY 41042 US Michael Talyor Director of Fleet Management 859-647-4044 859-409-1439 mtaylor@heritagepropane.com

4/26/2011 11/8/2010 ZZ208 Muhr Und Bender KG - Mubea 6800 Industrial Road Florence KY 41042 US Monica Arnold HR Generalist 859-746-5300 859-538-1076 monica.arnold@mubeausa.com

11/7/2010 11/8/2010 ZZ207 Montaplast 2011 Hoover Blvd. Frankfort KY 40601 US

11/7/2010 11/8/2010 ZZ211 Topy America, Inc. 980 Chenault Rd FRANKFORT KY 40601 US

11/7/2010 11/8/2010 ZZ205 Gibbs Die Casting Corporation 369 Community Drive Henderson KY 42420 US

11/7/2010 11/8/2010 WO769 Lesco Design & Mfg Co. Inc. 1120 Fort Pickens Road LaGrange KY 40031 US

12/13/2010 11/8/2010 WC708 Cardinal Carryor 1055 New Grade LN Louisville KY 40213 US Jason Duckworth Human Resource Manager 502-363-6641 502-361-0363 jduckworth@cardinalcarryor.com

12/9/2010 11/8/2010 XY892 Brown-Forman 850 Dixie Highway Louisville KY 40210 US Katie Rixman Sr Fleet Specialist 502-774-7791 502-585-1100 katie_rixman@b-f.com

12/7/2010 11/8/2010 ZZ206 Luckett and Farley 737 South 3rd Street LOUISVILLE KY 40202 US Michelle Smith Human Resource Manager 502-585-4181 msmith@luckett-farley.com

12/8/2010 11/8/2010 NF712 ISCO Industries LLC 926 Baxter Ave LOUISVILLE KY 40204 US Troy Schoenbaechler FLEET MANAGER 502-318-6675 502-318-6794 heather.cheek@isco-pipe.com

11/7/2010 11/8/2010 WJ390 Abel Construction Co., Inc. 3401 Bashford Ave Ct Louisville KY 40218 US

11/7/2010 11/8/2010 ZZ201 Ampro Pest Control 4627 Pinewood Road Louisville KY 40218 US

11/7/2010 11/8/2010 XR008 Thorntons Inc 10101 Linn Station Road, Suite 200 LOUISVILLE KY 40223 US

11/7/2010 11/8/2010 XT493 United Electric Co., Inc. 4333 Robards Lane Louisville KY 40218 US

11/7/2010 11/8/2010 XE296 Res Care, Inc. 10140 Linn Station Road Louisville KY 40223 US

11/7/2010 11/8/2010 BA300 Manning Equipment 12000 Westport Road Louisville KY 40223 US

11/7/2010 11/8/2010 XZ039 Steel Technologies 15415 Shelbyville Road LOUISVILLE KY 40299 US

11/7/2010 11/8/2010 XZ346 AAF McQuay 10300 Ormsby Park Place, 600 Louisville KY 40223 US

11/7/2010 11/8/2010 UH048 Louisville Gas & Electric 820 West Broadway Louisville KY 40232 US

12/9/2010 11/8/2010 CC072 Middlesboro Coca Cola PO Box 1468 Middlesboro KY 40965 US Brenda Bailey Dir. Human Resources 606-248-2660 800-442-0102 bbailey@mccbw.com

11/7/2010 11/8/2010 NX180 Xanodyne Pharmaceuticals, Inc. 1 Riverfront Place NEWPORT KY 41071 US

11/7/2010 11/8/2010 XA896 RJ Corman Railroad Construction 1 J Station NICHOLASVILLE KY 40356 US

11/7/2010 11/8/2010 ZZ212 YH America, Inc. 103 Kuhlman VERSAILLES KY 40383 US

11/7/2010 11/8/2010 VJ327 Amedisys, Inc. 5959 S Sherwood Drive BATON ROUGE LA 70816 US Ken Foster

11/7/2010 11/8/2010 XL821 James Construction Group 11200 Industriplex Blvd Ste 150 Baton Rouge LA 70809 US

11/7/2010 11/8/2010 ZZ214 Coca-Cola Bottlers United 10000 Dawnadele Avenue Baton Rouge LA 70809 US

11/7/2010 11/8/2010 WX186 Turner Industries Group LLC 2865 Mason Avenue Baton Rouge LA 70805 US

12/9/2010 11/8/2010 NT586 Pamlab, LLC 4099 Highway 190 Covington LA 70433 US David Anderson Fleet Manager 985-893-4097 985-867-5783 danderson@pamlab.com

11/7/2010 11/8/2010 XZ179 PoolCorp 109 North Park Blvd. 4th Floor Covington LA 70433 US

11/7/2010 11/8/2010 XJ408 Sunland Construction 2532 Aymond Street Eunice LA 70535 US

11/7/2010 11/8/2010 NQ639 Louisiana Crane Company LLC 1045 Highway 190 West EUNICE LA 70535 US

11/7/2010 11/8/2010 NZ334 I E Miller Service LP 826 Industrial Lane EUNICE LA 70535 US

11/7/2010 11/8/2010 ZZ218 Rubicon, LLC, 9156 Highway 75 Geismar LA 70734 US

11/7/2010 11/8/2010 XB727 Superior Energy Services 1105 Peters Road Harvey LA 70058 US

11/7/2010 11/8/2010 WP503 Knight Oil Tools 2727 SE Evaneline Thruway LAFAYETTE LA 70508 US

11/7/2010 11/8/2010 VH221 CenturyLink 100 Centurytel Drive Monroe LA 71203 US

11/7/2010 11/8/2010 XW954 Aggreko Inc. 4607 W Admiral Doyle Drive New Iberia LA 70560 US

11/18/2011 11/8/2010 XB765 Standard Companies 640 Magazine Street New Orleans LA 70130 US Mike Camnetar Fleet Mgr 5045395326 mccamnetar@coffeeservice.com

11/7/2010 11/8/2010 UH142 Entergy 639 Loyola Avenue New Orleans LA 70113 US

11/7/2010 11/8/2010 BX084 Dealer's Truck Equipment Co. 2460 Midway Street Shreveport LA 71108 US


12/8/2010 11/8/2010 XU248 UNICCO Service Company 275 Grove Street #3-200 Auburndale MA 2466 US Pete Belloli Fleet Manager 617-559-4254 pbelloli@na.ugllimited.com

11/7/2010 11/8/2010 NM216 Hologic 35 Crosby Drive Bedford MA 1730 US

11/7/2010 11/8/2010 ZZ241 RSA Security, Inc. 174 Middlesex Tpke Bedford MA 1730 US

11/7/2010 11/8/2010 WJ219 Millipore Corporation 290 Concord Road Billerica MA 1821 US

11/7/2010 11/8/2010 BA502 New England Wheels 33 Manning Road BILLERICA MA 1821 US

11/7/2010 11/8/2010 XX822 Boston Red Sox 4 Yawkee Way Boston MA 2215 US Elana Webb

12/7/2010 11/8/2010 ZZ227 Arnold Worldwide 101 Huntington Ave BOSTON MA 2199 US Maurice Haynes VP, WorkLife Director 617-587-8358 617-587-8000 mhaynes@arn.com

11/30/2010 11/30/2010 XD652 Liberty Mutual 175 Berkeley Street, MS: 02H Boston MA 2116 US William Wallace 617-654-3221 william.wallace@libertymutual.com

3/13/2011 3/4/2011 AE045 BCBSMA 401 Park Drive Boston MA 2215 US

3/13/2011 3/4/2011 AE077 Tufts Medical Center 750 Washington St Boston MA 2111 US

11/7/2010 11/8/2010 ZZ243 State Street Financial 1 Lincoln Street Boston MA 2111 US

11/7/2010 11/8/2010 WT735 Iron Mountain 745 Atlantic Avenue Boston MA 2111 US

11/7/2010 11/8/2010 XA051 John Hancock Life Insurance Company 200 Berkeley Street B-6 BOSTON MA 2116 US

11/7/2010 11/8/2010 UH095 Verizon Co 185 Franklin Street, Rm 504 Boston MA 2210 US

11/7/2010 11/8/2010 NY643 TopSource LLC 350 Granite Street BRAINTREE MA 2184 US Debbie Wilcox

11/7/2010 11/8/2010 WK106 Braintree Labs, Inc. 60 Columbian Street BRAINTREE MA 2185 US

11/7/2010 11/8/2010 XF610 Ahold 350 Granite Street BRAINTREE MA 2184 US

11/7/2010 11/8/2010 NZ879 Roman Catholic Arch Diocese of Boston 2121 Commonwealth Avenue Brighton MA 2135 US

12/12/2011 11/8/2010 NR357 Millennium Pharmaceuticals, Inc. 40 Landsdowne Street Cambridge MA 2139 US Debbie Moy Mgr II, Fleet & Field Operations 617-444-3230 732-841-5278 debbie.moy@mpi.com

3/21/2011 11/8/2010 NG741 Genzyme 500 Kendall Street Cambridge MA 2142 US Elena Memlok YouDecide 222-222-2222 222-222-2222 kevin.kannenberg@youdecide.com

5/19/2011 11/8/2010 AD684 Vertex, Inc. 130 Waverly Street Cambridge MA 2139 US Rita Harris Sr. Specialist Field Operations 617-444-6938 rita_harris@vrtx.com

11/7/2010 11/8/2010 ZZ235 Forrester Research, Inc. 400 Technology Square Cambridge MA 2139 US

11/7/2010 11/8/2010 ZZ238 MIT Office of Corp. Relations 292 Main Street, 4th Floor Cambridge MA 2139 US

3/2/2011 11/8/2010 ZY929 Stoneridge 300 Dan Road Canton MA 2021 US Michael Fuller Sr. HR Administrator 781-830-5557 michael.fuller@stoneridge.com

4/7/2011 11/8/2010 ZZ231 Campbell Campbell Edwards & Conroy One Constitution Plaza CHARLESTOWN MA 2129 US Stephanie Mahoney Administrator 617-241-3000 smahoney@campbell-trial-lawyers.com

11/7/2010 11/8/2010 ZZ236 Injectronics, Inc. One Union Street Clinton MA 01510-2916 US

11/7/2010 11/8/2010 UH121 NSTAR 1165 Massachusetts Dorchester MA 2125 US

11/7/2010 11/8/2010 AD889 Automotion 840 Central St. East Bridgewater MA 2333 US John Lawlor Owner 508-378-3023 automotion@comcast.net

11/7/2010 11/8/2010 NC070 Fidelity Investments 69 Norman Street Everett MA 2149 US

1/26/2011 11/8/2010 XA048 Cumberland Farms Inc. 100 Crossing Blvd. Framingham MA 1702 US Terri Fernandes Executive Secretary 508-270-3178 1-800-225-9702 ext 3178 kfernandes@cumberlandgulf.com

11/7/2010 11/8/2010 XC560 Perini Corporation 73 Mt. Wayte Avenue FRAMINGHAM MA 1701 US

11/7/2010 11/8/2010 ZZ230 Bose Corporation The Mountain Framingham MA 1701 US

11/7/2010 11/8/2010 ZZ240 Royale Limousine Manufacturers 99 Newark Street Haverhill MA 1832 US

11/7/2010 11/8/2010 NB558 New Balance Co 5 South Union Street Lawrence MA 1843 US

1/20/2011 11/8/2010 AB793 AMAG Phamaceuticals 100 Hayden Ave Lexington MA 2421 US Patrick Treanor VP of Sales 617-498-3386 ptreanor@amagpharma.com

11/7/2010 11/8/2010 XX017 Instrumentation Laboratory Co. 113 Hartwell Avenue Lexington MA 2421 US

11/7/2010 11/8/2010 VL798 Sepracor 158 Waterford Drive Marlboro MA 1752 US Kevin O'Loughlin

11/7/2010 11/8/2010 AC832 Ken's Foods 1 D'Angelo Drive Marlborough MA 1752 US Gary Beisaw

11/7/2010 11/8/2010 NT941 New Seabury Properties LLC 20 Red Brook Road MASHPEE MA 2649 US

11/7/2010 11/8/2010 AD963 Cross Country Automotive Services 1 Cabot Road Medford MA 2155 US Laura Bernard Client Services Manager 781-306-3409 845-527-7066 lbernard@crosscountry-auto.com

11/7/2010 11/8/2010 ZZ232 Cross Country Automotive Services One Cabot Road, 4th Floor Medford MA 2155 US

11/7/2010 11/8/2010 NT630 Southworth-Milton dba Milton Cat 100 Quarry Drive Milford MA 1757 US

11/7/2010 11/8/2010 VB752 Thermo Fisher 450 fortune blvd Mlford MA 2454 US

11/7/2010 11/8/2010 ZZ244 The MathWorks, Inc. 3 Apple Hill Drive Natick MA 1760 US

11/7/2010 11/8/2010 WC690 Boston Scientific 1 Boston Scientific Place Natick MA 1760 US

11/7/2010 11/8/2010 AD961 TSD Automotive 1620 & 1650 Turnpike Street North Andover MA 1845 US Shawn Concannon Strategic Account Manager (800) 743-1200 X8070

11/7/2010 11/8/2010 XX279 Smith College Faculty 30 Belmont Northampton MA 1063 US

11/7/2010 11/8/2010 NN720 Autopart International, Inc 192 Mansfield Avenue NORTON MA 2766 US

11/7/2010 11/8/2010 XE806 CleanHarbors,inc 42 Longwater Drive NORWELL MA 2061 US William McKim

11/7/2010 11/8/2010 AB653 SABIC Innovative Plastics 1 Plastics Ave PITTSFIELD MA 1201 US

1/24/2011 11/8/2010 WI889 EMD Serono, Inc. One Technology Place ROCKLAND MA 2370 US Karen Rasnick Fleet & Travel Coordinator 781-982-9000 karen.rasnick@emdserono.com

11/7/2010 11/8/2010 AA426 Smiths Group Int'l Holdings Ltd. 160 Weymouth Street ROCKLAND MA 2370 US

11/7/2010 11/8/2010 ZZ239 NES Co 346 D Street S Boston MA 2127 US

11/7/2010 11/8/2010 BX089 Brake & Clutch, Inc. 63 Bridge Street Salem MA 1970 US

11/7/2010 11/8/2010 VE102 MassMutual 1295 State Street Springfield MA 1111 US

11/7/2010 11/8/2010 XI199 JF White 56 Old Page Street Stoughton MA 2072 US

11/7/2010 11/8/2010 NL243 QualxServ, LLC 836 North Street Tewksbury MA 1876 US

11/7/2010 11/8/2010 VT139 East Coast Cable 1788 Main Street Tewksbury MA 1876 US

11/7/2010 11/8/2010 UH201 National Grid 40 Sylvan Rd waltham MA 1582 US

11/7/2010 11/8/2010 WI858 Fresenius - National Medical Care, Inc. 920 Winter St. Ste A WALTHAM MA 2451 US

11/7/2010 11/8/2010 XK373 Raytheon Company 235 Wyman Waltham MA 2451 US

11/7/2010 11/8/2010 VB589 Harvey Industries, Inc. 1400 Main St WALTHAM MA 2451 US

11/7/2010 11/8/2010 WM440 Mac-Gray Services, Inc. 404 Wyman St, Ste 400 WALTHAM MA 2451 US

11/7/2010 11/8/2010 WX582 Biogen Idec 45 William Street Ste 200 WELLESLEY HILLS MA 2481 US Meegan Heritage

11/7/2010 11/8/2010 ZZ234 EMC 4400 Computer Drive, MSF212 Westborough MA 1580 US

11/7/2010 11/8/2010 NY062 United Site Services, Inc. 200 Friberg Parkway, Suite 4000 Westborough MA 1582 US

11/7/2010 11/8/2010 ZZ228 Atlas Copco Compressors 94 N Elm St, 4th Floor WESTFIELD MA 1085 US

11/7/2010 11/8/2010 WN580 Tyco International, Inc. 50 Technology Drive Westminster MA 1441 US

11/7/2010 11/8/2010 ZZ233 Dresser-Rand Company 299 Lincoln Street WORCESTER MA 1605 US

11/7/2010 11/8/2010 AD940 Amports 2700 Broening Highway Baltimore MD 21222 US George Molyneaux V.P. Operations 410 633-3900 ext 1404 443 570 4406 gmolyneaux@amports.com

1/24/2011 11/8/2010 UH220 Baltimore Gas & Electric 7210 Windsor Boulevard Baltimore MD 21244 US Gill Nichols Supervisor - Fleet Engineering 410-470-9060 gill.nichols@bge.com

1/3/2011 12/28/2010 AE029 EH Harms 2809 Boston Street, Suite 1A Baltimore MD 21212 US Katrina Dill Operations Manager (410) 837-7612 katrinad@ehharms.com

11/7/2010 11/8/2010 ZZ220 Aegon USA 1111 North Charles Street Baltimore MD 21201 US

11/7/2010 11/8/2010 ZZ224 Capgemini 1 North Charles St., 10th Fl. Baltimore MD 21201 US

11/7/2010 11/8/2010 ZZ226 Synagro Technologies, Inc. 7014 E. Baltimore Street Baltimore MD 21224 US

11/7/2010 11/8/2010 XY089 Whiting Turner Contracting Company 300 East Joppa Road Baltimore MD 21286 US

11/7/2010 11/8/2010 WA336 Reliable Churchill 7621 Energy Parkway Baltimore MD 21226 US

11/7/2010 11/8/2010 WL757 Rockwood Pigments NA Inc 7101 Muirkirk Road BELTSVILLE MD 20705 US

3/13/2011 3/4/2011 AE052 Dentisoft Technologies 7200 Wisconsin Avenue, Suite 300 Bethesda MD 20814 US

11/7/2010 11/8/2010 LU081 Lockheed Martin Corporation 6801 Rockledge Drive Bethesda MD 20817 US

3/13/2011 3/4/2011 AE051 Corporate Office Properties Trust 8815 Centre Park Dr. Suite 400 Columbia MD 21045 US

11/7/2010 11/8/2010 ZZ223 Bowles Fluidics Corporation 6625 Dobbin Road Columbia MD 21045 US

11/7/2010 11/8/2010 WF765 Aggregate Industries 1268 Cronson Blvd CROFTON MD 21114 US

11/7/2010 11/8/2010 ZZ221 Basell Polyolefins 912 Appleton Road Elkton MD 21921 US

11/7/2010 11/8/2010 WB526 Home Paramount PO Box 850 Forest Hill MD 21050 US

11/7/2010 11/8/2010 XG928 Blue Dot - Ridge 125 Industry Lane Forest Hill MD 21050 US

1/12/2012 11/8/2010 XQ569 Brickman Group, Ltd. 18227 Flower Hill Way, Suite D Gaithersburg MD 20879 US Maria Martinez HR Admin 240-683-2007 maria.martinez@brickmangroup.com

11/7/2010 11/8/2010 XA460 Sodexo 9801 Washitonian Blvd. Gaithersburg MD 20878 US

11/7/2010 11/8/2010 WO603 Danaher Corporation 11011 McCormick, Suite 15 Hunt Valley MD 21031 US

3/13/2011 3/4/2011 AE044 Baltimore AirCoil 7600 Dorsey Run Rd Jessup MD 20794 US

11/7/2010 11/8/2010 VK139 Next Day Blinds 8251 Preston Court JESSUP MD 20794 US

11/7/2010 11/8/2010 NZ101 American Mechanical Services 13300 Mid Atlantic Boulevard LAUREL MD 20708 US

11/7/2010 11/8/2010 XZ436 Hayward Baker Inc 1130 Annapolis Road, Suite 202 Odenton MD 21113 US

11/7/2010 11/8/2010 NW444 IMark Group 6009 Oxon Hill Road, Suite 314 Oxon Hill MD 20745 US

12/15/2010 11/8/2010 ZZ732 FINRA 9509 Key West Ave Rockville MD 20850 US Corey Winterton Diversity and WorkLife 240.386.4875 240.386.4877 corey.winterton@finra.org

11/7/2010 11/8/2010 XE919 F.O. Day Company 850 East Gude Drive Suite A Rockville MD 20850 US Joe Martin


11/7/2010 11/8/2010 NS802 Avendra LLC 702 King Farm Bouleyard, Suite 600 ROCKVILLE MD 20850 US

11/7/2010 11/8/2010 XK786 Perdue Farms Inc PO Box 1537 Salisbury MD 21802 US

11/7/2010 11/8/2010 AC192 Choice Hotels International 10750 Columbia Pike SILVER SPRING MD 20901 US

11/7/2010 11/8/2010 PH001 PHH 940 Ridgebrook Rd Sparks MD 21152 US Linda Tiberi

11/7/2010 11/8/2010 XG052 Black and Decker U.S., Inc 701 East Joppa Road Towson MD 21286 US

1/24/2011 11/8/2010 XG532 Clark Construction Group 6407 Dower House Road Upper Marlboro MD 20772 US SHERYL BUCHANAN FLEET ADMIN 301-877-2721

SHERYL.BUCHANAN@CLARKCONSTRUCTION.CO

M

11/7/2010 11/8/2010 XG510 Lepage Bakeries, Inc. 1 Adamian Drive AUBURN ME 4210 US

1/26/2011 11/8/2010 AB607 FairPoint Communications 175 Industrial Way PORTLAND ME 4103 US Steve Gavett fleet manager 207-797-1049 sgavett@fairpoint.com

11/7/2010 11/8/2010 XR901 Hannaford Co. P.O. BOX 1000 Portland ME 4104 US

11/7/2010 11/8/2010 VH226 Adrian Steel Company 906 James Street Adrian MI 49221 US

12/7/2010 11/8/2010 ZZ322 Decker Manufacturing Corporation 703 North Clark Albion MI 49224 US Robert Chojnowski HR Manager 517-629-3955 bobc@deckernut.com

11/7/2010 11/8/2010 ZZ565 Schenkers, USA 1555 Fairlane Drive ALLEN PARK MI 48101 US

11/7/2010 11/8/2010 ZZ328 Detroit Lions 222 Republic Drive Allen Park MI 48101 US

12/6/2010 11/8/2010 ZZ377 Garr Tool Company 7800 North Alger Road Alma MI 48801 US JEFF LEPPIEN PLAN COORDINATOR 989-463-6171 jeffleppien@garrtool.com

11/7/2010 11/8/2010 ZZ262 Alma Products Company 2000 Michigan Avenue Alma MI 48801 US

7/6/2011 7/5/2011 QS061 University of Michigan 3003 S State St, 10090 Wolverine Tower Ann Arbor MI 48109 US Dave Doyle Asst Program Manger (734) 647-7440 ddoyle@umich.edu

11/7/2010 11/8/2010 ZZ413 Horiba 5900 Hines Drive Ann Arbor MI 48108 US

11/7/2010 11/8/2010 ZZ479 Michigan Ann Arbor (University) Faculty 3003 South State Street, Room Ann Arbor MI 48109 US

11/7/2010 11/8/2010 ZZ507 Nagel Precision, Inc. 288 Dino Drive Ann Arbor MI 48103 US

11/7/2010 11/8/2010 ZZ246 A&D Technology, Inc. 4622 Runway Blvd ANN ARBOR MI 48108 US

11/7/2010 11/8/2010 NU831 Affinia Group 1101 Technology Drive ANN ARBOR MI 48108 US

11/7/2010 11/8/2010 ZZ315 Con-way Freight 110 Parkland Plaza Ann Arbor MI 48103 US

11/7/2010 11/8/2010 ZZ357 Ewie Company 1099 Highland Drive, Ste D Ann Arbor MI 48108 US

11/7/2010 11/8/2010 ZZ272 Armada Rubber Manufacturing Company 24586 Armada Ridge Armada MI 48005 US

12/21/2010 11/8/2010 ZZ597 Thyssen Krupp System Engineering Inc 901 Doris Road Auburn Hills MI 48326 US Kelly Andrus Human Resources 248-340-8000 kelly.andrus@thyssenkrupp.com

12/8/2010 11/8/2010 ZZ611 Umicore Autocat USA Inc 2347 Commercial Drive Auburn Hills MI 48326 US Marcie Lemieux Human Resources 248-292-2248 248-941-3995 marcie.lemieux@am.umicore.com

2/18/2011 11/8/2010 BW003 BorgWarner 3800 Automotion Ave Suite 100 Auburn Hills MI 48326 US Robin Kerner Benefit Coordinator (248) 754-0129 rkerner@borgwarner.com

1/12/2012 11/8/2010 NV676 Brose North America, Inc. 3933 Automation Ave Auburn Hills MI 48326 US Tao Hong engineer 2483394715 2483394715 tao.hong@brose.com

11/7/2010 11/8/2010 WG698 Guardian Industries, Corp. 2300 Harmon Road Auburn Hills MI 48326 US

11/7/2010 11/8/2010 ZZ417 Hutchinson Sealing Systems 1060 Centre Road AUBURN HILLS MI 48326 US

11/7/2010 11/8/2010 ZZ420 Inalfa Roof Systems, Inc. 1370 Pacific Drive Auburn Hills MI 48326 US

11/7/2010 11/8/2010 ZZ426 ITT Industries, Inc. 2110 Executive Hills Court Auburn Hills MI 48326 US

11/7/2010 11/8/2010 ZZ430 JATO Dynamics, Inc 2851 High Meadow Circle AUBURN HILLS MI 48326 US

11/7/2010 11/8/2010 ZZ501 Morrell Incorporated 3333 Bald Mountain Road Auburn Hills MI 48326 US

11/7/2010 11/8/2010 ZZ264 Alps Automotive, Inc. 1500 Atlantic Blvd. Auburn Hills MI 48326 US

11/7/2010 11/8/2010 ZZ541 QMC LLC 1940 Opdyke Court Auburn Hills MI 48326 US

11/7/2010 11/8/2010 ZZ266 Analysts International 3252 University Dr., Suite 200 Auburn Hills MI 48326 US

11/7/2010 11/8/2010 AD970 Audi of America, Inc. 3800 West Hamlin Road Auburn Hills MI 48326 US

11/7/2010 11/8/2010 AD972 Chrysler Group, LLC 1000 Chrysler Drive Auburn Hills MI 48326 US

11/7/2010 11/8/2010 ZZ283 Benteler Automotive 1780 Pond Run Auburn Hills MI 48326 US

11/7/2010 11/8/2010 NT344 Valeo, Inc. 3000 University Drive Auburn Hills MI 48326 US

11/7/2010 11/8/2010 ZZ562 Saturn Electronics & Engineering, Inc. 255 Rex Blvd. Auburn Hills MI 48326 US

11/7/2010 11/8/2010 ZZ308 Commercial Contracting Corporation 4260 North Atlantic Boulevard Auburn Hills MI 48326 US

11/7/2010 11/8/2010 ZZ313 Continental AG One Continental Drive Auburn Hills MI 48326 US

11/7/2010 11/8/2010 WW941 Molex , Inc 2025 Taylor Road Auburn Hills MI 48326 US

11/7/2010 11/8/2010 ZZ600 TK Holdings 2500 Takata Drive Auburn Hills MI 48326 US

11/7/2010 11/8/2010 ZZ326 Detroit Broach Company 2750 Paldan Drive Auburn Hills MI 48326 US

11/7/2010 11/8/2010 ZZ603 Total Filtration Services 2725 Commerce Parkway Auburn Hills MI 48326 US

11/7/2010 11/8/2010 WZ797 Atlas Copco Tools 2998 Dutton Road AUBURN HILLS MI 48326 US

11/7/2010 11/8/2010 ZZ364 FEV , Inc. 4554 Glenmeade Lane AUBURN HILLS MI 48326 US

11/7/2010 11/8/2010 ZZ384 GKN Automotive, Inc. 3300 University Drive Auburn Hills MI 48326 US

11/7/2010 11/8/2010 ZZ379 Gemini Group Inc. 175 Thomspon Road Bad Axe MI 48413 US

11/7/2010 11/8/2010 ZZ485 Michigan Section PGA 15600 Chandler Rd Bath MI 48808 US

12/6/2010 11/8/2010 ZZ408 Hi Lex America, Inc. 5200 Wayne Road Battle Creek MI 49037 US Mitch Freeman HR Manager 269-441-7211 269-968-0781 william_freeman@hi-lex.com

11/7/2010 11/8/2010 ZZ440 Kellogg Company One Kellogg Square BATTLE CREEK MI 49016 US

2/8/2011 11/8/2010 ZZ449 L & W Engineering Co. 6301 Haggerty Road Belleville MI 48111 US Maureen Callery Associate Services Representative 734-397-6300 mcallery@lw-grp.com

11/7/2010 11/8/2010 ZZ248 AB Myr Industries, Inc. 39635 I-94 S.Service Drive Belleville MI 48111 US

11/7/2010 11/8/2010 ZZ251 Active Aero Group 2068 E Street Belleville MI 48111 US

11/7/2010 11/8/2010 ZZ548 Republic Die & Tool PO Box 339 45000 Van Born Road Belleville MI 48112 US

11/7/2010 11/8/2010 ZZ549 Ricardo, Inc. 40000 Ricardo Drive BELLEVILLE MI 48111 US

11/7/2010 11/8/2010 ZZ628 Visteon Corporation 1 Village Ctr Dr, Location 40.3.114. BELLEVILLE MI 48111 US

3/13/2011 11/8/2010 ZZ633 Whirlpool Corporation 2000 N. M-63, Mail Drop 2804 Benton Harbor MI 49022 US

11/7/2010 11/8/2010 QG699 Ferris State University 420 Oak,Prakken 101 Big Rapids MI 49307 US

11/7/2010 11/8/2010 ZZ519 Office Concepts dbaWorkplace Integrators 30800 Telegraph Rd., Ste. 4700 Bingham Farms MI 48025 US

11/30/2010 11/30/2010 AE021 RDA Group 450 Enterprise Court Bloomfield Hills MI 48302 US Sherri Loweke 248-332-5000 248-836-2717 sloweke@rdagroup.com

11/7/2010 11/8/2010 ZZ458 MA 777 Woodward Avenue BLOOMFIELD HILLS MI 48302 US

11/7/2010 11/8/2010 ZZ545 RDA Group, Inc. 450 Enterprise Court Bloomfield Hills MI 48302 US

11/7/2010 11/8/2010 ZZ586 TAC Automotive 2600 Telegraph Rd., Suite 170 Bloomfield Hills MI 48302 US

12/6/2010 11/8/2010 ZZ358 Excelda 12785 Emerson Drive Brighton MI 48116 US Jennifer Oliver HR Generalist 2484863800 2485871197 joliver@excelda.com

11/7/2010 11/8/2010 ZZ514 Nikon Metrology, Inc. 12701 Grand River BRIGHTON MI 48116 US

11/7/2010 11/8/2010 ZZ340 Dunnage Engineering, Inc. 721 Advance Street Brighton MI 48116 US

11/7/2010 11/8/2010 ZZ398 Health Care INNOVATIONS 7701 Grand River Ave., Suite 100 Brighton MI 48114 US

11/7/2010 11/8/2010 ZZ469 MARTIN TRANSPORT 7300 CLYDE PARK SW BYRON CENTER MI 49315 US

11/7/2010 11/8/2010 WU843 Project Finance Inc 400 Gordon Industrial CT SW BYRON CENTER MI 49315 US

12/8/2010 11/8/2010 VZ836 FIAMM Technologies LLC 1550 Leeson Ave CADILLAC MI 49601 US Megan Schopieray Human Resources (231)779-3518 (231)775-2900 megan.schopieray@fiamm.com

11/7/2010 11/8/2010 ZZ484 Michigan Rubber Products 1200 8th Avenue Cadillac MI 49601 US

11/7/2010 11/8/2010 AD999 Schuler Inc. 7145 Commerce Blvd Canton MI 48187 US

11/7/2010 11/8/2010 ZZ252 AD Transport 5601 Belleville Road Canton MI 48188 US

11/7/2010 11/8/2010 ZZ546 Reliable Carriers, Inc. 41555 Kopoernick Canton MI 48187 US

11/7/2010 11/8/2010 ZZ574 Spring Engineering & Mfg Corp 7820 North Lilly Road Canton MI 48187 US

11/7/2010 11/8/2010 ZZ638 Yazaki Corp. 6801 Haggerty Road Mail Stop 1832 East Canton MI 48187 US

11/7/2010 11/8/2010 ZZ439 KC Transportation, Inc. 888 Will Carleton Road Carleton MI 48117 US

11/7/2010 11/8/2010 VO820 De-Sta-Co, Automotive 12501 Taylor Road Charlevoix MI 49720 US

11/7/2010 11/8/2010 VQ388 Spartan Motors, Inc. 1165 Reynolds Road Charlotte MI 48813 US

12/6/2010 11/8/2010 WG516 Tweddle Litho Company 24700 Maplehurst Clinton Township MI 48036 US Eric Taylor Director of Purchasing 586-307-3700 etaylor@tweddle.com

11/7/2010 11/8/2010 ZZ517 Norgren Automation Solutions, Inc. 44831 Groesbeck Highway CLINTON TOWNSHIP MI 48036 US

11/7/2010 11/8/2010 ZZ294 Carl Zeiss IMT Corp 6826 Kensington Rd COHOCTAH MI 48816 US

11/7/2010 11/8/2010 WW169 Alchem International Inc 368 West Garfield Ave Coldwater MI 49036 US

3/25/2011 11/8/2010 XK916 Snap On Business Solutions 3050 Union Lake Road, Ste 8F Commerce Twp MI 48382 US Stanley Politowicz 248-360-0114 Stan.Politowicz@snapon.com

12/9/2010 11/8/2010 ZZ626 Versacom Incorporated 15300 Mercantile Drive Dearborn MI 48120 US Elizabeth Oknayan Vice President 313-982-1400 loknayan@versacom-inc.com

11/7/2010 11/8/2010 AD967 Percepta 16800 Executive Place Drive Dearborn MI 48126 US Laura Seychel (313) 621-0445 lseychel@ford.com

12/9/2010 11/8/2010 AE001 Severstal North America 14661 Rotunda Drive, PO Box 1699 DEARBORN MI 48120-1699 US Tina DeCaussin Benefits Representative 1-800-532-8857 tdecauss@severstalna.com

11/7/2010 11/8/2010 ZZ404 Henry Ford Community College 5101 Evergreen DEARBORN MI 48128 US

11/7/2010 11/8/2010 XB111 Edward C. Levy 9300 Dix Ave DEARBORN MI 48120 US

11/7/2010 11/8/2010 ZZ411 Hollingsworth Logistics Management, LLC 14225 W Warren Dearborn MI 48126 US


11/7/2010 11/8/2010 ZZ418 IAC 5300 Auto Club Drive DEARBORN MI 48126 US

11/7/2010 11/8/2010 ZZ419 Imagination USA, Inc. 1537 Monroe St., Suite 100 Dearborn MI 48124 US

11/7/2010 11/8/2010 WJ409 Kelly Services 500 Town Center Dr., Suite 150 Dearborn MI 48126 US

11/7/2010 11/8/2010 ND562 Oakwood Healthcare System 23400 Michigan Ave., Ste. 229 Dearborn MI 48124 US

11/7/2010 11/8/2010 ZZ442 Kenwal Steel Corporation 8223 West Warren Avenue Dearborn MI 48126 US

11/7/2010 11/8/2010 NE882 Jackson Dawson Communications, Inc. 1 Parklane Boulevard Dearborn MI 48126 US

11/7/2010 11/8/2010 ZZ491 Midwestern Dental 5050 SCHAEFER ROAD Dearborn MI 48126 US

11/7/2010 11/8/2010 ZZ516 Norfolk Southern 17301 Michigan Ave., Ste. 230 Dearborn MI 48126 US

11/7/2010 11/8/2010 ZZ528 PCGCampbell 3200 Greenfield, Suite 280 Dearborn MI 48120 US

11/7/2010 11/8/2010 ZZ530 Performance Management, Inc. 1105 Washington Street Dearborn MI 48124 US

11/7/2010 11/8/2010 ZZ269 Applied Handling, Inc. 15200 Century Drive DEARBORN MI 48120 US

11/7/2010 11/8/2010 AD973 Ford Motor Company 1 American Road Dearborn MI 48126 US

11/7/2010 11/8/2010 ZZ300 ChannelNet 3 Parklane Blvd., 1600 West Dearborn MI 48126 US

11/7/2010 11/8/2010 ZZ303 Ciber, Inc. One Parklane Blvd., Ste. 1200 Dearborn MI 48126 US

11/7/2010 11/8/2010 ZZ588 Team Detroit 550 Town Center, 4th Flr DEARBORN MI 48126 US

11/7/2010 11/8/2010 ZZ595 The Henry Ford 20900 Oakwood Boulevard Dearborn MI 48121 US

11/7/2010 11/8/2010 ZZ323 Delaco Steel Corporation 8111 Tireman Ave Dearborn MI 48126 US

11/7/2010 11/8/2010 ZZ333 DFCU Financial 400 Town Center Drive Dearborn MI 48126 US

11/7/2010 11/8/2010 ZZ613 United Oakwood Providers LLC 330 Town Center Dr. #900 Dearborn MI 48126 US

11/7/2010 11/8/2010 ZZ637 Xperience Communications 3 Parklane Blvd., Suite 701W Dearborn MI 48126 US

11/7/2010 11/8/2010 HA445 Governor Business Solutions 15260 Commerce Drive South Dearborn MI 48120 US

11/7/2010 11/8/2010 ZZ366 Ford Authorized Distributors 16800 Executive Plaza, 2N424 Dearborn MI 48126 US

11/7/2010 11/8/2010 ZZ367 Ford E-Prescribing 15041 Commerce Dr S, Rotunda Ct 4 Dearborn MI 48120 US

11/7/2010 11/8/2010 HB968 Plastech Group 22000 Garrison Dearborn MI 48124 US

11/7/2010 11/8/2010 ZZ382 Ghafari Associates 17101 Michigan Avenue Dearborn MI 48126 US

11/7/2010 11/8/2010 AB558 Vista Maria 20651 West Warren Avenue DEARBORN HEIGHTS MI 48127 US

11/7/2010 11/8/2010 ZZ371 FTI 26600 Van Born Road DEARBORN HEIGHTS MI 48125 US

11/7/2010 11/8/2010 ZZ542 QQuest Corporation 26300 Ford Rd Suite 317 Dearborn Hts MI 48127 US

3/11/2011 11/8/2010 ZZ616 Urban Science Applications, Inc. 200 Renaissance Center, Suite 1800 Detroit MI 48243 US Jenny Mazag HR Associate 313-259-9900 313-262-3376 jamazag@urbanscience.com

12/7/2010 11/8/2010 ZZ330 University of Detroit Mercy 4001 West McNichols Road Detroit MI 48221-3038 US Juanita DeLoach Benefits Manager 313-993-1036 juanita.deloach@udmercy.edu

12/6/2010 11/8/2010 ZZ259 Albert Kahn Associates, Inc. 7430 Second Avenue Detroit MI 48202 US Katharine Dziurlikowski Human Resources 313-202-7609 katharine.dziurlikowski@akahn.com

12/8/2010 11/8/2010 ZZ249 Abbott, Nicholson P.C. 300 River Place, Suite 3000 Detroit MI 48207 US KIMBERLY WILSON ADMINSTRATOR 313-566-2500 kdwilson@abbottnicholson.com

11/7/2011 11/8/2010 WX945 Compuware Corporation One Campus Martius Detroit MI 48226 US Matt Rademaker QA Analyst 313-227-7899 matthew.rademaker@compuware.com

11/7/2010 11/8/2010 AB297 PVS Chemicals 10900 Harper Avenue DETROIT MI 48213 US Mike Bulatovic

12/29/2010 11/8/2010 ZZ494 Miller Canfield 150 W. Jefferson, Suite 2500 Detroit MI 48226 US Ronda Harris Office Manager 313.963.6420 313.496.7831 harris@millercanfield.com

1/3/2011 11/8/2010 ZZ467 Marketing Associates, LLC 777 Woodward Avenue, Suite 500 DETROIT MI 48226 US Stephanie Roseman Human Resources Manager 313-965-3000 sroseman@marketingassociates.com

11/7/2010 11/8/2010 ZZ407 Heritage Vision Plans 18984 Livernois Avenue Suite B Detroit MI 48221 US

11/7/2010 11/8/2010 XB123 Health Alliance Plan of MI 2850 West Grand Boulevard Detroit MI 48202 US

11/7/2010 11/8/2010 XB129 Comerica 411 W. Lafayette, MC 3106 Detroit MI 48226 US

11/7/2010 11/8/2010 ZZ412 Honigman Miller Schwartz & Cohn 2290 First Nat'l Bldg 660 Woodward Ave DETROIT MI 48226 US

11/7/2010 11/8/2010 XB131 Blue Cross Blue Shield 600 Laffayte , X609 Detroit MI 48226 US

11/7/2010 11/8/2010 ZZ431 Jenn Test 123 Test Lane DETROIT MI 48226 US

11/7/2010 11/8/2010 ZZ462 Magra, Inc. 6400 Mt. Elliott Detroit MI 48211 US

11/7/2010 11/8/2010 ZZ481 Michigan Opera Theatre 1526 Broadway Detroit MI 48226 US

11/7/2010 11/8/2010 WO260 Detroit Medical Center 3663 Woodward Avenue Suite 200,2-725 Detroit MI 48201 US

11/7/2010 11/8/2010 ZZ502 Motor City Casino 1922 Cass Avenue DETROIT MI 48226 US

11/7/2010 11/8/2010 ZZ505 MPS Group 2920 Scotten Detroit MI 48210 US

11/7/2010 11/8/2010 ZZ508 National Logistics Management Inc. 14320 Joy Road Detroit MI 48228 US

11/7/2010 11/8/2010 ZZ510 NES Rentals 910 South Dix Detroit MI 48217 US

11/7/2010 11/8/2010 ZZ511 New Technology Steel 12301 Hubbell Street Detroit MI 48227 US

11/7/2010 11/8/2010 ZZ536 PricewaterhouseCoopers 400 Renaissance Center Detroit MI 48243 US

11/7/2010 11/8/2010 ZZ261 Alliance Shippers 744 23rd Street Detroit MI 48216 US

11/7/2010 11/8/2010 XX199 Diversified Chemical Technologies, Inc. 15477 Woodrow Wilson Detroit MI 48238 US

11/7/2010 11/8/2010 ZZ547 Renaissance Global Logistics 4335 W. Fort St. DETROIT MI 48209 US

11/7/2010 11/8/2010 AD974 General Motors Corporation 100 Renaissance Center Detroit MI 48243 US

11/7/2010 11/8/2010 ZZ274 Artisan Associates, Inc. 14320 Joy Rd. Detroit MI 48228 US

11/7/2010 11/8/2010 AD980 Saab Automobile USA PO Box 33166 Detroit MI 48232 US

11/7/2010 11/8/2010 ZZ287 Bowne & Co., Inc. 610 West Congress Detroit MI 48226 US

11/7/2010 11/8/2010 ZZ566 Schreiber Corporation 2239 Fenkell Ave. Detroit MI 48238 US

11/7/2010 11/8/2010 WU248 Goodwill Industries 3111 Grand River. Ave. Detroit MI 48208 US

11/7/2010 11/8/2010 ZZ301 Choctaw-Kaul Distribution Co. 3540 Vinewood Ave Detroit MI 48208 US

11/7/2010 11/8/2010 XF452 Walbridge International, Inc. 613 Abbott Street Detroit MI 48226 US

11/7/2010 11/8/2010 WV323 Motor City Electric Co 9440 Grinnell Detroit MI 48213 US

11/7/2010 11/8/2010 WW358 American Axle & Manufacturing 1840 Holbrook Detroit MI 48212 US

11/7/2010 11/8/2010 ZZ593 The Bing Group 11500 Oakland Ave DETROIT MI 48211 US

11/7/2010 11/8/2010 ZZ320 DBM Technologies, LLC 220 West Congress- 5th Floor DETROIT MI 48226 US

11/7/2010 11/8/2010 ZZ324 Deloitte 600 Rennissance Center Suite 900 Detroit MI 48243 US

11/7/2010 11/8/2010 ZZ602 Tompkins Products 1040 W Grand Blvd DETROIT MI 48208 US

11/7/2010 11/8/2010 ZZ327 Detroit Chassis LLC 6501 Lynch Road DETROIT MI 48234 US

11/7/2010 11/8/2010 ZZ331 Detroit Symphony Orchestra 3711 Woodward Avenue Detroit MI 48201 US

11/7/2010 11/8/2010 ZZ339 DTE Energy 2000 Second Ave. Detroit MI 48226 US

11/7/2010 11/8/2010 ZZ627 VisionIT 3031 W Grand Blvd., Ste 695 Detroit MI 48202 US

11/7/2010 11/8/2010 QS167 Wayne State University 5700 Cass, Suite 3638 Detroit MI 48202 US

11/7/2010 11/8/2010 ZZ634 White - Olson, LLC. 1120 West Baltimore Detroit MI 48202-2906 US

11/7/2010 11/8/2010 ZZ368 Ford Field Management Company 2000 Brush St, Suite 200 Detroit MI 48226 US

11/7/2010 11/8/2010 ZZ376 Gallagher-Kaiser Corporation 13710 Mt. Elliott St. Detroit MI 48212 US

11/7/2010 11/8/2010 KL062 Henry Ford Health System 1 Ford Place Detroit MI 48202 US

12/7/2010 11/8/2010 ZZ332 Dexter Fastener Technologies, Inc. 2110 Bishop Circle East DEXTER MI 48130 US Dale Higham Human Resources Mgr 734 426-5200 dhigham@dextech.net

11/7/2010 11/8/2010 ZZ470 Martinrea International 2319 Bishop Circle East Dexter MI 48130 US

11/7/2010 11/8/2010 AE003 Willis Manufacturing, Inc. 5593 North Street Dryden MI 48428 US

11/7/2010 11/8/2010 ZZ335 Diamond Electric Mfg Corp 110 Research Parkway Dundee MI 48131 US

12/19/2010 11/8/2010 ZZ486 Michigan State Medical Society 120 West Saginaw Street East Lansing MI 48823 US Sherry Barnhart Director, Human Resources & Facilities 517-337-1351 517-336-5786 sbarnhart@msms.org

11/7/2010 11/8/2010 QS089 Michigan State University Faculty 1407 S. Harrison, Nisbet Bldg. East Lansing MI 48823 US

11/7/2010 11/8/2010 ZZ350 Engineered Machined Products, Inc. 3111 North 28th Street Escanaba MI 49829 US

12/7/2010 11/8/2010 ZZ359 Exotic Rubber & Plastics Co. 34700 Grand River Avenue Farmington MI 48335 US Amy Filarski HR Manager 248-477-2122 afilarski@erpc.com

11/7/2010 11/8/2010 XE453 Robert Bosch LLC 38000 Hills Tech Drive FARMINGTON MI 48331 US Laura Liggett

11/7/2010 11/8/2010 ZZ403 Henniges Automotive 36600 Corporate Drive FARMINGTON MI 48333 US

11/7/2010 11/8/2010 ZZ455 Logicalis, Inc. 34505 W. 12 Mile Road, Suite 210 FARMINGTON MI 48331 US

11/7/2010 11/8/2010 NL756 Amerisure Mutual Insurance 26777 Halsted Road FARMINGTON MI 48331 US

11/7/2010 11/8/2010 ZZ265 American Controls, Inc 20764 Whitlock Street FARMINGTON MI 48336 US

11/7/2010 11/8/2010 ZZ325 Design Systems Inc. 38799 W 12 Mile Rd FARMINGTON MI 48331 US

11/7/2010 11/8/2010 ZZ378 Gehring LP 24800 Drake Road FARMINGTON MI 48335 US

11/7/2010 11/8/2010 ZZ383 Giffin, Inc. 23093 Commerce Drive Farmington MI 48335 US

7/27/2011 11/8/2010 ZZ396 Harman International 39001 W. 12 Mile Rd. Farmington Hills MI 48331 US ALICE LARSEN HR ASSISTANT 248-994-2100 248-994-2792 ALICE.LARSEN@HARMAN.COM

12/15/2010 11/8/2010 NU262 GRACE & WILD, INC. 23689 Industrial Park Dr. Farmington Hills MI 48335 US Amy Weishuhn Marketing Coordinator 248.471.6010 aweishuhn@gracewild.com

11/30/2010 11/30/2010 NV651 SIRIUS 27200 Haggerty Road Suite B-5 Farmington Hills MI 48331 US Rodney Pickett 248-675-2327 248-675-2301 rodney.pickett@siriusxm.com


12/7/2010 11/8/2010 XB075 Jervis B. Webb Company 34375 W. 12 Mile Rd. Farmington Hills MI 48331 US Sunny Lapadat HR Assistant (248) 553-1000 slapadat@jerviswebb.com

5/20/2011 11/8/2010 ZZ556 RouteOne LLC 31500 Northwestern Hwy Ste 200 Farmington Hills MI 48334 US Tonya Stankov Sr. HR Supervisor 2488627054 2488627000 tstankov@routeone.com

11/7/2010 11/8/2010 ZZ447 Kramer Air Tool 23149 Commerce Drive Farmington Hills MI 48335 US

11/7/2010 11/8/2010 ZZ495 Minacs 34115 West 12 Mile Rd Farmington Hills MI 48331 US

11/7/2010 11/8/2010 ZZ500 MORPACE International, Inc. 31700 Middlebelt Rd Farmington Hills MI 48334 US

11/7/2010 11/8/2010 VL186 Cinetic Automation

RIETER AUTOMOTIVE SYSTEMS NORTH

23400 Halsted Road Farmington Hills MI 48335 US

11/7/2010 11/8/2010 ZZ551 AMERICA 38555 Hills Tech Drive FARMINGTON HILLS MI 48331 US

11/7/2010 11/8/2010 WT960 Akebono Brake Eng Center 34385 W. Twelve Mile Road Farmington Hills MI 48331 US

11/7/2010 11/8/2010 ZZ292 CalsonicKansei 27000 Hills Tech Crt Farmington Hills MI 48331 US

11/7/2010 11/8/2010 WW348 Wilson Group, Inc. 24565 Hallwood Court Farmington Hills MI 48335 US

11/7/2010 11/8/2010 ZZ317 Covansys 32605 West 12 Mile Road, Suite 250 Farmington Hills MI 48334 US

11/7/2010 11/8/2010 ZZ640 Zatkoff Seals & Packings 23230 Industrial Park Drive Farmington Hills MI 48335 US

11/7/2010 11/8/2010 ZZ390 Graphik Concepts Inc 23555 Research Blvd. Farmington Hills MI 48335 US

11/7/2010 11/8/2010 ZZ276 Atlas Technologies 201 South Alloy Drive Fenton MI 48430 US

11/7/2010 11/8/2010 ZZ318 Creative Foam Corporation 300 North Alloy Drive Fenton MI 48430 US

11/7/2010 11/8/2010 VS957 Gage Products Company 821 Wanda Ave Ferndale MI 48220 US

11/7/2010 11/8/2010 AD997 McLaren Health 401 South Ballenger Flint MI 48532 US

11/7/2010 11/8/2010 ZZ443 Kettering University Staff 1700 West Third Avenue Flint MI 48504 US

11/7/2010 11/8/2010 ZZ465 Manufacturers Equipment & Supply Co. 2401 Lapeer Road FLINT MI 48503 US

11/7/2010 11/8/2010 ZZ550 Richfield Industries 3020 Airpark Drive South Flint MI 48507 US

11/7/2010 11/8/2010 QC868 Hurley Medical Center One Hurley Plaza, Room 618 SON Flint MI 48503 US

11/7/2010 11/8/2010 XI292 Frankenmuth Mutual Insurance Company 1 Mutual Avenue Frankenmuth MI 48787 US

11/7/2010 11/8/2010 VX616 Jacobs Industries, Inc. 34675 Commerce Fraser MI 48026 US

11/7/2010 11/8/2010 WC229 Venture Industries P.O. Box 278,34501 Harper Fraser MI 48026 US

11/7/2010 11/8/2010 AD998 Mehra Tube, Inc. 10168 North Holly Road Grand Blanc MI 48439 US

11/7/2010 11/8/2010 ZZ380 Genesys Hospital One Genesys Parkway Grand Blanc MI 48439 US

11/7/2010 11/8/2010 ZZ275 ASIMCO Technologies 11118 US 31, Building A Grand Haven MI 49417 US

11/7/2010 11/8/2010 ZZ277 Automatic Spring Products Corporation 803 Taylor Avenue Grand Haven MI 49417 US

11/7/2010 11/8/2010 ZZ568 Shape Corporation 1900 Hayes Street Grand Haven MI 49417 US

11/7/2010 11/8/2010 ZZ389 Grand Haven Stamped Products 1250 South Beechtree Street Grand Haven MI 49417 US

2/25/2011 11/8/2010 XG484 Gordon Food Service 420 50th Street SW Grand Rapids MI 49548 US Chad Roberts Fleet Manager 616-530-7000 616-717-7982 chad.roberts@gfs.com

12/6/2010 11/8/2010 ZZ290 Burke Porter Machinery Company 730 Plymouth N.E. Grand Rapids MI 49505 US Gretchen Overbeek Human Resource Mngr 616-234-1200 616-234-1303 gretchen.overbeek@bepco.com

12/21/2010 11/8/2010 VH565 Lacks Enterprises 5460 Cascade Road SE Grand Rapids MI 49546 US Jenn Groendyke PR and Communication Specialist 6169567336 j.groendyke@lacksenterprises.com

4/8/2011 11/8/2010 ZZ554 RoMan Manufacturing, Inc. 861 47th St SW Grand Rapids MI 49509 US Melissa Iden Human Resources 616-530-8641 616-940-5707 miden@romanmfg.com

11/7/2010 11/8/2010 WJ669 Konica Minolta Graphic Imaging USA, Inc. 5800 Foremost Drive, Suite 310 Grand Rapids MI 49546 US

11/7/2010 11/8/2010 NI226 Universal Forest Products, Inc 2801 East Beltline Avenue, NE Grand Rapids MI 49525 US

11/7/2010 11/8/2010 VJ526 Spartan Stores, Inc. 850 76th Street S.W. Grand Rapids MI 49518 US

11/7/2010 11/8/2010 NN206 Paulstra CRC 460 Fuller N.E. Grand Rapids MI 49503 US

11/7/2010 11/8/2010 ZZ253 ADAC Automotive Inc. 5920 Tahoe Drive SE, PO Box 888375 Grand Rapids MI 49588-8375 US

11/7/2010 11/8/2010 ZZ255 Agility Health 560 5th St. NW Suite 404 Grand Rapids MI 49504 US

11/7/2010 11/8/2010 ZZ537 Priority Health 1231 East Beltline NE, MS2355 GRAND RAPIDS MI 49525 US

11/7/2010 11/8/2010 ZZ311 Compass Automotive Group 3559 KRAFT AVE SE GRAND RAPIDS MI 49512 US

11/7/2010 11/8/2010 ZZ312 Concept Industries 4950 Kraft Southeast Grand Rapids MI 49512 US

11/7/2010 11/8/2010 ZZ617 US Industries -Leon Plastics 4901 Clay Ave., P.O. Box 350 Grand Rapids MI 49501-0350 US

11/7/2010 11/8/2010 ZA712 Hoekstra Truck Equipment 260 36th Street Southeast Grand Rapids MI 49548 US

11/7/2010 11/8/2010 ZZ370 Frost Incorporated 2020 Bristol NW GRAND RAPIDS MI 49504 US

11/7/2010 11/8/2010 ZZ372 Fuel Systems Inc. 1950 Waldrof NW Ste A Grand Rapids MI 49544 US

11/7/2010 11/8/2010 ZZ393 H. S. Die & Engineering 0-215 Lake Michigan Drive Grand Rapids MI 49534 US

11/7/2010 11/8/2010 XJ270 Steelcase, Inc. 901 44th St., S.E. Grand Rapids MI 49508 US

11/7/2010 11/8/2010 ZZ361 Federal Broach & Machine Company, LLC. 1961 Sullivan Drive Harrison MI 48625 US

11/7/2010 11/8/2010 ZZ342 Dynamic Technology, Inc. 1200 North Old U.S. 23 Hartland MI 48353-0559 US

12/21/2010 11/8/2010 ZZ402 Helm Incorporated 14310 Hamilton Avenue Highland Park MI 48203 US Stacy Brewster Payroll and Benefits Admin 313 865-5000 313 733-3428 sbrewster@helminc.com

11/7/2010 11/8/2010 ZZ289 Budco 13700 Oakland Avenue Highland Park MI 48203 US

11/7/2010 11/8/2010 ZZ409 Hillsdale Community Health Center 168 South Howell Street Hillsdale MI 49242 US

11/7/2010 11/8/2010 ZZ410 Holland Community Hospital 602 Michigan Avenue Holland MI 49423 US

11/7/2010 11/8/2010 ZZ609 Trans-Matic Manufacturing Company, Inc. 300 East 48th Street Holland MI 49423 US

11/7/2010 11/8/2010 ZZ450 Laird Technologies 4360 Baldwin Rd Holly MI 48442 US

11/7/2010 11/8/2010 ZZ488 Michigan Technological Univ Faculty 1400 Townsend Houghton MI 49931 US

11/7/2010 11/8/2010 ZZ489 MidMichigan Health Services 9249 West Lake City Road Houghton Lake MI 48629 US

11/7/2010 11/8/2010 ZZ483 Michigan Rod Products 1326 Grand Oaks Drive Howell MI 48843 US

11/7/2010 11/8/2010 ZZ293 Carcoustics USA, Inc. 1400 Durant Dr HOWELL MI 48843 US

11/7/2010 11/8/2010 WD456 Ogihara America Corporation 1480 W. McPherson Park Drive Howell MI 48843 US

11/7/2010 11/8/2010 ZZ457 M and S Manufacturing Company 550 East Main Street Hudson MI 49247 US

11/7/2010 11/8/2010 NC091 Meridian Automotive Systems 14 N Beardsley Ionia MI 48846 US

11/7/2010 11/8/2010 ZZ288 Brown Corporation of America 401 South Steele Street Ionia MI 48846 US

11/7/2010 11/8/2010 ZZ459 Macsteel One Jackson Square #500 Jackson MI 49201 US

11/7/2010 11/8/2010 XX030 Alro Steel Corp 3100 East High Street Jackson MI 49204 US

11/7/2010 11/8/2010 ZZ305 CMS Energy - Consumers Energy 1 Energy Plaza Jackson MI 49201 US

11/7/2010 11/8/2010 ZZ365 Foote Hospital 1 Jackson Square, 9th Floor Jackson MI 49201 US

11/7/2010 11/8/2010 WG680 Dawn Food Products 3333 Sargent Rd. Jackson MI 49201 US

11/7/2010 11/8/2010 ZZ345 EaglePicher Hillsdale Automotive 651 Beck Street JONESVILLE MI 49250 US

11/7/2010 11/8/2010 ZZ424 Inter-Source Recovery 1470 S 8th Street Kalamazoo MI 49009 US

11/7/2010 11/8/2010 ZZ286 Borgess Health 1521 Gull Road Kalamazoo MI 49048 US

11/7/2010 11/8/2010 ZZ580 Stryker Corporation 2725 Fairfield Road Kalamazoo MI 49002 US

11/7/2010 11/8/2010 ZZ302 ChoiceOne P.O. 248 450 West Muskegon Kent City MI 49330 US

11/7/2010 11/8/2010 ZZ421 Industrial Metal Products Corp. 3417 W St Joseph Street Lansing MI 48917 US

11/7/2010 11/8/2010 XW900 Auto-Owners Insurance Co 6101 Anacapri Blvd LANSING MI 48917 US

11/7/2010 11/8/2010 ZZ573 Sparrow Health System 1215 East Michigan Avenue Lansing MI 48912 US

11/7/2010 11/8/2010 ZZ503 Motor Wheel 37770 Amrhein LIVONIA MI 48150 US

11/7/2010 11/8/2010 VL003 Roush Industries, Inc. 12447 Levan Livonia MI 48150 US

11/7/2010 11/8/2010 VL269 General Fasteners Co. 37584 Amrhein Road, Suite 150 Livonia MI 48150 US

11/7/2010 11/8/2010 XT015 Computer Methods Corporation 13740 Merriman Road Livonia MI 48150 US

11/7/2010 11/8/2010 ZZ524 Oxbow Machine Products, Inc. 12777 Merriman Road Livonia MI 48150 US

11/7/2010 11/8/2010 NQ559 Aristeo Construction Company 12811 Farmington Road Livonia MI 48150 US

11/7/2010 11/8/2010 ZZ256 Air Gage Company 12170 Globe Road Livonia MI 48150 US

11/7/2010 11/8/2010 ZZ263 Alpha Stamping Co. 33375 Glendale Livonia MI 48150 US

11/7/2010 11/8/2010 ZZ540 PSI Repair Services, Inc. 11878 Hubbard Livonia MI 48150 US

11/7/2010 11/8/2010 ZZ557 RS Electronics 34443 Schoolcraft Livonia MI 48150 US

11/7/2010 11/8/2010 ZZ291 C & B Machinery 12001 Globe Street Livonia MI 48150 US

11/7/2010 11/8/2010 ZZ610 TRW Automotive 12001 Tech Center Dr. Livonia MI 48150 US

11/7/2010 11/8/2010 ZZ625 Venus Controls 30105 West 8 Mile Road Livonia MI 48152 US

11/7/2010 11/8/2010 ZZ352 EPI Printers 13305 Wayne Rd Livonia MI 48150 US

11/7/2010 11/8/2010 ZZ356 EWI Worldwide 13211 Merriman Road Livonia MI 48150 US

11/7/2010 11/8/2010 WF807 Komatsu America Industries 14095 Farmington Road Livonia MI 48154 US

11/7/2010 11/8/2010 ZZ397 Harrison Piping 38777 Schoolcraft Road Livonia MI 48150 US


11/7/2010 11/8/2010 ZZ399 Health Management Systems of America 37625 Ann Arbor Road Suite 101 Livonia MI 48150 US

11/7/2010 11/8/2010 XJ279 Bartech Group 17199 N Laurel Park Dr 224 Livonia MI 48152 US

11/7/2010 11/8/2010 WN202 Madison Electric Company 31855 Van Dyke Avenue MACOMB MI 48044 US

11/7/2010 11/8/2010 ZZ406 Henze Stamping & Manufacturing 31650 Stephenson Hwy. Madison Heights MI 48071 US

11/7/2010 11/8/2010 WR674 McNaughton McKay Electric Co. 1401 E. Lincoln Ave. Madison Heights MI 48071 US

11/7/2010 11/8/2010 ZZ594 The EGT Group, Inc. 32031 Townley Madison Heights MI 48071 US

11/7/2010 11/8/2010 ZZ355 Evigna 800 Tech Row Madison Heights MI 48071 US

11/7/2010 11/8/2010 NH673 Manistique Papers, Inc. 453 South Mackinac Street Manistique MI 49854 US

11/7/2010 11/8/2010 ZZ564 Schefenacker 1855 Busha Highway Marysville MI 48040 US

11/7/2010 11/8/2010 ZZ381 Gestamp US HardTech, Inc. 200 Kipp Road Mason MI 48854 US

11/7/2010 11/8/2010 ZZ518 Northwood University Faculty 4000 Whiting Drive Midland MI 48640 US

11/7/2010 11/8/2010 XG749 Dow Chemical 2010 Dow Center Midland MI 48674 US

7/19/2011 11/8/2010 ZZ569 Sirius Satellite Radio 1100 Corporate Drive,Suite 310 Milford MI 48381 US Alex B HR Rep 6468227700 alex.b@siriusxm.com

11/7/2010 11/8/2010 ZZ490 Midway Products Group Inc 1 Lyman E Hoyt Drive, P.O. Box 737 Monroe MI 48161 US

11/7/2010 11/8/2010 ZZ572 Soaring Eagle Casino and Resort 6800 Soaring Eagle Boulevard Mount Pleasant MI 48858 US

11/7/2010 11/8/2010 ZZ583 SVS Vision, Inc 140 Macomb Mt. Clemens MI 48043 US

11/7/2010 11/8/2010 ZZ596 Thermo Formed Products, Inc. 1790 Sun Dolphin Drive Muskegon MI 49444-1833 US

12/6/2010 11/8/2010 ZZ520 Ogura Corporation 55025 Gratiot Ave NEW BALTIMORE MI 48051 US Andrew Wiest Accountant 586 749-1900 awiest@oguracorp.com

11/7/2010 11/8/2010 ZZ273 ARO Welding Technologies 48500 Structural Drive NEW BALTIMORE MI 48051 US

11/7/2010 11/8/2010 ZZ468 Martin Motor Sports LLC 55390 Lyon Industrial Drive NEW HUDSON MI 48165 US

11/7/2010 11/8/2010 KP165 Helen Newberry Joy Hospital 502 West Harrie Newberry MI 49868 US

12/8/2010 11/8/2010 ZZ496 Mitsubishi 15603 Centennial Drive Northville MI 48167 US Cheryl Crawford Human Resource Supervisor 7344536300 7343541053 ccrawford@meaa.mea.com

11/7/2010 11/8/2010 ZZ444 Key Plastics 21700 Haggerty Road, Suite 100 Northville MI 48167 US

11/7/2010 11/8/2010 ZZ590 Tecnomatix Technologies 21500 Haggerty Road, Ste. 300 Northville MI 48167 US

11/7/2010 11/8/2010 ZZ591 Teledata Technology Solutions 26999 Central Park Blvd Ste 300 NORTHVILLE MI 48167 US

11/7/2010 11/8/2010 XZ357 Hayes Lemmerz International Inc 15300 Centennial Drive Northville MI 48168 US

11/7/2010 11/8/2010 ZZ639 Z.F. Group NAO 15811 Centennial Drive Northville MI 48168 US

2/17/2011 11/8/2010 ZZ522 Omron Automotive Electronics, Inc. 29185 Cabot Drive Novi MI 48377 US Eppy Macksoud HR Coordinator 248-893-0227 eppy.macksoud@omron.com

12/6/2010 11/8/2010 AC076 Kongsberg Automotive 27275 Haggerty Road, Suite 610 Novi MI 48377 US Evelyn Szymanski Benefits/HRIS Administrator 248-468-1300 248-468-1309 evelyn.szymanski@ka-group.com

1/21/2011 11/8/2010 NV075 Cooper Standard 39550 Orchard Hill Place Drive Novi MI 48375 US Sara Anderson Web Designer 248-596-5900 260-925-0700 skanderson@cooperstandard.com

11/7/2010 11/8/2010 ZZ427 J. H. Bennett and Company, Inc. 22975 Venture Drive Novi MI 48376 US

11/7/2010 11/8/2010 ZZ432 Jernberg Industries 39475 13 Mile Rd., Suite 105 NOVI MI 48377 US

11/7/2010 11/8/2010 ZZ533 Preh Inc 28850 Cabot Drive, Ste 1300 NOVI MI 48377 US

11/7/2010 11/8/2010 ZZ304 Citation Corporation 27275 Haggerty, Suite 420 Novi MI 48377 US

11/7/2010 11/8/2010 ZZ604 Tower Automotive, Inc. 27275 Haggerty Road, Suite 680 Novi MI 48377 US

11/7/2010 11/8/2010 ZZ624 Vector CANtech, Inc. 39500 Orchard Hill Place, Suite 550 Novi MI 48375 US

11/7/2010 11/8/2010 ZZ394 Harada Industry of America, Inc. 22925 Ventura Drive Novi MI 48375 US

11/7/2010 11/8/2010 AD945 Bavarian Motor Transport 3681 Okemos Road Suite 500 Okemos MI 48864 US Dallas Knapp President Operations 517 349 3011 ext 2208 517 256 7645 dknapp@pmtghome.com

3/15/2011 3/7/2011 AE083 Precision Motor Transport Group, LLC 3681 Okemos Road Suite 500 Okemos MI 48864 US Scott McClure Director of Finance (517) 349-3011 (517) 827-2177 smcclure@pmtghome.com

11/7/2010 11/8/2010 XR938 Delta Dental - Okemos 4100 Okemos Road Okemos MI 48864 US

11/7/2010 11/8/2010 ZZ526 Parks Production, Ltd. 116 Premier Drive Orion MI 48359 US

11/7/2010 11/8/2010 ZZ527 PBR Automotive 140 Ellen Drive Orion Township MI 48359 US

11/7/2010 11/8/2010 ZZ475 Memorial Healthcare Center 826 West King Owosso MI 48867 US

11/7/2010 11/8/2010 ZZ385 Global Automotive Systems 401 East 5th Street Pinconning MI 48650 US

7/28/2011 11/8/2010 ZZ354 ePrize, LLC One ePrize Drive Pleasant Ridge MI 48069 US Liz Richards Receptionist. 2485436800 2485436800 liz.richards@ePrize.com

2/2/2011 11/8/2010 NR300 Metaldyne 47659 Halyard Drive Plymouth MI 48170 US Debbie McCarthy Benefits Manager 734-207-6755 734-207-6562 debbiemccarthy@metaldyne.com

12/7/2010 11/8/2010 ZZ453 Link Engineering Company 43855 Plymouth Oaks Blvd Plymouth MI 48170 US Karen Huckabone Office Manager 7344530800 k.huckabone@linkeng.com

12/21/2010 11/8/2010 XB249 Johnson Controls, Inc. 49200 Halyard Drive Plymouth MI 48170 US Michelle Barker HR Manager 734-254-7309 michelle.l.barker@jci.com

5/23/2011 11/8/2010 AC169 Brembo North America 47765 Halyard Drive Plymouth MI 48170 US Shawn Bowen HR Director 7344682105 7344682125 sbowen@us.brembo.com

11/30/2010 11/30/2010 AE016 FedEx 909 n. Sheldon Road Plymouth MI 48170 US Thomas Stambersky 734-697-1675 tfstambersky@fedex.xom

11/7/2010 11/8/2010 ZZ434 Johnson Electric Automotive Group 47660 Halyard Drive Plymouth MI 48170 US

11/7/2010 11/8/2010 ZZ437 Karmann USA, Inc. 15111 Keel Street Plymouth MI 48170 US

11/7/2010 11/8/2010 NL444 Durr Systems, Inc. 40600 Plymouth Road Plymouth MI 48170 US

11/7/2010 11/8/2010 ZZ498 Molded Materials, Inc. 44650 Helm Ct Plymouth MI 48170 US

11/7/2010 11/8/2010 ZZ254 ADVICS North America 45300 Polaris Court Plymouth MI 48170 US

11/7/2010 11/8/2010 WR725 Hella North America 43811 Plymouth Oaks Boulevard Plymouth MI 48170 US

11/7/2010 11/8/2010 ZZ560 Sanluis Rassini International 14500 Beck Road Plymouth MI 48170 US

11/7/2010 11/8/2010 NT713 Aisin 14920 Keel Street Plymouth MI 48170 US

11/7/2010 11/8/2010 WX466 TRAM, Inc. 47200 Port Street PLYMOUTH MI 48170 US

11/7/2010 11/8/2010 NZ699 National Steel Constructors 14650 Jib Street Plymouth MI 48170 US

11/7/2010 11/8/2010 ZZ623 Variation Reduction Solutions, Inc. 46999 Five Mile Road PLYMOUTH MI 48170 US

11/7/2010 11/8/2010 ZZ476 Metalworking Lubricants Company 25 W. Silverdome Ind. Park Pontiac MI 48342 US

11/7/2010 11/8/2010 ZZ258 Akzo Nobel , Inc. 120 Franklin Pontiac MI 48341 US

12/7/2010 11/8/2010 UH489 SEMCO Energy 1411 Third St, Ste A PORT HURON MI 48060 US Mary Beth Kramer Benefit Administrator (810) 887-4112 (800) 882-9449 mary.kramer@semcoenergy.com

11/7/2010 11/8/2010 ZZ464 MANN + HUMMEL USA, INC. 6400 S.Sprinkel Road Portage MI 49002 US

11/7/2010 11/8/2010 ZZ575 SPX 8001 Angling Road, Suite 2C Portage MI 49024 US

11/7/2010 11/8/2010 ZZ581 Summit Polymers, Inc. 6715 Sprinkle Road Portage MI 49002 US

12/8/2010 11/8/2010 ZZ531 Piston Automotive 12723 Telegraph Rd. REDFORD MI 48239 US Angela Harvey Human Resources Director (313) 541-8674 aharvey@pistongroup.com

11/7/2010 11/8/2010 ZZ415 Howard Ternes Packaging 12285 Dixie Street Redford MI 48239 US

11/7/2010 11/8/2010 ZZ316 Coupled Products, LLC 2910 Waterview Drive ROCHESTER MI 48309 US

12/6/2010 11/8/2010 ZZ561 Sanyo Machine America Corp 950 S. Rochester Rd Rochester Hills MI 48307 US Erney Brown Human Resources 248-651-5911 hr@sanyo-machine.com

11/7/2010 11/8/2010 ZZ504 MPI International, Inc 2129 Austin Avenue Rochester Hills MI 48309 US

11/7/2010 11/8/2010 ZZ247 A. Raymond, Inc. 3091 Research Drive Rochester Hills MI 48309 US

11/7/2010 11/8/2010 ZZ601 Tomkins,Trico, Gates 3255 West Hamlin Road Rochester Hills MI 48309 US

11/7/2010 11/8/2010 ZZ341 Dura Automotive Systems, Inc. 2791 Research Drive Rochester Hills MI 48309-3575 US

11/7/2010 11/8/2010 ZZ347 EEI Global, Inc. 1400 South Livernois Road Rochester Hills MI 48307 US

11/7/2010 11/8/2010 ZZ632 Webasto Roof Systems 1757 Northfield Drive Rochester Hills MI 48309 US

11/7/2010 11/8/2010 ZZ360 Fanuc USA Corp. 3900 W. Hamlin Road Rochester Hills MI 48309-3259 US

11/7/2010 11/8/2010 ZZ523 ON Minerals 1035 Calcite Road Rogers City MI 49779 US

11/7/2010 11/8/2010 WR272 L & L Products Inc 160 McLean Drive Romeo MI 48065 US

11/7/2010 11/8/2010 AD954 Expeditors International of Washington, Inc. 11101 Metro Airport Center Drive Suite 112 Romulus MI 48174 US Michelle Thompson Account Manager 734 857 5078 734 777 4516 michelle.thompson@expeditors.com

12/13/2010 11/8/2010 WX270 Transportation Services, Inc. 18165 Telegraph Road Romulus MI 48174 US Richard Hopper HR Manager 734-282-4444 rhopper@tsitrucks.com

11/7/2010 11/8/2010 ZZ620 UTi United States, Inc. 10725 Harrison Road, Ste 250 ROMULUS MI 48174 US

12/9/2010 11/8/2010 ZZ544 RCO Engineering, Inc. 29200 Calahan Road ROSEVILLE MI 48066 US Cliff Weyhing Manager of Human Resources 586-774-0100 586-771-8400 cliff.weyhing@rcoeng.com

11/7/2010 11/8/2010 ZZ260 All State Fastener Corporation 15460 12 Mile Road ROSEVILLE MI 48066 US

11/7/2010 11/8/2010 ZZ306 Colortech Graphics Inc 28700 Hayes Roseville MI 48066 US

11/7/2010 11/8/2010 ZZ337 Dominion Tool and Die Company, Inc. 15736 Sturgeon Roseville MI 48066 US

11/7/2010 11/8/2010 ZZ463 Management & Marketing Services, Inc. 28454 Woodward Avenue Royal Oak MI 48067 US

11/7/2010 11/8/2010 ZZ473 McDonough Engineering 225 East Hudson Royal Oak MI 48067 US

11/7/2010 11/8/2010 ZZ539 Progressive Stamping Company 2807 Samoset Royal Oak MI 48073 US

11/7/2010 11/8/2010 ZZ585 Synovate Motoresearch, Inc. 306 S Washington, Ste 500 ROYAL OAK MI 48067 US

11/7/2010 11/8/2010 XZ001 Newcor, Inc. 4850 Coolidge Hwy, Suite 100 Royal Oak MI 48073 US

11/7/2010 11/8/2010 ZZ369 FormTech Industries, LLC 2727 W 14 Mile Rd ROYAL OAK MI 48073 US

11/7/2010 11/8/2010 KN267 Beaumont Hospital 3601 West 13 Mile Road Royal Oak MI 48073 US

11/7/2010 11/8/2010 XJ278 B & K Corporation 5675 Dixie Highway Saginaw MI 48605 US


11/7/2010 11/8/2010 ZZ362 Federal Screw Works 20229 East Nine Mile Saint Clair Shores MI 48080 US

11/7/2010 11/8/2010 NH082 Lakeland Regional Health System 1234 Napier Avenue Saint Joseph MI 49085 US

11/7/2010 11/8/2010 ZZ428 JAC Products Inc 225 South Industral Saline MI 48176 US

11/7/2010 11/8/2010 ZZ452 Liebherr Gear Technology Inc. 1465 Woodland Drive Saline MI 48176 US

12/6/2010 11/8/2010 VJ540 Trelleborg Automotive/Dawson Manufact. 400 Aylworth Avenue South Haven MI 49090 US Tysha Gill Director of Human Resources 269-637-2116 tysha.gill@trelleborg.com

2/1/2011 11/8/2010 F048J Federal - Mogul Corporation 26555 Northwestern Hwy Southfield MI 48033-2146 US Gail Brow Manager, Fleet & GFAS Services 248 354-1806 gail.brow@federalmogul.com

12/21/2011 10/27/2011 AE118 GfK Custom Research 26555 Evergreen Road Suite 1530 Southfield MI 48076 US Gay Pawlak Office Manager (248) 204-1927 (248) 354-1121 gay.pawlak@gfk.com

12/5/2011 11/8/2010 AD938 R L Polk & Co. 26533 Evergreen Road Southfield MI 48076 US Greg Hathaway Manager, Communications 248-728-7000 greg_hathaway@polk.com

12/7/2010 11/8/2010 WQ151 Teksid, Inc. 21000 TELEGRAPH RD SOUTHFIELD MI 48033 US KAREN MCKINNON HUMAN RESOURCES MGR 248-624-3206 KAREN.MCKINNON@TEKSID.COM

4/4/2011 4/4/2011 AE091 Grede Holdings LLC 4000 Town Center Suite 500 Southfield MI 48075 US Krysten Hamel Director, Compensation & Benefits (248) 440-9500 248-440-9512 khamel@grede.com

11/7/2010 11/8/2010 AD994 Daxcon Engineering Inc 27777 Franklin Road, Suite 1570 Southfield MI 48034 US

11/7/2010 11/8/2010 ZZ429 Jaffe, Raitt, Heuer & Weiss 27777 Franklin Road, Suite 2500 SOUTHFIELD MI 48034 US

11/7/2010 11/8/2010 AE002 Value Options One Towne Square Suite 600 Southfield MI 48076 US

11/7/2010 11/8/2010 VG184 Lear Corporation 21557 Telegraph Road Southfield MI 48033 US

11/7/2010 11/8/2010 ZZ472 Mascon Global Limited 26911 Northwestern Hwy Ste 100 SOUTHFIELD MI 48033 US

11/7/2010 11/8/2010 ZZ477 MetLife 25300 Telegraph Rd Suite 580 Southfield MI 48034 US

11/7/2010 11/8/2010 AC493 WOW Green International LLC 1000 Town Center, Ste 2300 SOUTHFIELD MI 48075 US

11/7/2010 11/8/2010 ZZ493 Millennium Software Inc 2000 Town Center, Suite 300 Southfield MI 48075 US

11/7/2010 11/8/2010 XS254 Denso International America, Inc. 24777 Denso Drive, P.O. Box 5047 Southfield MI 48086-5047 US

11/7/2010 11/8/2010 ZZ509 Nemak, S.A. 26261 Evergreen, Suite 450 Southfield MI 48076 US

11/7/2010 11/8/2010 ZZ245 3 Point Machine, Inc. 26290 W. Eight Mile Road SOUTHFIELD MI 48033 US

11/7/2010 11/8/2010 ZZ521 Omni Facility Services 24300 Southfield Road Ste 220 Southfield MI 48075 US

11/7/2010 11/8/2010 ZZ250 Accenture 3000 Town Ctr Ste 2400 Southfield MI 48075 US

11/7/2010 11/8/2010 ZZ532 Plante Moran, PLLC 27400 Northwestern Highway Southfield MI 48037 US

11/7/2010 11/8/2010 ZZ257 Ajilon 3000 Town Center Dr Suite2600 Southfield MI 48075 US

11/7/2010 11/8/2010 ZZ535 Prestolite Wire Corporation 200 Galleria Officentre S212 Southfield MI 48034 US

11/7/2010 11/8/2010 ZZ543 R.L. Polk Company 26955 Northwestern Hwy Southfield MI 48033 US

11/7/2010 11/8/2010 ZZ552 Right Management 40 Oak Hollow, Suite 210 Southfield MI 48033 US

11/7/2010 11/8/2010 ZZ279 BASF 26701 Telegraph Road Southfield MI 48034 US

11/7/2010 11/8/2010 ZZ285 Blue Care Network 20500 Civic Center Drive MC440 Southfield MI 48076 US

11/7/2010 11/8/2010 ZZ577 SSI Technologies, Inc. 23077 Greenfield Road, Suite 470 Southfield MI 48075 US

11/7/2010 11/8/2010 ZZ582 Sverdrup Technology, Inc. 25650 11 Mile Road, Suite 100 Southfield MI 48034 US

11/7/2010 11/8/2010 ZZ307 Comau, Inc. 21000 Telegraph Road Southfield MI 48034 US

11/7/2010 11/8/2010 ZZ589 TechTeam Global 27335 West Eleven Mile Road Southfield MI 48034 US

11/7/2010 11/8/2010 ZZ605 Towers Perrin 1000 Town Center, Ste 950 SOUTHFIELD MI 48075 US

11/7/2010 11/8/2010 ZZ334 Di Clemente Siegel Design 28105 Greenfield Rd., Southfield MI 48076 US

11/7/2010 11/8/2010 ZZ338 Doner 25900 Northwestern Highway Southfield MI 48075 US

11/7/2010 11/8/2010 PA159 Peterson American Corporation 21200 Telegraph Road Southfield MI 48033 US

11/7/2010 11/8/2010 ZZ614 UNITED PAINT & CHEMICAL CORPORATION 24671 TELEGRAPH ROAD SOUTHFIELD MI 48033 US

11/7/2010 11/8/2010 WZ962 Barton Malow Company 26500 American Drive Southfield MI 48034 US

11/7/2010 11/8/2010 ZZ353 Epitec 24700 Northwestern Highway, Suite 350 SOUTHFIELD MI 48075 US

11/7/2010 11/8/2010 ZZ636 X-Cel Industries 21121 Telegraph Southfield MI 48034 US

11/7/2010 11/8/2010 ZZ374 Gail & Rice, Inc. 21301 Civic Center Drive Southfield MI 48076 US

11/7/2010 11/8/2010 ZZ387 Google, Inc 2000 Town Center, Suite 1900 SOUTHFIELD MI 48075 US

11/7/2010 11/8/2010 ZZ395 Harley Ellis Devereaux 26913 Northwestern Highway, Suite 200 SOUTHFIELD MI 48033 US

11/7/2010 11/8/2010 HC139 K&S Industrial Services 15677 Noeckeer Way SOUTHGATE MI 48195 US

1/7/2011 11/8/2010 ZZ448 KUKA Aktiengesellschaft 6600 Center Drive Sterling Heights MI 48312 US Jennifer Husby Director of Human Resources 586-795-2000 586-795-2000 jenny.husby@kukanao.com

11/7/2010 11/8/2010 WJ377 Key Safety Systems, Inc 7000 19 Mile Road Sterling Heights MI 48314 US

11/7/2010 11/8/2010 ZZ460 MAG Industrial Automation 13900 Lakeside Circle STERLING HEIGHTS MI 48313 US

11/7/2010 11/8/2010 XC759 General Dynamics 38500 Mound Sterling Heights MI 48310 US

11/7/2010 11/8/2010 ZZ555 Roncelli, Inc. 6471 Metro Parkway Sterling Heights MI 48312 US

11/7/2010 11/8/2010 ZZ608 Transform Automotive / Means Industries 7026 Sterling Ponds Court Sterling Heights MI 48312 US

11/7/2010 11/8/2010 ZZ343 E & R Industrial Sales 40800 Enterprise Drive Sterling Heights MI 48314 US

11/7/2010 11/8/2010 ZZ349 EMC2, Inc. 6855 19 Mile Road Sterling Heights MI 48314 US

11/7/2010 11/8/2010 HA732 Energy Products 6550 Sims Road STERLING HEIGHTS MI 48313 US

11/7/2010 11/8/2010 BX637 Grumman Olson Industries, Inc. P.O. Box 2005 Sturgis MI 49091 US

11/7/2010 11/8/2010 ZZ587 Tawas Industries, Inc. 905 Cedar Street Tawas City MI 48763 US

11/30/2010 11/30/2010 AE014 Chamberlin Marketing Group 12103 Delta Street Taylor MI 48180 US Jerry Mulligan 734-946-8005 ext493 734-946-6221 jmulligan@chamberlainmarketing.com

1/12/2011 11/8/2010 ZZ309 Commercial Group 12801 Universal Drive TAYLOR MI 48180 US Lori Hanks Human Resource 734-947-4000 lhanks@cglift.com

11/7/2010 11/8/2010 ZZ422 Innovative Logistics Group 9850 Pelham Rd TAYLOR MI 48180 US

11/7/2010 11/8/2010 ZZ471 Masco Corporation 21001 Van Born Road Taylor MI 48180 US

11/7/2010 11/8/2010 ZZ310 Commercial Group Lifting Products 12801 Universal Dr TAYLOR MI 48180 US

11/7/2010 11/8/2010 ZZ321 Dearborn Mid-West Conveyor 20334 Superior Road Taylor MI 48180 US

11/7/2010 11/8/2010 ZZ630 Watson Engineering, Inc. 16455 Racho Road Taylor MI 48180 US

11/7/2010 11/8/2010 ZZ375 Galaxy Transport, Inc. 20761 Northline Road Taylor MI 48180 US

11/7/2010 11/8/2010 AD993 Cyltec, LLC 5550 Occidental Highway Tecumseh MI 49286 US

11/7/2010 11/8/2010 VW509 Tecumseh Products 100 East Patterson ST Tecumseh MI 49286 US

11/7/2010 11/8/2010 ZZ299 Cequent Electrical Products 101 Spires Parkway Tekonsha MI 49092 US

12/6/2010 11/8/2010 VI319 Munson Health Care 1105 Sixth Street Traverse City MI 49684 US Tina Belanger HR Dept. Secretary 231-935-6490 231-935-6795 tbelanger@mhc.net

12/7/2010 11/8/2010 ZZ282 Behr America 2700 Daley Drive Troy MI 48083 US Jennifer Mensing Benefits Analyst 2487433700 jennifer.mensing@us.behrgroup.com

2/28/2011 11/8/2010 VO194 Delphi Corporation 5820 Delphi Dr. MC 480405328 Troy MI 48098 US Lesley Marcott HR Coordinator 248-813-1157 Lesley.L.Marcott@delphi.com

1/20/2011 11/8/2010 ZZ401 Heller Machine Tools, L.P. 1225 Equity Drive Troy MI 48084 US Mohan Joshi Controller 248-288-5000 mohan.joshi@heller.biz

6/14/2011 11/8/2010 VI133 Meritor, Inc. 2135 West Maple Road Troy MI 48084 US Norma Maxvill Vehicle Administrator 248-435-1070 norma.maxvill@meritor.com

12/15/2010 11/8/2010 AD996 Kostal of America 350 Stephenson Highway TROY MI 48083 US Robert Smolak H.R. Generalist 248-284-6500 248-284-6516 r.smolak@kostal.com

12/6/2010 11/8/2010 ZZ461 Magna International 600 Wilshire Troy MI 48084 US Scott Worden Manager, Corporate Communications and PR 248-729-2627 scott.worden@magna.com

11/7/2010 11/8/2010 ZZ414 HOV Services 1305 Stephenson Hwy TROY MI 48083 US

11/7/2010 11/8/2010 XJ945 ThyssenKrupp USA 3155 W. Big Beaver Road Troy MI 48084 US

11/7/2010 11/8/2010 ZZ436 Kamax GB Dupont, LP 500 West Long Lake Road Troy MI 48098 US

11/7/2010 11/8/2010 ZZ478 Metro Technologies Ltd 1462 East Big Beaver Troy MI 48083 US

11/7/2010 11/8/2010 ZZ480 Michigan Arc Products, Inc. 2040 Austin Troy MI 48083 US

11/7/2010 11/8/2010 NQ466 Oxford Automotive, Inc 5750 New King St Ste 200 Troy MI 48098 US

11/7/2010 11/8/2010 ZZ267 Ancor Information Management 1911 Woodslee Troy MI 48083 US

11/7/2010 11/8/2010 VU915 Magna Drivetrain 1650 Research Drive, Suite 300 Troy MI 48083 US

11/7/2010 11/8/2010 NS580 Schaeffler Group USA 1750 East Big Beaver Troy MI 48083 US

11/7/2010 11/8/2010 ZZ284 BI 3221 W Big Beaver Rd., Suite 304 Troy MI 48084 US

11/7/2010 11/8/2010 ZZ559 Sandy Corporation 1500 West Big Beaver Troy MI 48084 US

11/7/2010 11/8/2010 ZZ570 SKD Automotive Group 1450 West Long Lake suite 210 Troy MI 48098 US

11/7/2010 11/8/2010 ZZ295 CDI 1960 Research Drive 200 Troy MI 48083 US

11/7/2010 11/8/2010 ZZ571 SMW Automotive Corporation 3221 W. Big Beaver #110 Troy MI 48084 US

11/7/2010 11/8/2010 ZZ584 Synova 50 West Big Beaver, Ste. 460 Troy MI 48084 US

11/7/2010 11/8/2010 ZZ314 Continental Structural Plastics 755 West Big Beaver Road, Suite 700 TROY MI 48084 US

11/7/2010 11/8/2010 WB080 VPSI, Inc. 1220 Rankin Drive Troy MI 48083 US

11/7/2010 11/8/2010 ZZ592 Textron, Inc. 750 Stephenson Hwy. Troy MI 48083 US

11/7/2010 11/8/2010 ZZ606 Toyoda Gosei 1400 Stephenson Hwy Troy MI 48083 US


11/7/2010 11/8/2010 ZZ612 United Concordia Co Inc 3250 W Big Beaver Rd, Ste 327 TROY MI 48084 US

11/7/2010 11/8/2010 ZZ348 EFTEC North America, LLC 2710 Bellingham Drive Suite 100 Troy MI 48083 US

11/7/2010 11/8/2010 ZZ351 Engineering Technology Associates, Inc. 1133 E. Maple Road, Suite 200 Troy MI 48083 US

11/7/2010 11/8/2010 ZZ392 Grupo Antolin Irausa N.A. 1402 Rankin Troy MI 48083 US

11/7/2010 11/8/2010 ZZ497 MNP Corporation 44225 Utica Road Utica MI 48317 US

11/7/2010 11/8/2010 ZZ576 SPX Contach Steel Products 3160 Dallavo Court Walled Lake MI 48390 US

12/6/2010 11/8/2010 ZZ492 Milco Mfg. Company 2147 East 10 Mile Road Warren MI 48091 US Claudette Yagloski Human Resources 586-427-2425 586-755-7320 cyagloski@milcomfg.com

11/7/2010 11/8/2010 AD960 SPX Corporation 28635 Mound Rd Warren MI 48092 US Dustin Rutkowski Account Manager 586-578-7450 586-243-7342 dustin.rutkowski@servicesolutions.spx.com

12/6/2010 11/8/2010 ZZ296 CEC Controls Company 14555 Barber Avenue Warren MI 48088 US Mike Sobecki Quality Manager 586-859-2448 586-779-0222 msobecki@ceccontrols.com

11/7/2010 11/8/2010 ZZ456 Logistics Insight Corporation 12225 Stephens Road Warren MI 48089 US

11/7/2010 11/8/2010 XN273 Art Van Furniture 6500 14 Mile Road Warren MI 48092 US

11/7/2010 11/8/2010 ZZ466 Mariah Industries, Inc. 13125 East 8 Mile Road Warren MI 48089 US

11/7/2010 11/8/2010 ZZ506 MSX International 1950 Concept Dr Warren MI 48091 US

11/7/2010 11/8/2010 ZZ534 Prestige Stamping, Inc. 23513 Groesbeck Highway Warren MI 48089 US

11/7/2010 11/8/2010 ZZ298 Central Transport International, Inc. 12225 Stephens Warren MI 48089 US

11/7/2010 11/8/2010 ZZ578 St. John Oakland Hospital System 28000 Dequindre Warren MI 48092 US

11/7/2010 11/8/2010 ZZ599 TI Automotive 12345 East Nine Mile Road Warren MI 48090 US

11/7/2010 11/8/2010 ZZ615 Universal Truckload Services 11355 Stephens Road Warren MI 48089 US

11/7/2010 11/8/2010 ZZ618 US Manufacturing Corporation 28201 Van Dyke Avenue WARREN MI 48093 US

11/7/2010 11/8/2010 ZH347 QEK Global Solutions 7047 Murthum Avenue WARREN MI 48092 US

11/7/2010 11/8/2010 ZZ451 LakeShore Capital, LLC 7310 Highland Road Waterford MI 48327 US

11/7/2010 11/8/2010 ZZ558 Rush Trucking 35160 E Michigan Ave WAYNE MI 48184 US

11/7/2010 11/8/2010 ZZ425 Intra Corporation 885 Manufacturers Drive Westland MI 48186 US

11/7/2010 11/8/2010 PU257 Centurion Vehicles 69651 U.S. 131 South White Pigeon MI 49099 US

5/18/2011 11/8/2010 ZZ513 NGK Spark Plug Company Ltd. 46929 Magellan Wixom MI 48393 US Franchelle Thomas Assistant Manager Human Resources 248-926-6916 fthomas@ngksparkplugs.com

12/10/2010 11/8/2010 ZZ515 NLB Corporation 29830 Beck Road Wixom MI 48393 US Jayne Davis HR Manager 248-624-5555 nlbhr@nlbusa.com

12/6/2010 11/8/2010 ZZ438 Kawasaki Robotics (USA), Inc 28140 Lakeview Drive WIXOM MI 48393 US Julie MacIver HR Manager 248-446-4100 248-446-4222 julie.maciver@kri-us.com

11/7/2010 11/8/2010 AD995 Keykert Usa, Inc. 46940 Liberty Drive WIXOM MI 48393 US

11/7/2010 11/8/2010 NJ261 AFC - Holcroft 49630 Pontiac Trail Wixom MI 48393 US

11/7/2010 11/8/2010 ZZ538 Prodrive Engelhard LLC 30844 Century Drive Wixom MI 48393 US

11/7/2010 11/8/2010 ZZ268 Andersen and Associates 30575 Andersen Court Wixom MI 48393 US

11/7/2010 11/8/2010 ZZ344 Eagle Industries Inc 30926 Century Drive Wixom MI 48393 US

11/7/2010 11/8/2010 ZZ629 Wagon Automotive 28025 Oakland Oaks Court Wixom MI 48393 US

11/7/2010 11/8/2010 VN709 Gentex Corporation 600 North Centennial Street Zeeland MI 49464 US

11/7/2010 11/8/2010 XZ715 D H Blattner & Sons 400 County Road 50 Avon MN 56310 US

1/17/2012 11/8/2010 XB294 Andersen Corporation 100 Fourth Avenue North Bayport MN 55003 US Rita Knoll Corporate Fleet and Safety Manage 651-264-5469 rita.knoll@andersencorp.com

11/7/2010 11/8/2010 WG746 Andersen Corporation 100 Fourth Avenue North Bayport MN 55003 US

11/7/2010 11/8/2010 UH622 Beltrami Electric Co Op 4111 Technology Drive NW BEMIDJI MN 56601 US

11/7/2010 11/8/2010 WM215 Ziegler 901 W 94th Street Bloomington MN 55420 US

11/7/2010 11/8/2010 VU257 Toro 8111 Lyndale Avenue South Bloomington MN 55420 US

11/7/2010 11/8/2010 ZZ644 Health Partners Inc. 8100 34th Avenue S Bloomington MN 55425 US

11/7/2010 11/8/2010 XJ358 Braun Intertec 11001 Hampshire Avenue Bloomington MN 55438 US

11/7/2010 11/8/2010 ZZ647 Paisley Consulting Inc 400 Cokato Street East Cokato MN 55321 US

11/7/2010 11/8/2010 XB352 Integris Metals 455 85th Avenue N.W. Coon Rapids MN 55433 US

11/7/2010 11/8/2010 XC413 Patterson Dental Company 2930 Waters Road Eagan MN 55121 US

11/7/2010 11/8/2010 XY604 Buffets, Inc. 1460 Buffet Way Eagan MN 55121 US

11/7/2010 11/8/2010 XG618 Opus Corp 3306 Mike Collins Drive Eagan MN 55121 US

11/7/2010 11/8/2010 ZZ651 Transport America 1715 Yankee Doodle Road Eagan MN 55121 US

11/7/2010 11/8/2010 VM791 GE Capital 3 Capital Drive EDEN PRAIRIE MN 55344 US Geliene Heilman

2/21/2011 11/8/2010 ZZ649 Phillips & Temro Industries 9700 W. 74th Street EDEN PRAIRIE MN 55344 US Jennifer Henry Human Resource Generalist 952-918-8684 jhenry@phillipsandtemro.com

11/7/2010 11/8/2010 WL875 EA Sween Company 16101 West 78th Street Eden Prairie MN 55344 US

11/7/2010 11/8/2010 ZZ646 MTS Systems Corporation 14000 Technology Drive Eden Prairie MN 55344 US

8/2/2011 11/8/2010 WQ039 Regis Corporation 7201 Metro Boulevard Edina MN 55439 US Nancy Barlage Fleet Manager 952-806-1714 952-947-7777 nancy.barlage@regiscorp.com

11/7/2010 11/8/2010 XB347 The Mentor Network 6921 York Ave South Edina MN 55435 US

11/7/2010 11/8/2010 WN182 ATK 5050 Lincoln Drive Edina MN 55436 US

11/7/2010 11/8/2010 ZZ652 United Taconite LLC 1200 W. Highway16 General Offi Forbes MN 55738 US

11/7/2010 11/8/2010 BA513 Waldoch Crafts 13821 Lake Drive Forest Lake MN 55025 US

11/7/2010 11/8/2010 NN729 Hearth Home Technologies 20802 Kensington Blvd. Lakeville MN 55044 US

11/7/2010 11/8/2010 XR781 Schwan's Food Company 115 West College Drive MARSHALL MN 56258 US

12/17/2010 11/8/2010 AD991 Bowman and Brooke LLP 150 South 5th Street, Suite 300 Minneapolis MN 55402 US Barry Toone Partner 612-672-3224 612-339-8682 barry.toone@bowmanandbrooke.com

3/4/2011 2/8/2011 AE034 US Bank 800 Nicollet Mall, BC-MN-H17B Minneapolis MN 55402 US Bill Picha Engagement Consultant 612-303-7678 william.picha@usbank.com

4/20/2011 11/8/2010 XX188 M A Mortensen 700 Meadow Lane N Minneapolis MN 55422 US Dale Walker Fleet Coordinator 763-287-5825 dale.walker@mortenson.com

12/22/2010 11/8/2010 AC455 Haberman & Associates 430 First Ave. North #216 Minneapolis MN 55401 US Fred Haberman Co-Founder 612-338-3900 612-372-6440 fred@habermaninc.com

11/7/2010 11/8/2010 WB593 Best Buy Co, Inc. 7601 Penn Ave South MINNEAPOLIS MN 55423 US Kathy Atwil

5/11/2011 11/8/2010 XB348 General Mills, Inc. One General Mills Boulevard MINNEAPOLIS MN 55426 US Kathy Rasche Fleet Coordinator 763-764-6812 kathy.rasche@genmills.com

12/6/2010 11/8/2010 XB351 Tennant Company PO Box 1452 MD#76 Minneapolis MN 55422 US Stuart Olson Fleet Manager 763-513-2167 Stuart.Olson@tennantco.com

1/17/2011 11/8/2010 XQ931 Valspar Corporation PO Box 1461 MINNEAPOLIS MN 55440 US Virginia Kodet Fleet Manager 612-851-7000 vkodet@valspar.com

11/7/2010 11/8/2010 WL106 Parsons Electric 5960 Main Street NE Minneapolis MN 55432 US

11/7/2010 11/8/2010 WN106 Donaldson Company, Inc. PO 1299 1400 55440 W 94th St Minneapolis MN 55431 US

11/7/2010 11/8/2010 NX994 Covalence Specialty Materials Corp. 1401 West 94th Street Minneapolis MN 55431 US

11/7/2010 11/8/2010 WY114 Pentair 5500 WAYZATA BLVD, STE 800 MINNEAPOLIS MN 55416 US

11/7/2010 11/8/2010 ZZ641 Benfield Inc 3600 American Blvd W, Suite 700 MINNEAPOLIS MN 55431 US

11/7/2010 11/8/2010 ZZ645 Integrated Suppliers Alliance 1050 33rd Avenue Southeast Minneapolis MN 55414 US

11/7/2010 11/8/2010 VB836 G & K Services 5995 Opus Parkway Minnetonka MN 55343 US

11/7/2010 11/8/2010 WN092 Carlson Companies 701 Carlson Parkway, MS#8246 Minnetonka MN 55305 US

11/7/2010 11/8/2010 XC776 Cooperative Resources International 412 4th Avenue North West New Prague MN 56071 US

11/7/2010 11/8/2010 NB501 New Age Cable 5232 Glenbrook Avenue North Oakdale MN 55128 US

2/1/2011 11/8/2010 XY913 Federated Mutual Insurance 121 E Park Square Owatonna MN 55060 US Steve Erdman Office Services Manager 5074555331 5074555200 soerdman@fedins.com

11/7/2010 11/8/2010 ZZ642 Cannon Equipment 15100 Business Parkway Rosemount MN 55068 US

2/23/2011 11/8/2010 XB298 Ecolab Inc. 370 Wabasha St North Saint Paul MN 55102 US Gayle Pratt Director, Global Fleet 6512932256 gayle.pratt@ecolab.com

12/6/2010 11/8/2010 MM003 3M 3M Center Building, 2251N20 SAINT PAUL MN 55144 US Theresa Hanestad Coordinator 651-733-0151 tahanestad@mmm.com

11/7/2010 11/8/2010 WP285 Marsden Bldg Maintenance 1717 University Avenue West Saint Paul MN 55104 US

11/7/2010 11/8/2010 WV115 Quality Restoration Services 3066 Spruce St SAINT PAUL MN 55117 US

11/7/2010 11/8/2010 XX668 Interplastic 1225 Willow Lake Blvd St Paul MN 55110 US

11/7/2010 11/8/2010 ZZ650 TPi A Wilbert Co 4221 Otter Lake Rd St Paul MN 55110 US

5/16/2011 11/8/2010 XB304 Land O Lakes, Inc. PO Box 64101 St. Paul MN 55164 US Vic Bowman Fleet Manager 651-481-2880 651-481-2868 vabowman@landolakes.com

11/7/2010 11/8/2010 NS421 MedAssets 917 Kiefer Ridge Dr BALLWIN MO 63021 US

11/7/2010 11/8/2010 XC937 Leggett & Platt, Inc. 1 Leggett Road Carthage MO 64836 US

11/7/2010 11/8/2010 WB608 Insituform Technologies 17988 Edison Avenue Chesterfield MO 63005 US

11/7/2010 11/8/2010 ZZ674 National Corn Growers Assoc 632 Cepi Dr CHESTERFIELD MO 63005 US

11/7/2010 11/8/2010 WA569 Hilty Quarries, Inc. 190 NW 251 Road, P.O. Box 407 Clinton MO 64735 US

11/7/2010 11/8/2010 XB598 Shelter Mutual Insurance Company 1817 Broadway Columbia MO 65218 US Travis King

11/7/2010 11/8/2010 ZZ678 Reuters America 717 Office Parkway Creve Coeur MO 63141 US

11/7/2010 11/8/2010 WI895 Forest Pharmaceuticals 13600 Shoreline Drive Earth City MO 63045 US

3/13/2011 11/8/2010 WG269 Maritz Inc. 1375 North Highway Drive Fenton MO 63099 US


11/7/2010 11/8/2010 ZZ680 Siegel Robert, Inc. 240 Larkin Williams Industrial Court FENTON MO 63026 US

11/7/2010 11/8/2010 XD271 Covidien 675 McDonnell Blvd, EC-6 Hazelwood MO 63042 US

11/7/2010 11/8/2010 AA332 BBC Electric 303 E 4th Street JOPLIN MO 64801 US

12/9/2010 11/8/2010 WJ998 LICO Inc./Automatic Systems, Inc. 9230 East 47th Street Kansas City MO 64133 US Chris Brown H.R. Manager 810-225-3316 Chris.Brown@asi.com

2/9/2011 11/8/2010 VB283 Murphy-Hoffman Company 1524 N. Corrington Kansas City MO 64120 US Cori Deaton Benefit Specialist 816-483-6444 877-405-9972 cori.deaton@mhctruck.com

1/27/2011 11/8/2010 XB583 Hallmark Cards 25th & McGee MD 108 Kansas City MO 64108 US Debbie Mize Fleet Manager 816-274-5466 816-274-4288 dmize1@hallmark.com

5/17/2011 11/8/2010 ZZ666 Blue Cross Blue Shield Kansas City 2301 Main, Mail Stop A4A1 Kansas City MO 64108 US SHARI KENNEDY HR BENEFITS ADMINISTRATOR 816-395-3275 816-395-2724 shari.kennedy@bluekc.com

12/8/2010 11/8/2010 VK389 Haldex Brake Products 10930 North Pomona Avenue Kansas City MO 64613 US Yvonne Marrero HR Specialist 816-801-2133 816-801-4143 yvonne.marrero@haldex.com

11/7/2010 11/8/2010 UH339 Kansas City Power & Light 1201 Walnut Street, 14th Floor Kansas City MO 64106 US

11/7/2010 11/8/2010 XL774 Interstate Bakeries Corporation 12 East Armour Kansas City MO 64111 US

11/7/2010 11/8/2010 XB578 Clarkson Construction Co 4133 Gardner Avenue Kansas City MO 64120 US

11/7/2010 11/8/2010 WL959 Fairbanks Scales Inc. 821 Locust Kansas City MO 64106 US

11/7/2010 11/8/2010 XU561 Massman Construction Co 8901 State Line KANSAS CITY MO 64114 US

11/7/2010 11/8/2010 XW844 J.E. Dunn Construction 929 Holmes Street Kansas City MO 64106 US

11/7/2010 11/8/2010 NR453 MULTIVAC 11021 N.W. Pamona Ave Kansas City MO 64153 US

11/7/2010 11/8/2010 WS765 Kansas City Southern Railway P.O. Box 219335 Kansas City MO 64121 US

11/7/2010 11/8/2010 VW232 DST Systems, Inc. 333 W. 11th. St. 3rd Floor Kansas City MO 64105 US

11/7/2010 11/8/2010 XZ209 Bluescope Steel North America 1540 Genessee Street Kansas City MO 64102 US

11/7/2010 11/8/2010 UH008 Southern Union Co. Inc. 3420 Broadway Kansas City MO 64111 US

11/7/2010 11/8/2010 ZZ675 Nitto Denko Automotive 8485 Prospect Avenue Kansas City MO 64132 US

11/7/2010 11/8/2010 ZZ679 Shook, Hardy & Bacon L.L.P. 2555 Grand Blvd. KANSAS CITY MO 64108 US

11/7/2010 11/8/2010 WH938 CES Inc. 3 Northeast Victoria Drive Lees Summit MO 64086 US

11/7/2010 11/8/2010 XB841 Ferrellgas One Liberty Plaza, MD 6 Liberty MO 64068 US

11/7/2010 11/8/2010 BA082 Osage Industries, Inc. 194 Twin Ridge Road Linn MO 65051 US

11/7/2010 11/8/2010 ZZ672 Magellan Health Services Inc 14100 Magellan Plaza Maryland Heights MO 63043 US

11/7/2010 11/8/2010 ZZ676 Orscheln Products, LLC. 2000 US Hwy 63 South Moberly MO 65270 US

11/7/2010 11/8/2010 WV073 EE Newcomer 1142 Clays Street North Kansas City MO 64116 US

6/20/2011 11/8/2010 UH195 Ameren 1901 Chouteau MC533 Saint Louis MO 63103 US Chris Chamaoun Benefit Analyst 314-206-1623 cchamaoun@ameren.com

11/7/2010 11/8/2010 XB421 Patriot Coal Corporation 12312 Olive Blvd. SAINT LOUIS MO 63141 US

11/7/2010 11/8/2010 XB549 Anheuser-Busch Companies, Inc One Busch Place SAINT LOUIS MO 63118 US

11/7/2010 11/8/2010 XB552 McCarthy Building Companies, Inc. 1341 N Rock Hill Rd SAINT LOUIS MO 63124 US

11/7/2010 11/8/2010 XB556 Monsanto Company 800 N. Lindbergh Saint Louis MO 63167 US

11/7/2010 11/8/2010 XE008 Peabody Holding 301 North Memorial Drive Saint Louis MO 63102 US

11/7/2010 11/8/2010 XX962 Alberici Construction, Inc. 2150 Kienlen Avenue SAINT LOUIS MO 63114 US

11/7/2010 11/8/2010 UH129 Laclede Gas 720 Olive Street, Room 824 Saint Louis MO 63101 US

11/7/2010 11/8/2010 XW466 O'Reilly Auto Parts 233 South Patterson Springfield MO 65802 US

11/7/2010 11/8/2010 ZZ667 Dabryan Coachbuilders 4707 E. Kearney Springfield MO 65806 US

11/7/2010 11/8/2010 LC025 Executive Coachbuilders 4400 Production Street Springfield MO 65803 US

11/7/2010 11/8/2010 LC135 Springfield Coach, Ind. 1903 North Barnes Ave Springfield MO 65803 US

11/7/2010 11/8/2010 ZZ681 Systems & Services Technologies 4315 Pickett Road St Joseph MO 64503 US

11/7/2010 11/8/2010 XY202 Emerson 8000 West Florissant Ave St Louis MO 63136 US Kim Reinkemeyer

11/7/2010 11/8/2010 XY829 Eveready 533 Maryville University Drive St Louis MO 63141 US Lynn Fee

11/7/2010 11/8/2010 WZ144 Barry-Wehmiller 8020 Forsyth Blvd St Louis MO 63105 US Susan Reynold

11/7/2010 11/8/2010 XN759 Bunzl Distribution USA, Inc. 701 Emerson Road, Suite 500 St Louis MO 63141 US

11/7/2010 11/8/2010 TP086 AT&T Services 1010 Pine Street St Louis MO 63101 US

12/8/2010 11/8/2010 XG853 Herzog Contracting Corporation 600 South Riverside Road St. Joseph MO 64507 US Kamara Roach Director of Employee Development & Benefits 8162339001 kroach@herzogcompanies.com

11/7/2010 11/8/2010 ER001 Enterprise RAC 600 Corporate Park Drive St. Louis MO 63105 US Barbara Scott

3/10/2011 11/8/2010 VM230 Suddenlink Communications 12444 Powerscurt Drive 100 St. Louis MO 63131 US Matt Cates Fleet Administrator 314-315-9363 matt.cates@suddenlink.com

11/7/2010 11/8/2010 XB189 The Earthgrains Company 8400 Maryland Avenue St. Louis MO 63105 US

11/7/2010 11/8/2010 XB557 Graybar Electric 34 N. Meramec Avenue St. Louis MO 63105 US

11/7/2010 11/8/2010 NJ101 Arch Coal 1 City Place Drive, Suite 300 St. Louis MO 63141 US

11/7/2010 11/8/2010 FX022 Solutia, Inc. 575 Maryville Centre Drive St. Louis MO 63141 US

11/7/2010 11/8/2010 XH778 Pepsi Americas 1 Union 70 Center Drive St. Louis MO 63121 US

11/7/2010 11/8/2010 NQ378 Southern Tire Mart 529 Industrial Park Road Columbia MS 39429 US

11/7/2010 11/8/2010 XX267 Atlas Roofing Corp 802 Highway 19 North, Ste. 190 Meridian MS 39301 US

11/7/2010 11/8/2010 WV169 Atlas Roofing Corporation 802 Highway 19 North, Ste. 190 Meridian MS 39301 US

11/7/2010 11/8/2010 XH453 Plum Creek 500 12th Avenue West 19912 Columbia Falls MT 59912 US

11/7/2010 11/8/2010 WW903 Stillwater Mining 536 East Pike Avenue, P.O. Box 1330 Columbus MT 59019 US

11/7/2010 11/8/2010 NQ778 ELM Locating 4500 Majestic Drive Missoula MT 59808 US

11/7/2010 11/8/2010 ZZ784 Wilbert Plastic Services 2001 Oaks Parkway BELMONT NC 28012 US

11/7/2010 11/8/2010 ZZ778 LabCorp 458 South Main Street Burlington NC 27215 US

12/13/2011 12/12/2011 XD338 ABB Business Services 12040 Regency Parkway Cary NC 27518 US Margaret Crowley Supply Manager (919) 856-2360 margaret.crowley@us.abb.com

11/7/2010 11/8/2010 XP973 Coca Cola Bottling Consolidated 4100 Coca Cola Plaza Charlotte NC 28211 US Dave Greenburg

2/8/2011 11/8/2010 WO239 Hearst Corporation 214 N TRYON STREET CHARLOTTE NC 28202 US KIRK BUDHAI FLEET MANAGER 704-348-8121 KBUDHAI@HEARSTSC.COM

1/25/2011 11/8/2010 NZ300 Husqvarna Professional Outdoor Products 9335 Harris Corners Pkwy., Suite 500 CHARLOTTE NC 28269 US Rob Cambruzzi Fleet Manager 704-921-6835 rob.cambruzzi@husqvarna.com

3/30/2011 11/8/2010 XB502 Compass Group 2400 Yorkmont Road Charlotte NC 28217 US

11/7/2010 11/8/2010 UH202 Piedmont Natural Gas 4720 Piedmont Row Dr. Charlotte NC 28210 US

11/7/2010 11/8/2010 XK393 Southern Pump & Tank 4800 Graham Street Charlotte NC 28269 US

11/7/2010 11/8/2010 ZZ769 Charlotte Bobcats 333 East Trade St CHARLOTTE NC 28269 US

11/7/2010 11/8/2010 ZZ783 Tesa Tape Inc 5825 Carnegie Blvd Charlotte NC 28209 US

11/7/2010 11/8/2010 WN255 Clariant 4000 Monroe Road Charlotte NC 28205 US

11/7/2010 11/8/2010 XR040 Cato Corporation 8100 Denmark Road Charlotte NC 28273 US

11/7/2010 11/8/2010 AC704 AMERICAN FOREST MANAGEMENT INC 2401 WHITEHALL PARK DRIVE SUITE 1100 CHARLOTTE NC 28273 US

11/7/2010 11/8/2010 AD677 Chiron America Inc. 10950 Withers Cove Park Dr CHARLOTTE NC 28278 US

11/7/2010 11/8/2010 NM826 Enpro 5605 Carnegie Blvd. Charlotte NC 28209 US

11/7/2010 11/8/2010 XD128 Bank of America 101 S. Tryon St. NC1-022-10-12 Charlotte NC 28255 US

11/7/2010 11/8/2010 WQ337 Carolina Handling, LLC. 3101 Piper Lane Charlotte NC 28208 US

11/7/2010 11/8/2010 BA142 COOK TRUCK EQUIPMENT AND TOOLS, INC 3701 HARLEE AVENUE CHARLOTTE NC 28208 US

11/7/2010 11/8/2010 WB534 National Gypsum 2001 Rexford Rd CHARLOTTE NC 28211 US

11/7/2010 11/8/2010 XA616 Barloworld Handling 440 E Westinghouse Blvd CHARLOTTE NC 28273 US

11/7/2010 11/8/2010 UH090 Duke Energy Company 526 South Church Street Charlotte NC 28202 US

11/7/2010 11/8/2010 NW918 Talecris Biotherapeutics 8368 US70 Business Highway West Clayton NC 27520 US Colleen Bennett

4/17/2011 11/8/2010 WH001 Ingersoll-Rand, Inc. 800-E Beaty St. Davidson NC 28036 US Jessica DeBerry Fleet Manager 7046554832 jessica_deberry@irco.com

11/7/2010 11/8/2010 NX385 IR Construction Dealers 800 A Beaty Street Davidson NC 28036 US

12/6/2010 11/8/2010 QS092 Duke University & Health System 705 Broad Street, Room 201, Box 90520 Durham NC 27708 US Kathy Dury Sr. Program Coordinator 919-684-9040 kathy.dury@duke.edu

12/7/2010 11/8/2010 WN224 biomerieux Inc 100 Rodolphe Durham NC 27712 US Kathy Martin Travel and Fleet Manager 919-620-2000 314-731-8500 kathy.martin@biomerieux.com

11/7/2010 11/8/2010 NR017 Inspire Pharmaceuticals, Inc 4222 Emperor Blvd., Suite 200 Durham NC 27703 US Stacy Eley

11/7/2010 11/8/2010 ZZ772 Custom Molders, Inc. 1731 Camden Ave. Durham NC 27704 US

11/7/2010 11/8/2010 XG118 Bowe, Bell & Howell 3791 S. Alston Ave Durham NC 27713 US

11/7/2010 11/8/2010 XZ708 Clegg's Termite and Pest Control 2401 Reichard Street Durham NC 27705 US

12/7/2010 11/8/2010 NJ926 Merz Pharmaceuticals LLC 4215 Tudor Lane GREENSBORO NC 27410 US Bryant Garner Fleet Administrator 336-217-2428 bgarner@merzusa.com

12/20/2010 11/8/2010 VZ835 Volvo Group North America 7900 National Service Road Greensboro NC 27409 US Eanne Gillon Benefits Process & Delivery Manager 336-393-3817 eanne.gillon@volvo.com

12/8/2010 11/8/2010 WL790 Brady Services 1915 North Church Street Greensboro NC 27405 US Edmond Schwartzel Fleet Mgr 3365106467 3363780670 ed.schwartzel@bradyservices.com


1/18/2011 11/8/2010 XE875 Lorillard Tobacco Co. 714 Green Valley Road GREENSBORO NC 27408 US Fred McKinnon Director, Fleet Operations and Travel 336-335-7158 336-335-7160 fmckinnon@lortobco.com

11/7/2010 11/8/2010 VK306 D.H. Griffin Wrecking 4700 Hilltop Road Greensboro NC 27407 US Lee London

11/7/2010 11/8/2010 AD955 Volvo Information Technology, NA 7825 National Service Rd, AP2-47 Greensboro NC 27409 US Stuart Lennie President 336-393-3503 stuart.lennie@volvo.com

11/7/2010 11/8/2010 ZZ776 Greensboro Auto Auction 3907 West Wendover Avenue Greensboro NC 27407 US

11/7/2010 11/8/2010 ZZ780 North Carolina A & T State Univ Faculty 1601 EAST MARKET STRET Greensboro NC 27411 US

11/7/2010 11/8/2010 ZZ781 Purolator Courier 8439 Triad Greensboro NC 27409 US

11/7/2010 11/8/2010 NM230 Syngenta Crop Protection P.O. 18300 Greensboro NC 27419 US

11/7/2010 11/8/2010 ZZ774 DSM 5900 N.W. Greenville Blvd Greenville NC 27834 US

11/7/2010 11/8/2010 ZZ779 NACCO Materials Handling Group 1400 Sullivan Drive Greenville NC 27834 US

11/7/2010 11/8/2010 NE917 SELEE Corporation 700 Shepherd Street Hendersonville NC 28792 US

11/7/2010 11/8/2010 ZZ768 American Tire Distributors Inc 1220 Herbert Wayne Court, Suite 150 Huntersville NC 28078 US

11/7/2010 11/8/2010 BA078 American Emergency 165 American Way Jefferson NC 28640 US

11/7/2010 11/8/2010 ZZ777 Guilford Mills 1754 NC, Highway 903 Kenansville NC 28349 US

11/7/2010 11/8/2010 NG253 Canal Wood, LLC 4311-B Ludgate Street Lumberton NC 28358 US

3/25/2011 11/8/2010 XE971 UPS 611 Clearbrook Rd Matthews NC 28105 US Bryce Paulsen 704-756-3074 Paulsen.bryce@ups.com

11/7/2010 11/8/2010 XL150 McGee Brothers Company, Inc. 4608 Carrkier Road Monroe NC 28110 US

11/7/2010 11/8/2010 XF111 Lowe's 1000 Lowe's Blvd. Mooresville NC 28117 US

4/4/2011 4/4/2011 AE089 Lenovo 1009 Think Place Bldg 1 4N18 Morrisville NC 27560 US Lauren McGahey (512) 615-5738

11/7/2010 11/8/2010 XH793 Pike 200 Pike Way MOUNT AIRY NC 27030 US

11/7/2010 11/8/2010 XJ163 Martin Marietta Materials 2710 Wycliff Road Raleigh NC 27622 US Randy Eisenhart

11/7/2010 11/8/2010 UI106 Progress Energy 410 South Wilmington Street Raleigh NC 27602 US

11/7/2010 11/8/2010 ZZ764 ABB, Inc 940 Main Campus Drive, Suite 500 RALEIGH NC 27606 US

11/7/2010 11/8/2010 VL207 Baker Roofing 517 Mercury Street Raleigh NC 27603 US

11/7/2010 11/8/2010 XT089 S & ME, Inc. 3109 Spring Forest Road Raleigh NC 27616 US

11/7/2010 11/8/2010 XF048 Clancy & Theys 516 West Cabarrus Street Raleigh NC 27603 US

11/7/2010 11/8/2010 WY318 General Parts, Inc. 2635 E Millbrook Rd Raleigh NC 27604 US

11/7/2010 11/8/2010 XX508 GlaxoSmithKline, Inc. Five Moore Drive P.O. Box 13398 Research Triangle Park NC 27709 US Shirley Collins

11/7/2010 11/8/2010 XI297 Food Lion, LLC 2110 Executive Dr SALISBURY NC 28145 US

11/7/2010 11/8/2010 WQ095 Old Dominion Freight Line, Inc. 500 Old Dominion Way Thomasville NC 27360 US

11/7/2010 11/8/2010 ZZ767 American Stainless Tubing Inc 129 Honeycutt Rd. Troutman NC 28166 US

11/7/2010 11/8/2010 ZZ775 Engineered Sintered Components 250 Old Murdock Road Troutman NC 28166 US

11/7/2010 11/8/2010 XN432 Watson Electrical Const. Co. 1500 Charleston St WILSON NC 27893 US

11/7/2010 11/8/2010 XJ680 R.J. Reynolds Tobacco Company 410 North Main Street Winston-Salem NC 27101 US LuAnn Boles

4/25/2011 3/4/2011 NQ635 Novant Health 2085 Frontis Plaza Blvd. Winston-Salem NC 27103 US

11/7/2010 11/8/2010 UH194 MDU Resources Group 1150 West Century Avenue Bismarck ND 58503 US

11/7/2010 11/8/2010 NS239 Bobcat Company 250 E. Beaton Drive West Fargo ND 58078 US

11/7/2010 11/8/2010 XQ373 Cassling Diagnostic 13808 F Street Omaha NE 68164 US Brian Erdman

1/31/2011 11/8/2010 WQ628 Kiewit Corp. 3555 Farnam Street Omaha NE 68131 US Keith Greene Purchasing Agent (402) 271-2850 (402) 342-2052 keith.greene@kiewit.com

12/8/2010 11/8/2010 VE418 Northern Natural Gas 1111 S. 103 Rd. Suite 310 Omaha NE 68124 US Stephen Jorgenson Director, Procurement 1-402-398-7168 stephen.jorgenson@nngco.com

3/13/2011 3/4/2011 AE050 ConAgra Foods, Inc. 11 ConAgra Drive Omaha NE 68102 US

11/7/2010 11/8/2010 NE874 Adesta LLC 1200 Landmark Center 1300 Omaha NE 68102 US

11/7/2010 11/8/2010 NR905 Claas of America 8401 S. 132nd Street OMAHA NE 68138 US

11/7/2010 11/8/2010 TP021 Union Pacific Corp. 1400 Douglas St Omaha NE 68179 US

11/7/2010 11/8/2010 ZZ683 Cabelas One Cabela Drive Sidney NE 69160 US

11/7/2010 11/8/2010 CC020 Coke Bottlers of N.H. 1 Executive Park Drive Bedford NH 3110 US Mark Smith

11/7/2010 11/8/2010 ZZ687 Northeast Delta Dental One Delta Drive, Box 2002 Concord NH 03302-2002 US

11/7/2010 11/8/2010 XI543 Dartmouth College 53 South Main Street, Suite 212 Hanover NH 3755 US

11/7/2010 11/8/2010 YA246 Merchants Automotive Group 1278 Hooksett Road Hooksett NH 3106 US

11/7/2010 11/8/2010 WN931 Markem Company 150 Congress Street Keene NH 3431 US

11/7/2010 11/8/2010 ZZ689 AT & T One AT&T Way Bedminster NJ 7921 US

11/7/2010 11/8/2010 NK458 Engine Distributors, Inc. 400 University Court Blackwood NJ 8012 US

12/8/2010 11/8/2010 XA412 Sanofi Aventis Pharmaceuticals 55 Corporate Drive BRIDGEWATER NJ 8807 US Judy Soltys Supervisor 908-981-4483 judy.soltys@sanofi-aventis.com

12/5/2010 12/5/2010 2C399 AKZO NOBEL 10 Finderne Ave. Bridgewater NJ 8807 US Robert yelk 732-3109372

11/7/2010 11/8/2010 XY720 AkzoNobel 10 Finderne Avenue Bridgewater NJ 8628 US

11/7/2010 11/8/2010 AD981 Subaru of America 2235 West Marlton Pike Cherry Hill NJ 8002 US

3/13/2011 3/4/2011 AE054 Foster Wheeler Corporation Perryville Corporate Park Clinton NJ 8809 US

11/7/2010 11/8/2010 XJ120 Schering-Plough 215 Birchwood Ave. Cranford NJ 7016 US

11/7/2010 11/8/2010 AD861 Event Solutions International 25 Cotters Ln East Brunswick, NJ 8816 US John Thompson President 248-307-9401 jwt@eventso;utions.net

11/7/2010 11/8/2010 XV168 Novartis Pharmaceuticals One Health Plaza East Hanover NJ 7936 US

11/7/2010 11/8/2010 VB361 Wakefern Food Corporation 33 Northfield ave Edison NJ 8818 US

11/7/2010 11/8/2010 WL714 Revlon 2147 Route 27 Edison NJ 8818 US

1/11/2011 11/8/2010 NK304 BioReference Laboratories 481 Edward H Ross Drive Elmwood Park NJ 7407 US Brad Carey Fleet Manager 201-791-2600 bcarey@bioreference.com

3/30/2011 11/8/2010 XA145 Unilever USA 800 Sylvan Ave Englewood NJ 7632 US Oleg Cytowicz YouDecide 222-222-2222 222-222-2222 kevin.kannenberg@youdecide.com

12/21/2010 11/8/2010 XB459 FMC Corporation 801/701 Princeton South Corp. Center Ewing NJ 8628 US Debra Elliott Weber Corporate Services Coord. 609-963-6205 debra.weber@fmc.com

10/13/2011 11/8/2010 XQ421 Sandvik, Inc. 17-02 Nevins Road Fair Lawn NJ 7410 US Jim Krieg Purchasing Manager 201-794-5021 james.a.krieg@sandvik.com

12/21/2010 11/8/2010 ZZ702 FLM Graphics 123 Lehigh Drive Fairfield NJ 7004 US Peter Desbets President 9735759450 9734750217 pdesbets@flmgraphics.com

11/7/2010 11/8/2010 ZZ709 John Guest Automotive, Inc. PO Box 11085 Fairfield NJ 07004-7085 US

11/7/2010 11/8/2010 XD141 BASF 100 Campus Drive Florham Park NJ 7932 US Nancy Greb

1/19/2012 11/8/2010 XY963 Becton Dickinson 1 Becton Drive FRANKLIN LAKES NJ 7417 US Jennifer Wiesenfeld Fleet Coordinator 2018474487 Jennifer_B_Wiesenfeld@bd.com

11/7/2010 11/8/2010 NT654 Medco Health Solutions 400 Parsons Pond Drive Franklin Lakes NJ 7417 US

11/7/2010 11/8/2010 XY047 J. Fletcher Creamer & Son, Inc. 101 East Broadway Hackensack NJ 7601 US

11/7/2010 11/8/2010 XY559 Sequa Corporation 3 University Plaza Hackensack NJ 7601 US

11/7/2010 11/8/2010 XY172 Mars North America 800 High Street HACKETTSTOWN NJ 7840 US

11/7/2010 11/8/2010 XZ560 Bancroft NeuroHealth 425 Kings Highway E Haddonfield NJ 8033 US

11/7/2010 11/8/2010 UH392 United Water Resources 200 Old Hook Rd Harrington Park NJ 7640 US

11/7/2010 11/8/2010 WR420 John Wiley and Sons 111 River Street Hoboken NJ 7030 US Kathy Zhang

11/7/2010 11/8/2010 WI520 Siemens 170 Wood Avenue South Iselin NJ 8830 US Jim McCarthy

11/7/2010 11/8/2010 XA121 Insurance Services Offices 545 Washington Blvd Jersey City NJ 7310 US

11/7/2010 11/8/2010 ZZ711 Peterson & Staeger, Inc. 70 Highway 35 North Keyport NJ 7735 US

12/6/2010 11/8/2010 AD952 International Trade Logistics 2525 Brunswick Avenue Suite 200 Linden NJ 7036 US Jean Aiello President 908 474 9001 jean@itlusa.net

11/7/2010 11/8/2010 ZZ697 Dassault Falcon Jet Corp 200 Riser Road Little Ferry NJ 7643 US

11/7/2010 11/8/2010 WO093 Scandinavian Airlines 9 Polito Avenue Lyndhurst NJ 7071 US

11/7/2010 11/8/2010 ZZ701 Ernst & Young 1280 Wall Street West Lyndhurst NJ 7071 US

1/13/2012 11/8/2010 XQ103 Maersk, Inc. 2 Giralda Farms Madison NJ 7940 US Carol Anderson Manager 973-514-5666 Carol.B.Anderson@maersk.com

11/7/2010 11/8/2010 XL705 Atlantic Mutual 7 Giralda Farms Madison NJ 7940 US

11/7/2010 11/8/2010 ZZ713 Sharp Electronics Corporation One Sharp Plaza MAHWAH NJ 7495 US

11/7/2010 11/8/2010 VN178 Unipart Services America 555 MacArthur Blvd. Mahwah NJ 7430 US

12/13/2010 11/8/2010 ZZ694 China Shipping Agency Co Inc 11 Philips Parkway MONTVALE NJ 7645 US Mike Pirozek Director Human Resources 201-505-8267 201-505-6974 michael.pirozek@csna.net

11/7/2010 11/8/2010 AD977 Mercedes-Benz USA, LLC 3 Mercedes Drive Montvale NJ 7645 US

8/23/2011 11/30/2010 WT689 NAVTEQ 281 Hwy 79, Suite 201 Morganville NJ 7751 US William Horeis Sales Manager 732-970-1811 732-970-0266 william.horeis@navteq.com

11/7/2010 11/8/2010 XX907 Schindler Elevator 20 Whippany Rd Morristown NJ 7960 US Carren Ramage

11/7/2010 11/8/2010 WP396 Hamburg Sud North America, Inc 465 South Street Morristown NJ 7960 US

11/7/2010 11/8/2010 WC475 Colas, Inc. 10 Madison Avenue, 4th Floor Morristown NJ 7960 US

11/7/2010 11/8/2010 ZZ706 Honeywell International 101 Columbia Road Morristown NJ 7962 US

11/7/2010 11/8/2010 WR028 ARI 4001 Leadenhall Drive Mt Laurel NJ 8054 US Dan Sacca

11/7/2010 11/8/2010 ZZ688 ARI 9000 Midlantic Dr Mt Laurel NJ 8054 US


11/7/2010 11/8/2010 XR119 C.R. Bard, Inc. 730 Central Avenue Murray Hill NJ 7974 US

11/7/2010 11/8/2010 ZZ692 BOC Group 575 Mountain Ave. Murray Hill NJ 7974 US

11/7/2010 11/8/2010 XZ123 Groundwater & Environmental Services 1340 Campus Parkway, Bldg. B Neptune NJ 7753 US

12/15/2010 11/8/2010 XL405 Johnson and Johnson 410 George Street New Brunswick NJ 8901 US Louise Davis-Lopez Fleet Manager 732-524-2972 llopez2@its.jnj.com

1/4/2011 11/8/2010 WD884 Horizon Blue Cross Blue Shield 3 Penn Plaza East Newark NJ 7105 US Julia McIver Fleet Administrator 973-466-4556 jmciver@horizonblue.com

11/7/2010 11/8/2010 UH123 Public Service Electric & Gas Company 80 Park Plaza Newark NJ 7101 US

1/1/2011 11/8/2010 VE120 GEA Companies 100 Fairway Ct NORTHVALE NJ 7647 US Arlene Decker Executive Assistant 201-767-3900 Arlene.Decker@geagroup.com

11/7/2010 11/8/2010 LX158 Empire Transport 55 Walnut Street , Suite 208 Norwood NJ 7648 US

11/7/2010 11/8/2010 XQ612 The Great Atlantic & Pacific Tea Company 2 Paragon Drive NORWOOD NJ 7648 US

7/14/2011 11/8/2010 WI943 Shiseido Americas Corporation 178 Bauer Drive Oakland NJ 7436 US Karen Borquez Associate Manager, Human Resources 201-405-2290 kborquez@sac.shiseido.com

12/5/2010 12/5/2010 1F623 SUN CHEMICALS 35 Waterview Boulevard Parisppany NJ 07054-1285 US Norma Conkle

11/7/2010 11/8/2010 ZZ714 The Hertz Corporation 225 Brae Boulevard PARK RIDGE NJ 7656 US

11/7/2010 11/8/2010 XD699 Sony 1 Sony Drive Park Ridge NJ 7656 US

11/15/2011 11/8/2010 AB945 Curtiss-Wright Corporation 10 Waterview Blvd Parsippany NJ 7054 US Heather Bravo HR Administrator 973-541-3700 hbravo@curtisswright.com

12/21/2011 11/8/2010 NY398 The Medicines Company 8 Sylvan Way Parsippany NJ 7054 US Laura Kish Mgr, HS Financial Analysis 973-290-6096 Laura.Kish@themedco.com

4/4/2011 4/4/2011 AE086 Jackson Hewitt 3 Sylvan Way Parsippany NJ 7054 US Linda Fagundes (401) 714-8664

11/7/2010 11/8/2010 VC648 Securitas 2 Campus Drive, P. O. Box 330 Parsippany NJ 7054 US Lisa Melvin

12/28/2010 12/28/2010 VT150 Quintiles 10 Waterview Boulevard Parsippany NJ 7054 US Lisa Pars (973) 257-5420 lisa.pars@quintiles.com

12/8/2010 11/8/2010 XQ352 Sun Chemical Corporation 35 WATERVIEW BLVD PARSIPPANY NJ 7054 US Norma Conkle Fleet & Travel Administrator 973-404-6000 norma.conkle@sunchemical.com

11/7/2010 11/8/2010 AE004 New Concept Leasing 3700 Route 46 Parsippany NJ 7054 US Pete Linder

7/28/2011 11/8/2010 NZ791 Wyndham Worldwide 22 Sylvan Way PARSIPPANY NJ 7054 US Tori Duga Director 973-753-6704 tori.duga@wyn.com

11/7/2010 11/8/2010 WJ981 Evonik Degussa Corporation 379 Interpace Parkway Parsippany NJ 7054 US

11/7/2010 11/8/2010 AB997 DSM 45 Waterview boulevard PARSIPPANY NJ 7054 US

11/7/2010 11/8/2010 NJ614 Daiichi Sankyo US Two Hilton Court Parsippany NJ 7054 US

11/7/2010 11/8/2010 WA024 Avis Budget Group 6 Sylvan Way Parsippany NJ 7054 US

11/7/2010 11/8/2010 VG009 The Trane Company One Centennial Ave. Piscataway NJ 8855 US

1/24/2011 11/8/2010 XA170 Bristol-Myers Squibb Co. 777 Scudder Mills Road Plainsboro NJ 8536 US Jerome Whitson Senior Fleet Analyst 609-897-2000 609-897-4853 jerome.whitson@bms.com

2/4/2011 1/31/2011 2C413 Bristol Myers Squibb 777 Scudders Mill Road Plainsboro NJ 8536 US Jerome Whitson Senior Fleet Analyst 609-897-4853 jerome.whitson@bms.com

11/7/2010 11/8/2010 WA472 Firmenich 250 Plainsboro Road Plainsboro NJ 8543 US Ken Gries

11/7/2010 11/8/2010 AD942 FAPS, Inc. Bldg. 371 Craneway Street Port Newark NJ 07114-3114 US Gary Lobue Owner 973 589-5656 0 lobueg@fapsinc.com

12/5/2010 12/5/2010 8N222 NOVO NORDISK INC> 100 College Road west Princeton NJ 8540 US Donna Bibbo 609-9875466

12/7/2010 11/8/2010 VO135 Novo Nordisk Inc. 100 College Road West Princeton NJ 8450 US Donna Bibbo Manager, Fleet & Travel 6099875466 dbib@novonordisk.com

2/8/2011 11/8/2010 VL927 Bracco Diagnostics, Inc. 107 College Road East PRINCETON NJ 8540 US Karen Baldenko North America Fleet Administrator 609-514-2200 609-524-2875 karen.baldenko@diag.bracco.com

11/7/2010 11/8/2010 XY639 Dow Jones & Company, Inc. P.O. Box 300 PRINCETON NJ 8543 US

11/17/2010 11/8/2010 NL714 Wurth Group of North America 93 Grant Street Ramsey NJ 7446 US Ed Spess District Manager 215-527-2502 214-721-0977 edward.spess@wurthusa.com

2/4/2011 11/30/2010 AE020 Pierce Communications 800B Lake Street Ramsey NJ 7446 US Len Addison President 201-818-3330 laddison@piercecommunications.com

11/7/2010 11/8/2010 ZZ712 Pierce Communications 800 B Lake Street Ramsey NJ 7446 US

11/7/2010 11/8/2010 VG267 Inductotherm Corporation 10 Indel Avenue Rancocas NJ 8073 US

11/7/2010 11/8/2010 VK444 Warner Chilcott Labs 100 Enterprise Drive Rockaway NJ 7866 US

1/6/2011 12/28/2010 AE028 NVC Logistics One Pond Road Rockleigh NJ 7647 US Justin Naddeo Director Eastern Region (201) 767-0910 x180 justin.naddeo@nvclogistics.com

11/19/2010 11/8/2010 AE005 Crestron Electronics Inc. 15 Volvo Drive Rockleigh NJ 7647 US Rosana Herrerias Employee Relations 201-767-3400 X 10411 Rherrerias@crestron.com

11/7/2010 11/8/2010 NQ360 Volvo I.T. North America 1 Volvo Drive, Building B Rockleigh NJ 7647 US

1/12/2011 11/8/2010 XA126 Automatic Data Processing 1 ADP Boulevard M/SB 125 Roseland NJ 7068 US Julian Fernandes Fleet Administrator (973) 974-5417 (973) 974-2721 julian_fernandes@adp.com

11/7/2010 11/8/2010 XE411 Panasonic One Panasonic Way 3B-1 Secaucus NJ 7094 US Dana Viri

11/7/2010 11/8/2010 AD959 Panasonic Computer Solutions 2 Panasonic Way Secaucus NJ 7094 US Jo Satilli Sr Area Manager North East 732-505-9739 973-303-7767 jo_satilli.panasonic.com

12/6/2010 11/8/2010 WV911 China Ocean Shipping Co 100 Lighting Way SECAUCUS NJ 7094 US Lenny Wassil Auto Fleet Supervisor 201-422-0500 ext 8430 lwassil@cosco-usa.com

11/7/2010 11/8/2010 ZZ698 Dun & Bradstreet 103 JFK Parkway Short Hills NJ 7078 US

11/7/2010 11/8/2010 AC387 ConvaTec 100 Headquarters Park Drive Skillman NJ 8558 US Adam Winik

11/7/2010 11/8/2010 XX933 Meda Pharma 265 Davidson Avenue Suite 300 Somerset NJ 8873 US Tom Bennis

11/7/2010 11/8/2010 ZZ716 Ventiv Health U.S. Sales 200 Cottontail, Vantage Ct. N. Somerset NJ 8873 US

11/7/2010 11/8/2010 AB348 Catalent Pharma Solutions Inc. 14 Schoolhouse Road SOMERSET NJ 8873 US

11/7/2010 11/8/2010 VU952 Inventiv Health 500 Atrium Drive Sommerset NJ 8873 US Warren Dudek

11/7/2010 11/8/2010 VQ169 Celgene Corp 86 Morris Ave SUMMIT NJ 7901 US

11/7/2010 11/8/2010 NX999 Univision Communications, Inc 500 Frank W. burr Blvd., 1st Floor Teaneck NJ 7666 US

11/7/2010 11/8/2010 XY163 Pearson 1 Lake Street Upper Saddle River NJ 7458 US Donna Lamarca

11/7/2010 11/8/2010 VN426 Professional Detailing, Inc. 10 Mountainview Road Upper Saddle River NJ 7458 US

11/7/2010 11/8/2010 XQ699 Benjamin Moore and Co 101 Paragon Drive WANAQUE NJ 7465 US

11/7/2010 11/8/2010 XA123 Chubb & Son, Inc. 15 Mountain View Road Warren NJ 7059 US

2/24/2011 11/8/2010 WP711 JVC Americas Corp 1700 Valley Road Wayne NJ 7470 US Adrienne McCarron National Administrator Procurement Dpt 9733175278 9733175000 amccarron@jvc.com

1/28/2011 11/30/2010 VW798 Castrol 1500 Valley Road Wayne NJ 7470 US Paul Giblett Communications Mgr 973-633-2241 973-633-2200 paul.giblett@castrol.com

1/29/2011 11/8/2010 ZZ037 BP America Inc. 1500 Valley Road Wayne NJ 7470 US Paul Giblett Communications Mgr 973-633-2241 862-368-8886 paul.giblett@bp.com

11/7/2010 11/8/2010 WQ217 Toys R Us, Inc One Geoffrey Way Wayne NJ 7470 US

11/7/2010 11/8/2010 NX277 GAF Master Elite 1361 Alps Rd. Wayne NJ 7470 US

11/7/2010 11/8/2010 ZZ691 BMCA ISP Management Company 1361 Alps Road Wayne NJ 7470 US

11/7/2010 11/8/2010 ZZ704 Hankook Tire America Corp 1450 Valley Road Wayne NJ 7470 US

3/13/2011 3/4/2011 AE070 SBHCS (Saint Barnabas Health Care System) 95 Old Short Hills Rd. West Orange NJ 7052 US

12/20/2011 11/8/2010 XC710 Merck One Merck Drive Whitehouse Station NJ 8889 US Eric Aragon Lead Executive Representative 908-423-5862 eric_aragon@merck.com

3/13/2011 3/4/2011 AE066 Quick Chek 3 Old Highway 28 Whitehouse Station NJ 8889 US

11/7/2010 11/8/2010 WY289 Eisai, Inc. 100 Tice Boulevard WOODCLIFF LAKE NJ 7677 US Anne O'Neill-Regan

2/22/2011 11/8/2010 AD946 Wallenius Wilhelmson Logistics 188 Broadway Woodcliff Lake NJ 7677 US Debbi Madan HR Generalist 201 307-1300 debbi.madan@2wglobal.com

11/7/2010 11/8/2010 AB788 Wallenius Wilhelmsen Logistics P.O. Box 1232 WOODCLIFF LAKE NJ 7677 US

11/7/2010 11/8/2010 AD971 BMW of North America, LLC 300 Chestnut Ridge Road Woodcliff Lake NJ 7675 US

12/5/2010 12/5/2010 2C049 BENJAMIN MOORE & CO 101 Paragon Drive NJ 7645 US Rosalie Falato 201-9496794

11/7/2010 11/8/2010 ZZ719 New Mexico (University of) Faculty Anderson School of Mgt. - 2148 Albuquerque NM 87131 US

11/7/2010 11/8/2010 AC202 New Mexico Gas Company 7120 Wyoming Blvd NE, Ste 200 ALBUQUERQUE NM 87109 US

11/7/2010 11/8/2010 ZZ720 Nova Bus 42 Earl Cummings Loop West Roswell NM 88202 US

11/7/2010 11/8/2010 ZZ721 PNM - Public Service Comp. of New Mexico P.O. Box 1268 Santa Fe NM 87501 US

1/31/2011 11/30/2010 AE015 Dealer Service Academy 37 Gordon Court Lower Sackville NS B4E 1W5 US Shawn Ryder Co-Founder 902-488-4107 shawn@dealerserviceacademy.com

11/7/2010 11/8/2010 VU213 Barrick Gold 27 miles North of Carlin Carlin NV 89822 US

11/7/2010 11/8/2010 XG383 Newmont Mining Corporation PO Box 69 GOLCONDA NV 89414 US

11/7/2010 11/8/2010 UH148 Southwest Gas Corporation 5241 Spring Mountain Road Las Vegas NV 89150 US Randy Jackson

11/7/2010 11/8/2010 NQ497 MGM MIRAGE 3260 INDUSTRIAL RD LAS VEGAS NV 89109 US

11/7/2010 11/8/2010 XX262 Yellow Checker Star Taxi 3950 W. Tompkins Ave. Las Vegas NV 89103 US

11/7/2010 11/8/2010 YB989 Ahern Rentals 1611 W. Bonanza Rd. LAS VEGAS NV 89106 US

11/7/2010 11/8/2010 ZZ685 Shelby Automotives, Inc 6755 Speedway Blvd LAS VEGAS NV 89115 US

11/7/2010 11/8/2010 KX160 Whittlesea-Bell Transportation 1900 Industrial Road Las Vegas NV 89102 US

11/7/2010 11/8/2010 NN195 Dyncorp - RSS 3965 West Cheyenne Avenue North Las Vegas NV 89030 US

2/18/2011 11/8/2010 XY287 Kinross Gold USA Inc 5370 Kietzke Lane #102 RENO NV 89511 US Kirk McLellan Regional Supply Manager NA 775-829-1000 775-823-8545 kirk.mclellan@kinross.com

11/7/2010 11/8/2010 UH578 Sierra Pacific Power 6100 Neil Road Reno NV 89511 US

3/17/2011 3/7/2011 AE080 Volvo Club of America PO Box 16 Afton NY 13730 US John Holtzapple President 607-639-2279 717-394-1799 johnhapple@comcast.net

11/7/2010 11/8/2010 WL454 Mark IV Industries 501 John James Audubon Parkway Amherst NY 14228 US

11/7/2010 11/8/2010 WN404 Columbus McKinnon Corp 140 John James Audubon Pkwy Amherst NY 14228 US

11/7/2010 11/8/2010 VW605 Nu-Vision Technologies 6000 New Horizons Blvd AMITYVILLE NY 11701 US

7/13/2011 11/8/2010 WP929 BWP Distributors 215 Business Park Drive Armonk NY 10504 US JR Setteducati Director of Human Resources 914-765-8500 x221 jr.setteducati@cqbwp.com


11/7/2010 11/8/2010 ZZ736 IBM North Castle Drive Armonk NY 10504 US

11/7/2010 11/8/2010 XL107 Cablevision Systems Corporation 1111 Stewart Avenue Bethpage NY 11714 US Jerry Espisito

12/9/2010 11/8/2010 WI212 HP Hood LLC 93 Pennsylvania Avenue BINGHAMTON NY 13903 US Diane Shafer Benefits Associate 607-779-3426 diane.shafer@hphood.com

11/7/2010 11/8/2010 LC094 Commercial Transportation Manf. Corp. 35 Carlough Road Bohemia NY 11716 US

11/7/2010 11/8/2010 ZZ750 New York Yankees Partnership One East 161st St - Yankee Stadium BRONX NY 10451 US

11/7/2010 11/8/2010 ZZ751 Par Foam Products, Inc. 239 Van Rensselaer Street Buffalo NY 14210 US

11/7/2010 11/8/2010 WU835 Gibraltar Steel Corporation 3556 Lakeshore Road Buffalo NY 14219 US

11/7/2010 11/8/2010 BY167 Unicell Body Company 571 Howard Street Buffalo NY 14206 US

11/7/2010 11/8/2010 WG428 LPCiminelli Inc. 369 Franklin Street Buffalo NY 14202 US

11/11/2011 11/11/2011 AE116 Westmatic 485 Cayuga Road Cheektowaga NY 14225 US Robert Sundell (866) 747-4567 robert@westmatic.com

11/7/2010 11/8/2010 ZZ728 Conestoga Rovers and Associates (CRA) 2371 George Urban Blvd Depew NY 14043 US

11/7/2010 11/8/2010 XY852 Pall Corporation 2200 Northern Blvd East Hills NY 11548 US

11/7/2010 11/8/2010 NR963 Bright House Networks, LLC 5000 Campuswood Drive East Syracuse NY 13057 US

3/25/2011 3/25/2011 AE010 Chase Automotive Finance 900 Stewart Avenue, 6th Floor Garden City NY 11530 US Jeanine Stender 516-745-4103 jeanine.stender@chase.com

12/8/2010 11/8/2010 AB465 Festo Corporation 395 Moreland Rd HAUPPAUGE NY 11788 US Virginia Heslin Financial Analyst/Fleet Administrator 631-404-3166 631-435-0800 virginia.heslin@us.festo.com

11/7/2010 11/8/2010 ZZ724 Audiovox 150 Marcus Boulevard Hauppauge NY 11788 US

11/7/2010 11/8/2010 UI056 Hawkeye 100 Marcus Blvd Hauppauge NY 11788 US

4/25/2011 4/25/2011 AD054 Acorda Therapeutics 15 Skyline Drive Hawthorne NY 10532 US Roseann Howard rhoward@acorda.com (914) 347-4300

11/30/2010 11/30/2010 AE022 Vehicle Manufacturer's Inc. 1757 Veterans Memorial Hwy., Suite 14 Islandia NY 11749 US Angelo Addesso 631-851-1700 631-851-1515 aadesso@vmsny.com

11/7/2010 11/8/2010 ZZ726 CA Inc. One Computer Associates Plaza Islandia NY 11749 US

11/7/2010 11/8/2010 ZZ735 Hoegh Autoliners Inc. 50 Jericho Quadrangle JERICHO NY 11753 US

11/7/2010 11/8/2010 BX018 Dejana Truck Equipment 490 Pulaski Road Kings Park NY 11754 US

11/7/2010 11/8/2010 XZ411 New York State United Teacher 800 Troy Schenectady Road Latham NY 12110 US

11/7/2010 11/8/2010 UH046 Consolidated Edison of New York 3101 20th Avenue Long Island City NY 11105 US

12/6/2010 11/8/2010 WL653 PAR Plumbing Inc 60 North Prospect Ave Lynbrook NY 11563 US Adam Ingber Director of Human Resources 516-394-2093 aingber@pargroup.com

11/7/2010 11/8/2010 WI610 TNT North America 3 Huntington Quadrangle Suite 201 S Melville NY 11747 US

11/7/2010 11/8/2010 XN065 Petro, Inc. 520 Broadhollow Road Suite 200 W Melville NY 11747 US

11/7/2010 11/8/2010 VN421 Mediacom Communications 100 Crystal Run Road Middletown NY 10941 US

2/7/2011 11/8/2010 NC197 Broadview Networks 500 7th Avenue 2nd Floor New York NY 10018 US Connie Good Human Resources Director 212-404-5165 cgood@broadviewnet.com

11/7/2010 11/8/2010 XC630 Loews Corporation 655 Madison Avenue NEW YORK NY 10065 US Dan Johnson

12/13/2010 11/8/2010 WB447 Estee Lauder 767 5th ave New York NY 10153 US Elsie Lucia Exec.Director Fleet & Purchasing Services 212-572-4474 elucia@estee.com

2/14/2011 2/8/2011 AE032 Euro RSCG 350 Hudson Street New York NY 10014 US Jessica Calabrese HR Generalist 212-886-2000 jessica.calabrese@eurorscg.com

11/21/2011 11/8/2010 WL326 PARSONS BRINCKERHOFF One Penn Plaza New York NY 10119 US Lily Conover Purchasing & Fleet Manager 212-465-5101 conover@pbworld.com

4/4/2011 4/4/2011 AE090 Thomson Reuters 3 Times Square New York NY 10036 US Linda Fagundes (401) 714-8664

1/31/2011 11/8/2010 XY644 Insight Communications Company, Inc. 810 7th Avenue, 40th Floor New York NY 10019 US Marc Steiner VP - Human Resources 917-286-2321 917-286-2300 steiner.m@insightcom.com

11/7/2010 11/8/2010 AD950 Workflow One 276 Park Avenue South New York NY 10010 US Maurice Rodriguez Operations 212 844 7105 212 594 4615 MauriceRodriguez@WorflowOne.com

11/7/2010 11/8/2010 WR419 International Flavors & Fragrances Inc 521 West 57th Street New York NY 10019 US Nancy White

12/22/2011 11/8/2010 XD307 Pfizer, Inc. 235 East 42nd Street New York NY 10017 US Rahul Bhardwaj North America Fleet Manager 212-733-8326 212-733-8326 rahul.bhardwaj@pfizer.com

10/27/2011 3/4/2011 AE043 Avon Products, Inc (Reps) 1251 Avenue of the Americas New York NY 10020 US Selena Cartwright Independent Sales Rep 222-222-2222 222-222-2222 jaycee1804@yahoo.com

2/23/2011 2/8/2011 AE033 Media Planning Group USA 195 Broadway New York NY 10007 US William Chase Benefits Manager 646-587-5152 646-587-5000 william.chase@mpg.com

3/13/2011 3/4/2011 AE053 Foot Locker 112 W. 34th St. New York NY 10120 US

3/13/2011 3/4/2011 AE042 Avon Corporate 1251 Avenue of the Americas New York NY 10020-1196 US

11/7/2010 11/8/2010 WI413 American Express Company 200 Vesey Street, 32nd Floor New York NY 10285 US

11/7/2010 11/8/2010 ZZ725 Avenue A-Razorfish, Inc. 1440 Broadway, 19th Floor NEW YORK NY 10018 US

11/7/2010 11/8/2010 ZZ729 Credit Suisse 11 Madison Avenue, 10th Floor New York NY 10010 US

11/7/2010 11/8/2010 ZZ733 Fuel North America 345 Hudson Street New York NY 10014 US

11/7/2010 11/8/2010 ZZ737 Information Builders Two Penn Plaza NEW YORK NY 10121 US

11/7/2010 11/8/2010 ZZ742 McKinsey & Company 55 East 52nd Street, Floor 27 New York NY 10055 US

11/7/2010 11/8/2010 ZZ743 Mizuho Corporate Bank 1251 Avenue of the Americas New York NY 10020 US

11/7/2010 11/8/2010 ZZ748 Monster Worldwide, Inc. 622 3rd. St. 39th Floor New York NY 10017 US

11/7/2010 11/8/2010 ZZ752 Shearman & Sterling LLP 599 Lexington Avenue New York NY 10022 US

11/7/2010 11/8/2010 ZZ753 Simpson Thacher & Bartlett 425 Lexington Avenue NEW YORK NY 10017 US

11/7/2010 11/8/2010 ZZ754 Skadden, Arps, Slate, Meagher and Flom Four Times Square New York NY 10036 US

11/7/2010 11/8/2010 ZZ756 TMP Directional Marketing 317 Madison Ave, Ste 2310 NEW YORK NY 10017 US

11/7/2010 11/8/2010 ZZ759 Uniworld Group, Inc. 100 Avenue of the Americas, 16th Floor New York NY 10013 US

11/7/2010 11/8/2010 ZZ761 WebMD Health - ViPs 111 8th Avenue, 7th Floor NEW YORK NY 10011 US

11/7/2010 11/8/2010 ZZ762 Weiser LLP 135 West 50th Street, 13th Floor New York NY 10020 US

11/7/2010 11/8/2010 ND394 H&M, Hennes and Mauritz LP 215 Park Ave, 15th Floor NEW YORK NY 10003 US

11/7/2010 11/8/2010 ZZ763 WPP Group 125 Park Avenue, 4th Floor New York NY 10017 US

11/7/2010 11/8/2010 WL997 The Associated Press 450 W 33rd Street NEW YORK NY 10001 US

11/7/2010 11/8/2010 WO605 Hachette Book Group USA 1271 Avenue of the Americas New York NY 10020 US

11/7/2010 11/8/2010 XD331 The New York Times Company 229 West 43rd Street New York NY 10036 US

11/7/2010 11/8/2010 XD801 Time Warner Cable 1 Time Warner Center New York NY 10019 US

11/7/2010 11/8/2010 WV043 The College Board 45 Columbus Avenue New York NY 10023 US

11/7/2010 11/8/2010 WC715 Mutual of America 320 Park Avenue New York NY 10022 US

11/7/2010 11/8/2010 XA189 Colgate Palmolive 300 Park Avenue NEW YORK NY 10022 US

11/7/2010 11/8/2010 WF018 United Brotherhood of Carpenters 395 Hudson Street New York NY 10014 US

11/7/2010 11/8/2010 T859D Turner Construction Company 375 Hudson Street New York NY 10014 US

11/7/2010 11/8/2010 ZZ727 Coach & Equipment Mfg. Co. 130 Horizon Park Drive Penn Yan NY 14527 US

11/7/2010 11/8/2010 WW232 Pernod Ricard USA 100 Manhattanville Road Purchase NY 10577 US Angela Costalas

11/7/2010 11/8/2010 NB388 Bresnan Communication, LLC One Manhattanville Road Purchase NY 10577 US Jose Garcia

6/15/2011 11/8/2010 WB403 Kobrand 1 Manhattenville Road Purchase NY 10577 US Paul Lenhart Fleet Administrator 914-253-7710 914-253-7700 Plenhart@kobrand.com

1/28/2011 11/8/2010 AD958 Integron 35 Bermar Park Rochester NY 14624 US Dave Pagani Chief Operating Officer 585.426.6200 (203) 507-4252 dapagani@Integron.com

1/7/2011 11/8/2010 NT715 The Gleason Works 1000 University Avenue Rochester NY 14692 US Kay Pierson Benefits Administrator 585-461-8106 kpierson@gleason.com

11/7/2010 11/8/2010 XJ470 Bausch & Lomb 1400 North Goodman Street Rochester NY 14609 US

11/7/2010 11/8/2010 UH623 Rochester Gas and Electric 89 East Avenue Rochester NY 14649 US

11/7/2010 11/8/2010 XX422 Birds Eye Food 90 Linden Oaks ROCHESTER NY 14625 US

11/7/2010 11/8/2010 WC398 Eastman Kodak Company 200 Rodge Road West Rochester NY 14652 US

11/7/2010 11/8/2010 XH030 Monro Muffler Brake 200 Holleder Parkway Rochester NY 14615 US

11/7/2010 11/8/2010 UH122 Frontier Corporation 111 Fields Street Rochester NY 14620 US

11/7/2010 11/8/2010 XA206 PepsiCo. 1 Pepsi Way Somers NY 10589 US

11/7/2010 11/8/2010 WO418 AFA Protective Systems, Inc. 155 Michael Dr SYOSSET NY 11791 US

11/7/2010 11/8/2010 ZZ760 Utica Metal Product, Inc. 1526 Lincoln Utica NY 13502 US

11/7/2010 11/8/2010 WI319 Fuji Film Holdings 200 Summit Lake Drive Valhalla NY 10511 US Jim Pitrillo

3/3/2011 11/8/2010 XA290 Xerox Corporation 800 Phillips Road Bld. 205-99P Webster NY 14580-9701 US Sue McKenna Business Travel Coordinator 585-422-9879 sue.mckenna@xerox.com

11/7/2010 11/8/2010 VE329 ITT Industries, Inc. 4 West Red Oak Lane WEST HARRISON NY 10604 US

11/7/2010 11/8/2010 XD851 Lewis Tree Service, Inc. 300 Lucius Gordan Drive West Henrietta NY 14586 US Kathy Eastman

11/7/2010 11/8/2010 WI334 Malcolm Pirnie, Inc. 104 Corporate Park Drive White Plains NY 10602 US

11/7/2010 11/8/2010 W8366 Starwood Hotels & Resorts 1111 Westchester Avenue White Plains NY 10604 US

11/7/2010 11/8/2010 NX356 Skanska USA Civil 1616 Whitestone Expressway Whitestone NY 11357 US

11/7/2010 11/8/2010 ZZ749 National Fuel Gas 6363 Main Street Williamsville NY 14221 US

11/7/2010 11/8/2010 NH722 Locke Leasing, LLC 6467 Main Street Williamsville NY 14221 US

11/7/2010 11/8/2010 NL366 Univera 205 PARK CLUB LANE Williamsville NY 14221 US

1/28/2011 11/8/2010 GY001 Goodyear Tire and Rubber Company 1144 East Market Street Akron OH 44316 US Don McMullen Sales Forecaster 330-796-2121 330-796-1538 dgmcmullen@goodyear.com

11/7/2010 11/8/2010 ZZ809 Compass Systems & Sales, Inc. 1643 Massillon Road Akron OH 44312 US

11/7/2010 11/8/2010 WO632 A Schulman 3550 W. Market Street Akron OH 44333 US


11/7/2010 11/8/2010 XF758 American Medical Response 520 South Main, Suite 2422 Akron OH 44311 US

4/4/2011 4/4/2011 AE092 Summa Health System 525 East Market Akron OH 44308 US 330-375-6392 filkilla@summahealth.org

11/7/2010 11/8/2010 ZZ858 Nordson Corporation 100 Nordson Drive, MS 81 Amherst OH 44001 US

11/7/2010 11/8/2010 ZZ879 Sauder Woodworking 502 Middle Street Archbold OH 43502 US

12/7/2010 11/8/2010 ZZ788 A.J. Rose Manufacturing 38000 Chester Road Avon OH 44011 US Molly Galant HR Generalist 440-934-2857 mgalant@ajrose.com

11/7/2010 11/8/2010 DG001 Dealers Group, Ltd. 23240 Chagrin Blvd., Suite 802 Beachwood OH 44122 US Jan Benroth

11/7/2010 11/8/2010 XU093 Austin Powder Company 25800 Science Park Drive BEACHWOOD OH 44122 US

Vice President - Human Resources &

12/6/2010 11/8/2010 ZZ864 Olympic Steel, Inc. 5096 Richmond Road Bedford Heights OH 44146 US Rich Manson

Administration (216) 292-3800 rmanson@olysteel.com

11/7/2010 11/8/2010 ZZ819 DTR Industries, Inc. 320 Snider Road Bluffton OH 45817-9573 US

11/7/2010 11/8/2010 ZZ834 Grob Systems Inc. 1070 Navajo Drive Bluffton OH 45817 US

11/7/2010 11/8/2010 ZZ894 Tinnerman Palnut Engineered Products 1060 West 130th Street Brunswick OH 44212 US

11/7/2010 11/8/2010 ZZ857 Nifco America Corporation 8015 Dove Parkway CANAL WINCHESTER OH 43110 US

3/9/2011 11/8/2010 ZZ874 Republic Engineered Products, Inc. 2633 Eighth Street NE Canton OH 44704-2311 US Peggy Schwan HR Benefit Administrator 330-438-5533 pschwan@republicengineered.com

11/7/2010 11/8/2010 XA997 Timken Company 1835 Dueber Avenue S.W. Canton OH 44706 US

11/7/2010 11/8/2010 ZZ823 Fairmount Minerals 11833 Ravenna Road Chardon OH 44024 US

1/19/2011 1/19/2011 0C066 Illinois Tool Works (ITW) Inc. (ITW Evercoat) 6600 Cornell Road Cincinnati OH 45242 US Cindy Proffitt 513-489-7600x7802

12/7/2010 11/8/2010 ZZ802 Belcan Corporation 10200 Anderson Way Cincinnati OH 45242 US Michael J. Wirth Chief Financial Officer 513-891-0972 mwirth@belcan.com

5/19/2011 11/8/2010 NK937 First Group America 600 Vine St.; Suite 1400 Cincinnati OH 45202 US

11/7/2010 11/8/2010 XB005 Procter & Gamble 2 Procter & Gamble Plaza Cincinnati OH 45202 US

11/7/2010 11/8/2010 ND231 Premier Manufacturing Support 2828 Highland Avenue Cincinnati OH 45212 US

11/7/2010 11/8/2010 XM465 John R Jurgensen Company 11641 Mosteller Road CINCINNATI OH 45242 US

11/7/2010 11/8/2010 ZZ805 Cincinnati Steel Treating 5701 Mariemont Avenue Cincinnati OH 45227 US

11/7/2010 11/8/2010 ZZ810 Consolidated Metal Products 1028 Depot Street Cincinnati OH 45204 US

11/7/2010 11/8/2010 ZZ811 Coolant Control, Inc. 5353 Spring Grove Ave Cincinnati OH 45217 US

11/7/2010 11/8/2010 XD810 Kroger Co 1014 Vine Street Cincinnati OH 45202 US

11/7/2010 11/8/2010 XG287 Cintas Corporation 6800 Cintas Boulevard Cincinnati OH 45262 US

11/7/2010 11/8/2010 WD571 Cincinnati Insurance Co. 6200 S. Gilmore Rd. PO 145496 Cincinnati OH 45250 US

11/7/2010 11/8/2010 XH822 Roto Rooter Services Co. 255 E.5th St. 2500 Chemed Ctr. Cincinnati OH 45202 US

11/7/2010 11/8/2010 ZA612 Mike Albert Leasing 10340 Evendale Drive Cincinnati OH 45241 US

11/7/2010 11/8/2010 ZH093 Fifth Third Bank 38 Fountain Sq. Plz, MD 1COM64 Cincinnati OH 45263 US

11/7/2010 11/8/2010 WG313 American Financial Group 49 East 4th Street, Suite 900 Cincinnati OH 45202 US

12/27/2010 11/8/2010 ZZ892 Thompson Hine LLP 127 Public Square #3900 CLEVELAND OH 44114 US Katie Potoczak HR Generalist 216-566-5626 216-566-7450 katie.potoczak@thompsonhine.com

3/8/2011 11/8/2010 XA961 Eaton Corporation 1111 Superior Avenue Cleveland OH 44114 US Linda Brentar Senior Analyst-Supply Chain 216-523-5000 216-523-4608 lindabrentar@eaton.com

11/7/2010 11/8/2010 AE008 Dealer Tire, LLC 3711 Chester Avenue Cleveland OH 44114 US Michael A. Schwartz

11/7/2010 11/8/2010 XJ392 Foseco Metallurgical Inc. 20200 Sheldon Road Cleveland OH 44142 US

11/7/2010 11/8/2010 ZZ836 Hilite International, Inc. 127 Public Square Key Tower Ste. 4100 Cleveland OH 44114 US

11/7/2010 11/8/2010 ZZ846 Lake Erie Abrasive & Tool 24811 Rockwell Drive Cleveland OH 44117 US

11/7/2010 11/8/2010 AD025 Cleveland Indians 2401 Ontario Street Cleveland OH 44145 US

11/7/2010 11/8/2010 WP143 Applied Industrial Technologies One Applied Plaza Cleveland OH 44115 US

11/7/2010 11/8/2010 ZZ854 Mid-West Forge Corp. 17301 St. Clair Ave. CLEVELAND OH 44110 US

11/7/2010 11/8/2010 ZZ885 St. Ives Inc. Cleveland 4437 East 49th St CLEVELAND OH 44125 US

11/7/2010 11/8/2010 ZZ887 State Industrial Products 3100 Hamilton Avenue Cleveland OH 44114 US

11/7/2010 11/8/2010 ZZ901 Voyale Corporation 4510 East 71st Cleveland OH 44105 US

11/7/2010 11/8/2010 VS768 Medical Mutual 2060 East Ninth St. Cleveland OH 44115 US

11/7/2010 11/8/2010 NS743 Oglebay Norton Company 1001 Lakeside Avenue, 15th Floor Cleveland OH 44114 US

11/7/2010 11/8/2010 WC576 Park Ohio Industries, Inc. 23000 Euclid Avenue Cleveland OH 44117 US

11/7/2010 11/8/2010 XJ071 Parker Hannifin Corporation 6035 Parkland Boulevard Cleveland OH 44124 US

11/7/2010 11/8/2010 XA938 Sherwin-Williams Company Stores Division 101 Prospect Avenue Cleveland OH 44115 US

11/7/2010 11/8/2010 XA922 Grange Insurance 650 S. Front Street Columbus OH 43206 US Carroll Hickman

7/20/2011 11/8/2010 XM311 Big Lots 300 Phillipi Road Columbus OH 43228 US Rhonda Boos Fleet Coordinator 614-278-6661 rboos@biglots.com

6/29/2011 3/4/2011 XU091 Limited Brands Three Limited Way Columbus OH 43230 US

11/7/2010 11/8/2010 UH472 NiSource 200 Civic Center Drive Columbus OH 43215 US

11/7/2010 11/8/2010 ZZ835 Hexion Specialty Chemicals 180 East Broad Street Columbus OH 43215 US

11/7/2010 11/8/2010 ZZ842 JP Morgan Chase 111 Polaris Pkwy., MC 0H1 0233 Columbus OH 43240 US

11/7/2010 11/8/2010 ZZ855 Nationwide Insurance Enterprise One Nationwide Plaza Columbus OH 43215 US

11/7/2010 11/8/2010 ZZ898 Unisource 525 North Nelson Rd Columbus OH 43219 US

11/7/2010 11/8/2010 WZ534 Mettler Toledo, Inc. 1900 Polaris Parkway Columbus OH 43240 US

11/7/2010 11/8/2010 XG861 Worthington Industries, Inc. 200 Old Wilson Bridge Rd Columbus OH 43085 US

11/7/2010 11/8/2010 WC251 White Castle System, Inc. 555 Goodale Street PO Box 1498 Columbus OH 43216 US

11/7/2010 11/8/2010 QB474 Ohio State University Faculty 1590 EAST HIGH STREET SUITE 300 Columbus OH 43201 US

11/7/2010 11/8/2010 XA925 State Automobile Mutal Insurance 518 East Broad Street Columbus OH 43215 US

11/7/2010 11/8/2010 ZZ831 General Aluminum Mfg. Co 1370 Chamberlain Boulevard Conneaut OH 44030 US

11/7/2010 11/8/2010 UH783 Dayton Power and Light 1065 Woodman Drive DAYTON OH 45432 US

11/7/2010 11/8/2010 ZZ799 Assembly & Test Worldwide, Inc. 313 Mound Street DAYTON OH 45402 US

11/7/2010 11/8/2010 ZZ872 Production Control Units, Inc. 2280 West Dorothy Lane Dayton OH 45439 US

11/7/2010 11/8/2010 WQ726 Robbins & Myers 1400 Kettering Tower Dayton OH 45423 US

11/7/2010 11/8/2010 ZZ902 Wagner Smith Co. 3178 Encrete Lane P.O. Box 672 Dayton OH 45401 US

11/7/2010 11/8/2010 XJ038 Reynolds & Reynolds 1 Reynolds Way OHA1-0140 Dayton OH 45430 US

12/15/2010 11/8/2010 ZZ851 Luvata Ohio, Inc. 1376 Pittsburgh Drive Delaware OH 43015 US Susan Pitchford HR Supervisor 740-368-4321 susan.pitchford@luvata.com

11/7/2010 11/8/2010 ZZ833 Greif, Inc. 425 Winter Road DELAWARE OH 43015 US

11/7/2010 11/8/2010 ZZ807 Claude Sintz, Inc. 300 South Chestnut Street Deshler OH 43516 US

11/7/2010 11/8/2010 WF290 Cardinal Health 7000 Cardinal Place Dublin OH 43017 US Marc Calhoun

11/7/2010 11/8/2010 ZZ825 Fast Switch, Ltd. 37 West Bridge Street, Suite 200 Dublin OH 43017 US

11/7/2010 11/8/2010 ZZ865 Pacer International 6805 Perimeter Dr. Dublin OH 43016 US

11/7/2010 11/8/2010 XE027 Cardinal Health/NPS 7200 Cardinal Place Dublin OH 43017 US

11/7/2010 11/8/2010 XY097 Ashland, Inc. 5200 Blazer Parkway Dublin OH 43017 US

11/7/2010 11/8/2010 WX279 Stanley Steemer International, Inc. 5500 Stanley Steemer Pkwy DUBLIN OH 43017 US

11/7/2010 11/8/2010 ZZ890 The Brown Corp - Midwest Stamping Plant 228 E. Morrison Edgerton OH 43517 US

12/7/2010 11/8/2010 AB734 Veyance Technologies Inc, 703 S Cleveland Massillon Road Fairlawn OH 44333 US David Strebler Mgr Global Indirect Purchasing 330-664-7001 david_strebler@veyance.com

12/23/2010 11/8/2010 ZZ803 Blanchard Valley Health System 1900 S. Main St. Findlay OH 45840 US Abby Hartman Public Relations Coordinator 419.423.5551 ahartman@bvhealthsystem.org

2/10/2011 11/8/2010 XX648 Marathon Oil Company 539 South Main Findlay OH 45840 US Julie Kin Benefits Counselor 419-422-2121 419-421-2099 jlkin@marathonoil.com

11/7/2010 11/8/2010 WM353 Cooper Tire & Rubber Company 701 Lima Ave Findlay OH 45840 US

11/7/2010 11/8/2010 ZZ828 Findlay Industries 4000 Fostoria Road Findlay OH 45840 US

11/7/2010 11/8/2010 UH094 American Electric Power 700 Morrison Road Gahanna OH 43230 US

12/8/2010 11/8/2010 ZZ804 Cimarron Express, Inc. 21611 State Route 51 Genoa OH 43430 US Robert Werth VP Safety & Administration 4198557713 4198558323 bwerth@cimarronexpress.com

11/7/2010 11/8/2010 BA080 Horton Emergency Vehicles 3800 McDowell Road Grove City OH 43123 US

11/7/2010 11/8/2010 ZZ837 Hillsboro Transportation Company 6256 U.S. route 50, West HILLSBORO OH 45133 US

11/7/2010 11/8/2010 ZZ826 Felsted Products, LLC 8351 County Road 245 PO Box 68 Holmesville OH 44633 US

7/1/2011 11/8/2010 RV080 Airstream (Div. of Thor) 419 Pike Street Jackson Center OH 45334 US Cindy Oakley HR Admin. 937-596-6111 937-596-6111 coakley@airstream.com

11/7/2010 11/8/2010 HC085 Davey Tree Expert Company 1500 North Mantua Street Kent OH 44240 US

11/30/2010 11/30/2010 WM791 GE Money - Retail Sales Finance 950 Forrer Blvd. Kettering OH 45420 US Kurt Miller 937-534-2216 kurt.miller@ge.com

11/7/2010 11/8/2010 ZZ796 Amtex 1500 Kingsview Drive LEBANON OH 45036 US

11/7/2010 11/8/2010 ZZ789 Accubilt, Inc. 2550 Central Point Parkway Lima OH 45806 US

11/7/2010 11/8/2010 ZZ896 Tuttle Services, Inc. and Subsidiaries 880 SHAWNEE RD LIMA OH 45805 US


11/7/2010 11/8/2010 ZZ792 Amanda Bent Bolt Company 1120 C.I.C. Drive Logan OH 43138 US

11/7/2010 11/8/2010 VC220 Emerson Network Power Systems America 1122 F Street Lorain OH 44052 US

11/7/2010 11/8/2010 VF272 Sears Carpet & Upholstery 8472 Cotter Street Louis Center OH 43035 US Jeff Guth

11/7/2010 11/8/2010 ZZ840 Jay Industries 150 E. Longview Ave MANSFIELD OH 44903 US

11/7/2010 11/8/2010 XE434 Scott's Company 14111 Scottslawn Road Marysville OH 43041 US

3/13/2011 11/8/2010 NH867 Luxottica Retail North America 4000 Luxottica Place MASON OH 45040 US Cindy Mitchell YouDecide 222-222-2222 222-222-2222 kevin.kannenberg@youdecide.com

12/13/2010 11/8/2010 WM625 Cengage Learning 5191 Natorp Blvd Mason OH 45040 US Victoria Hershberger Sr. Human Resources Coordinator 513-229-1461 victoria.hershberger@cengage.com

11/7/2010 11/8/2010 ZZ852 Makino, Inc. 7680 Innovation Way Mason OH 45040 US

11/7/2010 11/8/2010 NZ807 Spartan Chemical Company 1110 Spartan Drive MAUMEE OH 43537 US

11/7/2010 11/8/2010 N8284 Novelis 6060 Parkland Boulevard Mayfield Heights OH 44124 US

11/7/2010 11/8/2010 XU103 Progressive Insurance 5910 Landerbrook Box L 23A Mayfield Heights OH 44124 US

11/7/2010 11/8/2010 ZZ877 RPM International 2628 Pearl Road Medina OH 44256 US

11/7/2010 11/8/2010 ZZ847 LexisNexis 8891 Gander Creek Dr Miamisburg OH 45342 US

11/7/2010 11/8/2010 ZZ791 AK Steel Holding Corp. 703 Curtis Street MIDDLETOWN OH 45043 US

12/14/2010 11/8/2010 WF286 Usui International Corporation 1045 Reed Road Monroe OH 45050 US Patti Swillinger-Haas HR Manager 513-539-4591x5102 pattiswillinger@usui.co.jp

11/7/2010 11/8/2010 ZZ869 Powers & Sons LLC 1613 Magda Dr MONTPELIER OH 43543 US

11/7/2010 11/8/2010 ZZ801 Automatic Feed Co 476 E. Riverview Avenue Napoleon OH 43545 US

11/7/2010 11/8/2010 VG890 Tween Brands 8323 Walton Parkway NEW ALBANY OH 43054 US

11/7/2010 11/8/2010 NF128 Crown Equipment Corporation 44 S Washington Street NEW BREMEN OH 45869 US

11/7/2010 11/8/2010 ZZ798 ASC Industries, Inc 2100 International Parkway NORTH CANTON OH 44720 US

11/7/2010 11/8/2010 XU088 Diebold 5995 Mayfair Road North Canton OH 44720 US

11/7/2010 11/8/2010 ZZ848 Liberty Steel Products 11650 Mahoning Avenue North Jackson OH 44451 US

11/7/2010 11/8/2010 ZZ795 America's Body 3 Acorn Drive Oakwood Village OH 44146 US

11/7/2010 11/8/2010 ZZ794 American Motorcyclist Assocation 13515 Yarmouth Drive Pickerington OH 43147 US

12/30/2010 11/8/2010 ZZ860 OEConnection 4205 Highlander Parkway Richfield OH 44286 US Rebecca Littlejohn HR Coordinator 3305231605 3305231800 rebecca.littlejohn@oeconnection.com

3/18/2011 11/8/2010 WD594 Konecranes, Inc. 4401 Gateway Boulevard Springfield OH 45502 US RACHEL JOHNSON FLEET SPECIALIST 937-525-5514 937-525-5533 rachel.johnson@konecranes.com

11/7/2010 11/8/2010 ZZ843 Kaiser Permanente 17406 Royalton Road Strongsville OH 44136 US

11/7/2010 11/8/2010 ZZ888 Steere Enterprises 285 Comerce Street Tallmadge OH 44278 US

11/7/2010 11/8/2010 WA671 Webster Industries, Inc. 325 Hall Street Tiffin OH 44883 US

11/7/2010 11/8/2010 ZZ871 Process Equipment Company 6555 South State Route 202 Tipp City OH 45371 US

12/21/2010 11/8/2010 ZZ849 Lott Industries/Lucas County Board MRDD 3350 Hill Avenue Toledo OH 43607 US Jeff Holland Chief Financial Officer 419-536-5564 jholland@lucasdd.org

11/7/2010 11/8/2010 ZZ814 Dana Corporation 4500 Dorr Street Toledo OH 43615 US

11/7/2010 11/8/2010 ZZ856 New Mather Metals, Inc. 5270 N Detroit Avenue TOLEDO OH 43612 US

11/7/2010 11/8/2010 ZZ868 Pilkington N.A., Inc. 811 Madison Avenue Toledo OH 43697 US

11/7/2010 11/8/2010 ZZ884 SSOE, Inc. 1001 Madison Ave. TOLEDO OH 43604 US

11/7/2010 11/8/2010 ZZ895 Toledo Molding & Dye 1429 Coining Drive Toledo OH 43612 US

11/7/2010 11/8/2010 XA931 Owens Corning Corporation One Owens Corning Parkway Toledo OH 43659 US

11/7/2010 11/8/2010 XX132 ITW Food Equipment Group 701 Ridge Avenue Troy OH 45374 US

11/7/2010 11/8/2010 ZZ882 Shiloh Industries 880 Steel Drive Valley City OH 44280 US

11/7/2010 11/8/2010 ZZ844 Kendale Industries, Inc. 7600 Hub Parkway Valley View OH 44125 US

1/11/2011 11/8/2010 XY864 Rudolph/Libbe & GEM Inc. 6494 Latcha Road WALBRIDGE OH 43465 US Beth McCowin HR Assistant 1-419-725-3293 1-419-241-5000 beth.mccowin@rlcos.com

11/7/2010 11/8/2010 ZZ889 Stoneridge Company 9400 East Market Street Warren OH 44484 US

11/7/2010 11/8/2010 ZZ839 IDG 9407 Meridan Way West Chester OH 45069 US

11/7/2010 11/8/2010 WI072 Cable Express 374 Westdale Westerville OH 43082 US

11/7/2010 11/8/2010 ZZ822 Exel 500 Polaris Way Westerville OH 43082 US

11/7/2010 11/8/2010 XA972 Ohio Farmers Insurance Company One Park Circle Westfield Center OH 44251 US

12/7/2010 11/8/2010 ZZ845 Koyo Corporation of USA 29570 Clemens Road Westlake OH 44145 US Susan Mahony Corporate Human Resources Manager 4408351000 4408351010 smahony@koyousa.com

11/7/2010 11/8/2010 XG977 The Lubrizol Corp. 29400 Lakeland Boulevard Wickliffe OH 44092 US

11/7/2010 11/8/2010 ZZ850 Luk USA 3401 Old Airport Road Wooster OH 44691 US

11/7/2010 11/8/2010 BX671 Stahl 3201 West Old Lincoln Way Wooster OH 44691 US

11/7/2010 11/8/2010 ZZ824 Falcon Transport 650 North Meridian Road YOUNGSTOWN OH 44509 US

11/7/2010 11/8/2010 VN854 Conoco Phillips 317 Adams Building Bartlesville OK 74004 US

3/13/2011 3/4/2011 AE041 Auto Club of America 9411 North Georgia Oklahoma City OK 73120 US

11/7/2010 11/8/2010 XB832 American Fidelity Corporation 2000 Classen Center Oklahoma City OK 73125 US

11/7/2010 11/8/2010 NH774 SemCrude 11501 South I-44 Service Road Oklahoma City OK 73173 US

11/7/2010 11/8/2010 ZZ906 Dealers Auto Auction of OKC, Inc. 1028 S Portland Oklahoma City OK 73108 US

11/7/2010 11/8/2010 ZZ909 Postrock Energy 210 PARK AVENUE ste 2750 OKLAHOMA CITY OK 73102 US

11/7/2010 11/8/2010 WB123 Chesapeake Energy Corporation 6100 N. Western Avenue Oklahoma City OK 73154 US

11/7/2010 11/8/2010 XZ305 Devon Energy Corporation 20 North Broadway, Suite 1500 Oklahoma City OK 73102 US

11/7/2010 11/8/2010 WC436 Sandridge Energy 123 Robert S Kerr Ave OKLAHOMA CITY OK 73102 US

3/16/2011 11/18/2010 TEST1 TEST US PARTNER TEST ADDRESS TEST CITY OK 99999 US Key Contact name KC title 555-555-5555 555-555-5556 fake_email_@iassist.ca

12/7/2010 11/8/2010 BA092 Ramsey Winch/Auto Crane 4707 N Mingo Road Tulsa OK 74117 US Kerra Zavala HR Generalist 918-438-2760 918-234-2110 kerrazavala@ramseyindustries.com

12/29/2010 11/8/2010 XA872 Helmerich & Payne 1437 South Bolder Tulsa OK 74119 US Liz Shaddox Human Resources Assistant 918-588-5219 918-588-5700 liz.shaddox@hpinc.com

11/7/2010 11/8/2010 XB859 Hilti, Inc. 5400 South 122nd East Avenue Tulsa OK 74146 US

11/7/2010 11/8/2010 NH560 The Williams Company One Williams Center, MD 35-6 Tulsa OK 74172 US

11/7/2010 11/8/2010 NJ876 McJunkin Red Man Corporation 8023 E 63rd Pl., Ste 800 TULSA OK 74133 US

11/7/2010 11/8/2010 XD364 Flint Energy Services Inc 7633 E 63rd Place, Suite 500 Tulsa OK 74133 US

11/7/2010 11/8/2010 XW877 Blue Cross Blue Shield of OK 1215 S. Boulder Tulsa OK 74119 US

11/7/2010 11/8/2010 ZZ908 Newfield Exploration Inc One Williams Center, Suite 1900 TULSA OK 74172 US

11/7/2010 11/8/2010 XG587 QuikTrip Corporation 4705 South 129th East Avenue Tulsa OK 74134 US

11/7/2010 11/8/2010 DL204 Dollar Thrifty Automotive Group 5330 East 31st Street Tulsa OK 74135 US

12/5/2011 11/8/2010 XI723 FedEx Ground 1000 FedEx Drive Moon Township ON 15108 US Yuri Malinovski YouDecide 222-222-2222 222-222-2222 komarovka@yahoo.com

12/28/2010 12/28/2010 AE030 Reddaway Inc. 16277 SE130th Avenue Clackamas OR 97015 US John Smith (503) 722-3505

3/29/2011 11/8/2010 ZZ917 Warn Industries 12900 SE Capps Rd Clackamas OR 97015 US Trish Ehl Human Resources 503-722-1200 503-659-8750 ehlt@warn.com

11/7/2010 11/8/2010 HB852 The Pape Group, Inc. 355 Goodpasture Island Road Eugene OR 97401 US

11/7/2010 11/8/2010 XD999 Intel Corporation 5300 NE Elam Young Parkway Hillsboro OR 97124 US

11/7/2010 11/8/2010 ZZ912 Jeld-Wen, Inc. 3922 Lakeport Boulevard Klamath Falls OR 97601 US

2/28/2011 2/28/2011 WB230 Northwest Pump & Equipment Co. 2800 NW 31st Street Portland OR 97210 US Bob Matthews (503) 227-7867

11/7/2010 11/8/2010 ZZ127 Kinder Care 650 Northeast Holladay Suite 1400 Portland OR 97232 US David Lear

11/7/2010 11/8/2010 UH479 Pacificorp 825 Multnomah Portland OR 97232 US

11/7/2010 11/8/2010 ND179 Electrical Construction Company 2121 NW Thurman Portland OR 97210 US

11/7/2010 11/8/2010 ZZ910 Adidas 5055 N. Greeley Ave. Portland OR 97217 US

11/7/2010 11/8/2010 ZZ916 TRM Copy Centers, LLC 12441 NE Marx Street PORTLAND OR 97230 US

11/7/2010 11/8/2010 ZZ918 Williams Controls 14100 Southwest 72nd Avenue Portland OR 97223 US

11/7/2010 11/8/2010 ZZ914 Roseburg Forest Products Inc Old Highway 99 South ROSEBURG OR 97470 US

11/7/2010 11/8/2010 ZZ945 Pennsylvania Power & Light (PPL) Two North 9th Street Allentown PA 18101 US

11/7/2010 11/8/2010 XI979 Air Products & Chemicals, Inc. 7201 Hamilton Boulevard Allentown PA 18195 US

11/7/2010 11/8/2010 XM863 Sheetz Inc 5700 6th Ave Altoona PA 16602 US

11/7/2010 11/8/2010 ZZ934 Harmelin Media 525 Righters Ferry Road Bala Cynwyd. PA 19004 US

3/8/2011 11/8/2010 XG120 Giles & Ransome 2975 Galloway Road Bensalem PA 19020 US Lauren Hooven Sr. HR Generalist 215-245-3772 lhooven@ransome.com

11/7/2010 11/8/2010 AB556 Mod Space 1200 Swedesford Road BERWYN PA 19312 US

11/7/2010 11/8/2010 ZZ923 Buzzi Unicem 100 Brodhead Road BETHLEHEM PA 18017 US

11/7/2010 11/8/2010 XG864 Bethlehem Steel Corporation 1170 8th Avenue, Room 4585 Bethlehem PA 18016 US

11/7/2010 11/8/2010 ZZ928 CJ''s Tire & Automotive 91 Ben Franklin Hwy West Birdsboro PA 19508 US

10/24/2011 11/8/2010 HM001 Henkels & McCoy 985 Jolly Road Blue Bell PA 19422 US James Fiant Fleet Operations Manager 2152837953 jfiant@henkels.com


12/28/2010 12/28/2010 AE026 BBL Leasing 100 Old Pond Road Bridgeville PA 15017 US Pam Hacket (412) 220-2030 pamh@bblfleet.com

11/7/2010 11/8/2010 WR498 Maxim Crane Works 1225 Washington Pike Bridgeville PA 15017 US

11/7/2010 11/8/2010 ZZ922 Brockway Pressed Metals, Inc. 921 Clark Street Brockway PA 15824 US

10/22/2011 11/8/2010 UH153 Armstrong Group of Companies 1 Armstrong Place Butler PA 16001 US Richard Baich Fleet Manager 7242830925 tuncapher@agoc.com

11/7/2010 11/8/2010 XM704 Rite Aid Corporation 30 Hunter Lane Camp Hill PA 17011 US Debbie Struna

11/7/2010 11/8/2010 UH151 Reliant Energy 121 Champion Way Suite 200 Canonsburg PA 15317 US

11/7/2010 11/8/2010 WR787 Mylan Laboratories 1500 Corporate Drive Canonsburg PA 15317 US

11/7/2010 11/8/2010 ZZ921 ANSYS, Inc. 275 Technology Drive CANONSBURG PA 15317 US

11/7/2010 11/8/2010 XG938 Centimark Corporation 12 Grandview Circle Canonsburg PA 15317 US

11/7/2010 11/8/2010 NM520 Endo Pharmaceuticals 100 Endo Blvd CHADDS FORD PA 19317 US

11/7/2010 11/8/2010 XX957 Quest Diagnostics, Inc. 1201 South Collegeville Road Collegeville PA 19426 US

11/7/2010 11/8/2010 XA413 Interstate Fleets 696 Bethlahem Pike Colmar PA 18915 US Fred Shilling

12/6/2010 11/8/2010 BA003 Southco 210 N. Brinton Lake Road PO Box 0116 Concordville PA 19331 US Judy Barlow Human Resources Generalist 610-361-7068 jbarlow@southco.com

11/7/2010 11/8/2010 UH513 Allegheny Energy Company 313 South 7th Street Connellsville PA 15425 US

11/7/2010 11/8/2010 ZZ948 Quaker Chemical Corporation 901 Hector Street Conshohocken PA 19428 US

11/7/2010 11/8/2010 XA366 Multiserv Div. of Harsco 8050 Rowan Road Cranberry Township PA 16066 US

11/7/2010 11/8/2010 NS126 Fort Pitt Group 607 Blackmoore Drive Cranberry Twp PA 16066 US

11/7/2010 11/8/2010 BA144 Curry Supply Company Rt 866 Curryville PA 16631 US

11/7/2010 11/8/2010 ZZ930 DecisionOne Corporation 426 West Lancaster Avenue Devon PA 19333 US

11/7/2010 11/8/2010 XL738 Victaulic Company 4901 Kesslersville Road Easton PA 18040 US

1/10/2011 11/8/2010 XX396 84 Lumber Company 1019 Route 519 Eighty Four PA 15330 US Michael McCarty Fleet Manager 724-228-8820 mccartym@84lumber.com

11/7/2010 11/8/2010 ZZ924 Caplugs Niagara 7090 Edinboro Road Erie PA 16509 US

11/7/2010 11/8/2010 VK268 Belfor 608 Jeffers Circle Exton PA 19341 US

4/29/2011 11/8/2010 WN096 Cephalon 41 Moores Road Frazer PA 19355 US Pina Daniele HR Associate 610-883-5808 610-883-5808 pdaniele@cephalon.com

11/7/2010 11/8/2010 XJ168 Wyeth 33 Morehall Road Frazer PA 19355 US

11/7/2010 11/8/2010 BA042 Jerr-Dan 1080 Hykes Road Greencastle PA 17225 US

11/7/2010 11/8/2010 XI439 Cleveland Brothers Equipment Co. 5300 Paxton Street Harrisburg PA 17111 US

11/7/2010 11/8/2010 ZZ944 North American Hoganas Inc 111 Hoganas Way Hollsopple PA 15935 US

11/7/2010 11/8/2010 ZZ932 Eat'n Park Hospitality Group, Inc 285 E. Waterfront Drive Homestead PA 15120 US

7/26/2011 11/8/2010 WL936 TransCore 8158 Adams Dr HUMMELSTOWN PA 17036 US Jane Bell Indirect Buyer 717-561-5875 jane.bell@transcore.com

11/7/2010 11/8/2010 ZZ956 Superior Well Services 1380 Route 286 Suite 121 Indiana PA 15701 US

8/11/2011 11/8/2010 ZZ953 SPS Technologies, Inc. 301 Highland Avenue Jenkintown PA 19046 US Jerry Creed Manager Employee Relations 215-572-3406 215-572-3402 gcreed@spstech.com

5/5/2011 11/8/2010 XA437 Amerigas Propane, LP 460 North Gulph Road King of Prussia PA 19406 US

11/7/2010 11/8/2010 XA390 Armstrong World Ind 2500 Columbia Avenue Lancaster PA 17603 US

1/10/2012 11/8/2010 XC739 SKF USA Inc 890 Forty Foot Road LANSDALE PA 19446 US Steven Soetjiandi Application Engineer 1-267-4366469 steven.asku@gmail.com

11/7/2010 11/8/2010 XE924 Dick Corporation 1900 State Route 51 South Large PA 15025 US

3/13/2011 3/4/2011 AE076 Teleflex Incorporated 155 South Limerick Rd. Limerick PA 19468 US

11/7/2010 11/8/2010 ZZ940 JSP International 273 Great Valley Pkwy Malvern PA 19355 US

11/7/2010 11/8/2010 NW594 Auxilium Pharmaceuticals 40 Valley Stream Parkway MALVERN PA 19355 US

11/7/2010 11/8/2010 XA386 JLG Industries, Inc. 1 JLG Drive McConnellsburg PA 17233 US

11/7/2010 11/8/2010 WB426 Wawa 260 W. Baltimore Pike MEDIA PA 19063 US

3/13/2011 11/8/2010 XE583 Tyco Electronics 2801 Fulling Mill Road MIDDLETOWN PA 17057 US Cathy Crossley YouDecide 222-222-2222 222-222-2222 kevin.kannenberg@youdecide.com

12/21/2011 11/8/2010 XA443 JC Ehrlich 130 Old Gate Lane Milford PA 6460 US Jay Schwab Sales 203.212.0695 john.schwab@jcehrlich.com

11/7/2010 11/8/2010 NC889 Nova Chemicals, Inc. 1550 Coraopolis Heights Moon Township PA 15108 US

11/7/2010 11/8/2010 ZZ933 Elkem Metal Inc. 400 Rouser Road Moon Twp. PA 15108 US

11/7/2010 11/8/2010 ZZ926 Case New Holland 500 Diller Avenue New Holland PA 17557 US

11/7/2010 11/8/2010 NW605 USM 1880 Markley St NORRISTOWN PA 19401 US

11/7/2010 11/8/2010 WP187 Ametek, Inc. 37 North Valley Road Paoli PA 19301 US

2/28/2011 11/8/2010 AD951 Thorp Reed &Armstrong, LLP One Commerce Square Philadelphia PA 19103 US John P. Donohue Partner 215-640-8500 412-394-2404 jdonohue@thorpreed.com

1/10/2011 11/8/2010 XC232 Aramark 1101 Market Street, 12nd Floor Philadelphia PA 19107 US Kevin Fisher VP Strategic Fleet Operations 215-238-6193 484-357-4900 fisher-kevin@aramark.com

11/7/2010 11/8/2010 XY642 Crown, Cork & Seal One Crown Way Philadelphia PA 19154 US Rich Nunn

3/6/2011 2/28/2011 AE036 Dentsply International 221 W. Philadelphia St. Philadelphia PA 17401 US Sharon Colburn Corporate HR Administrator (717) 849-4311 sharon.colburn@dentsply.com

12/5/2010 12/5/2010 7D378 CROWN CORK & SEAL USA INC. 1 Crown Way Philadelphia PA 19154 US Teri Shuttie 215-69851338

11/7/2010 11/8/2010 XJ533 Sunoco, Inc. 1818 Market Street Philadelphia PA 19103 US

11/7/2010 11/8/2010 AB168 Sonepar USA 510 Walnut St, Ste 400 PHILADELPHIA PA 19106 US

11/7/2010 11/8/2010 AC006 Transfield Services 1818 Market St, Ste 3310 PHILADELPHIA PA 19103 US

11/7/2010 11/8/2010 ZZ929 Comcast Communications 1500 Market Street Philadelphia PA 19102 US

11/7/2010 11/8/2010 ZZ954 StarCite, Inc. 1650 Arch Street, 18th Floor Philadelphia PA 19103 US

11/7/2010 11/8/2010 ZZ955 Stonepath Group 1600 Market Street, Suite 1515 Philadelphia PA 19103 US

11/7/2010 11/8/2010 ZZ957 University Of Pennsylvania 3401 Walnut Street, Suite 527A Philadelphia PA 19104 US

11/7/2010 11/8/2010 XF456 Pep Boys 3111 West Allegheny Avenue Philadelphia PA 19132 US

9/9/2011 11/8/2010 XG230 Limbach Facility Services LLC 31 35th Street Pittsburgh PA 15201 US Cristine Leifheit Human Resources 412-359-2245 412-359-2100 cristine.leifheit@limbachinc.com

10/3/2011 11/8/2010 XJ088 Bayer 100 Bayer Rd. Bldg. #14 PITTSBURGH PA 15205 US Kevin Cowan Sr. Engineer 412 767 2400 x4041 kcowan@medrad.com

12/13/2010 11/8/2010 ZZ619 U. S. Steel 600 Grant Street Pittsburgh PA 15219 US Mike McKee Director - Savings Plans 412-433-4880 mbmckee@uss.com

1/31/2011 11/8/2010 XA317 H. J. Heinz 357 6th Avenue Pittsburgh PA 15222 US Paula Bucklad Manager Fleet Operations 412-237-5252 paula.bucklad@us.hjheinz.com

2/14/2011 11/8/2010 WR046 Alcoa Inc. 201 Isabella St Pittsburgh PA 15212 US William Johnson Procurement Sourcing Mgr 812-454-2785 812-853-4436 bill.e.johnson@alcoa.com

11/7/2010 11/8/2010 WK735 Wellington Power Corp 40th and Bulter Streets Pittsburgh PA 15201 US

11/7/2010 11/8/2010 NE032 Wesco Distribution, Inc. 225 W Station Square Dr Suite Pittsburgh PA 15219 US

11/7/2010 11/8/2010 XC292 Del Monte Foods 375 North Shore Drive PITTSBURGH PA 15212 US

11/7/2010 11/8/2010 XC858 United Steelworkers 5 Gateway Center Pittsburgh PA 15222 US

11/7/2010 11/8/2010 XX862 J & L Specialty One PPG Place Pittsburgh PA 15230 US

11/7/2010 11/8/2010 XX915 Allegheny Technologies Inc 1000 Six PPG Place Pittsburgh PA 15222 US

11/7/2010 11/8/2010 WU069 Giant Eagle, Inc. 101 Kappa Drive PITTSBURGH PA 15238 US

11/7/2010 11/8/2010 ZZ947 PPG Industries, Inc. One PPG Place Pittsburgh PA 15272 US

11/7/2010 11/8/2010 WA314 Pitt Ohio Express 15 27th Street Pittsburgh PA 15222 US

11/7/2010 11/8/2010 KK008 Carnegie Mellon University Faculty College of Engineering Pittsburgh PA 15213 US

11/7/2010 11/8/2010 UH139 Equitable Resources 200 Allegheny Center Mall Pittsburgh PA 15212 US

11/7/2010 11/8/2010 XK659 Keystone Automotive Operations Inc. 44 Tunkhannock Ave PITTSTON PA 18643 US

7/25/2011 7/25/2011 WV515 Penske Route 10 Green Hills Reading PA 19603 US Jeff Kulikowski 610-775-6177 jeff.kulikowski@penske.com

3/13/2011 3/4/2011 AE078 UGI Utilities, Inc. 100 Kachel Blvd, Suite 400 Reading PA 19612-2677 US

11/7/2010 11/8/2010 WM280 Enersys, Inc. 2366 Bernville Road Reading PA 19605 US

11/7/2010 11/8/2010 BA524 Reading Truck Body Hancock Blvd. & Gerry St. PO Box 650 Reading PA 19611 US

11/7/2010 11/8/2010 ZZ942 Keystone Powdered Metal Company 251 State Street Saint Marys PA 15857 US

11/7/2010 11/8/2010 XA442 Saint Gobain 750 E. Swedeford Rd Valley Forge PA 19482 US Mark Williams

11/7/2010 11/8/2010 WJ278 Houghton International, Inc. Madison and Van Buren Avenues Valley Forge PA 19482 US

11/7/2010 11/8/2010 ZZ935 Houghton International 945 Madison Ave VALLEY FORGE PA 19482 US

11/7/2010 11/8/2010 QX192 Villanova University 800 Lancaster Avenue Villanova PA 19085 US

11/7/2010 11/8/2010 NZ157 Rue 21 800 Commonwealth Dr Ste 100 WARRENDALE PA 15086 US Suzanne Toy

11/7/2010 11/8/2010 ZZ951 Sae International 400 Commonwealth Drive Warrendale PA 15096 US

11/7/2010 11/8/2010 VP644 Shire US, Inc. 725 Chesterbrook Blvd Wayne PA 19087 US Josie Sharp

11/7/2010 11/8/2010 WJ271 Johnson Matthey PLC 456 Devon Park Drive Wayne PA 19087 US

11/7/2010 11/8/2010 ZZ937 InvestorForce, Inc. 1400 Liberty Ridge Dr Ste 107 Wayne PA 19087 US

11/7/2010 11/8/2010 ZZ927 Cinetic Landis Grinding Corp 20 East Sixth Street Waynesboro PA 17268 US

11/7/2010 11/8/2010 XA423 Asplundh Tree Expert Co. 708 Blair Mill Road Willow Grove PA 19090 US

11/7/2010 11/8/2010 XF496 American Infrastructure 1805 Berks Road Worcester PA 19490 US

11/7/2010 11/8/2010 AE137 Eurand 790 Township Line Road Yardley PA 19067 US Lisa Daniels


11/7/2010 11/8/2010 UX409 PH Glatfelter Co 96 S. George Street York PA 17401 US

8/11/2011 11/8/2010 ZZ961 Hexagon Metrology 250 Circuit Drive NORTH KINGSTOWN RI 2852 US Susan Lassy Recruiting & HR Compliance Mrg. 401-886-2000 401-886-2523 susan.lassy@hexagonmetrology.com

1/24/2011 11/8/2010 XZ522 Gtech 10 Memorial Boulevard Providence RI 2903 US Karen Kerns Corporate Fleet Manager (401) 392-2060 karen.kearns@gtech.com

3/13/2011 3/4/2011 AE056 Gilbane Building Company 7 Jackson Walkway Providence RI 2903 US

11/7/2010 11/8/2010 VN091 Sperian Protection USA, Inc. 900 Douglas Pike SMITHFIELD RI 2917 US

3/13/2011 3/4/2011 AE039 AMI (Association of Marina Industries) 50 Water Street Warren RI 2885 US

11/7/2010 11/8/2010 WI062 TTI 1428 N Pearman Dairy Road Anderson SC 29625 US

11/7/2010 11/8/2010 Q321K Hagemeyer North America 1460 Tobias Gasdon Blvd. CHARLESTON SC 29407 US

11/7/2010 11/8/2010 WG864 AstenJohnson 4399 Corporate Road Charleston SC 29405 US

3/13/2011 3/4/2011 AE063 Palmetto Health Alliance 5 Richland Medical Park Dr Columbia SC 29203 US

11/7/2010 11/8/2010 WB909 Terminix Service, Inc. 3618 Fernandina Rd COLUMBIA SC 29210 US

12/13/2010 11/8/2010 NG804 Domtar Paper Company, LLC 100 Kingsley Park Drive FORT MILL SC 29715 US Ann Tepfenhart Indirect Spend Contract Manager 8038028174 8034126200 ann.tepfenhart@domtar.com

11/7/2010 11/8/2010 WN293 Sunbelt Rentals 2341 Deerfield Drive FORT MILL SC 29715 US

11/7/2010 11/8/2010 VV489 Muzak, Inc. 3318 Lakemont Boulevard Fort Mill SC 29708 US

11/7/2010 11/8/2010 ZZ963 Pierburg, Inc. 5 Southcase Court FOUNTAIN INN SC 29644 US

11/7/2010 11/8/2010 XG011 Michelin One Parkway South Greenville SC 29615 US

11/7/2010 11/8/2010 VE268 Guardian Building Products, Inc. 979 Batesville Rd Greer SC 29651 US

12/10/2010 11/8/2010 ZZ965 IFA Rotorion - North America LLC 9770 Patriot Blvd. Ste. 100 Ladson SC 29456 US Barbara Corbin Manager, HR & Administration 843-486-5404 843-486-5400 barbara.corbin@rotorion.com

11/7/2010 11/8/2010 BA329 Road Rescue, Inc. 2914 Spartan Place Marion SC 29571 US

11/7/2010 11/8/2010 VC604 Stewart Enterprises 2432 Gentry Memorial Hwy Pickens SC 29671 US

11/7/2010 11/8/2010 XZ958 Malphrus Construction Company Inc 30 Red Oaks Lane Ridgeland SC 29936 US

11/7/2010 11/8/2010 XW828 Denny's 203 East Main Street Spartanburg SC 29319 US

11/7/2010 11/8/2010 XB350 CP Family of Companies 140 N Phillips Ave SIOUX FALLS SD 57104 US

11/7/2010 11/8/2010 NL162 NorthWestern Corporation 125 South Dakota Avenue Sioux Falls SD 57104 US

11/7/2010 11/8/2010 NJ817 King Pharmaceuticals 501 Fifth Street Bristol TN 37620 US

11/7/2010 11/8/2010 XM632 Astec Industries 4101 Jerome Ave Chattanooga TN 37401 US

11/7/2010 11/8/2010 WS328 Life Care Centers of America, Inc. 3001 KEITH ST, NW CLEVELAND TN 37312 US

11/7/2010 11/8/2010 ZZ967 Automation Tool Company 101 Mill Drive COOKEVILLE TN 38501 US

11/7/2010 11/8/2010 ZZ971 Colonial DPP P.O. Box 930 Dyersburg TN 38025 US

11/7/2010 11/8/2010 AD979 Nissan North America Inc. One Nissan Way Franklin TN 37067 US

11/7/2010 11/8/2010 AD984 Infiniti Motors of America PO Box 685003 Franklin TN 37068 US

11/7/2010 11/8/2010 XA839 Nortel 6678 Kelly Willis Road Greenbrier TN 37073 US

11/7/2010 11/8/2010 WB728 Eastman Chemical Company 100 North Eastman Rd., Bldg 75 Kingsport TN 37662 US

11/7/2010 11/8/2010 ZZ977 ImagePoint Inc. 445 South Gay Street Knoxville TN 37902 US

11/7/2010 11/8/2010 ZZ982 Oozx USA 10101 Caneel Drive Knoxville TN 37931 US

11/7/2010 11/8/2010 ZZ979 Maremont 2400 Maremont Parkway LOUDON TN 37774 US

11/7/2010 11/8/2010 ZZ980 M-Tek Inc. 1020 Volunteer Parkway Manchester TN 37355 US

11/7/2010 11/8/2010 WA449 Clayton Homes 5000 Clayton Road Maryville TN 37804 US

11/7/2010 11/8/2010 ZZ973 Exedy America 2121 Holston Bend Drive Mascot TN 37806 US

11/7/2010 11/8/2010 AD949 Continental Traffic Services 5100 Poplar Ave. 15th Floor Memphis TN 38137 US Freddy Fayez Account Manager 901 766 1500 ext 7501 fayezb@ctsi-global.com

1/13/2011 11/8/2010 AB525 American Residential Services LLC 965 Ridge Lake Blvd, Ste 201 MEMPHIS TN 38120 US Michael Baessler Dir Purchasing & Fleet 901-271-9965 901-351-2884 mbaessler@ars.com

6/3/2011 11/8/2010 ZZ974 FedEx Express 3660 Hacks Cross Rd, Bldg F, 3rd FL Memphis TN 38125 US Pamela Martin Benefits Advisor 901-434-4959 pamela.martin@fedex.com

11/7/2010 11/8/2010 XP890 Vitro America, Inc 965 Ridge Lake Blvd Suite 300 Memphis TN 38120 US Roy Stone

11/7/2010 11/8/2010 NL311 TruckPro 60 Madison Avenue Memphis TN 38103 US

11/7/2010 11/8/2010 XD883 Conwood Sales Co LLC 813 Ridgelake Blvd Memphis TN 38120 US

11/7/2010 11/8/2010 ZZ968 BlueCross BlueShield of Tennessee 85 N. DANNY THOMAS BLVE Memphis TN 38103 US

11/7/2010 11/8/2010 XY557 AutoZone, Inc. 123 S. Front St. Memphis TN 38103 US

11/7/2010 11/8/2010 ZZ983 Sedgwick CMS, Inc. 1100 Ridgeway Loop Road Memphis TN 38120 US

11/7/2010 11/8/2010 HC374 ServiceMaster, Inc. 860 Ridge Lake Boulevard Memphis TN 38120 US

11/7/2010 11/8/2010 XJ014 International Paper 6400 Poplar Ave MEMPHIS TN 38197 US

11/7/2010 11/8/2010 XJ018 Helena Chemical 6075 Poplar Avenue Suite 500 Memphis TN 38119 US

11/7/2010 11/8/2010 ZZ969 Calsonic Yorozu Corporation 395 Mt. View Industrial Drive Morrison TN 37357 US

11/7/2010 11/8/2010 WY594 Mahle Stiftung, GMBH P.O.Box 748,1 Mahle Morristown TN 37815-0748 US

11/7/2010 11/8/2010 BA040 Miller Industries 8503 Hilltop Drive Ooltewah TN 37363 US

11/7/2010 11/8/2010 ZZ975 Fleetline Products, Inc. 784 Bill Jones Industiral dr Springfield TN 37172 US

11/7/2010 11/8/2010 ZZ970 Carl Dan Peddinghaus 2105 Schmiede St Surgoinsville TN 37873 US

7/22/2011 7/21/2011 AE106 Gabae Holding 4500 Westgrove Drive, Suite 215 Addison TX 75001 US Ross Mandel Advisor 9729306282 ross@gabaeholding.com

11/7/2010 11/8/2010 XN521 J-W Operating Company 15508 Wright Brothers Drive Addison TX 75001 US

11/7/2010 11/8/2010 XR473 Cal Farleys Boys Ranch 600 West 11th Street Amarillo TX 79101 US

11/7/2010 11/8/2010 ZZ987 American Quarter Horse Assoc 1600 Quarter Horse Drive AMARILLO TX 79104 US

9/14/2011 9/14/2011 AE114 Seton Healthcare 1345 Philomena Street Austin TX 78723 US Monica Dermott (512) 324-5689

11/7/2010 11/8/2010 ZT042 Unisys Corporation P.O. Box 203550 Austin TX 78720 US

11/7/2010 11/8/2010 ZT044 University of Texas System Admin. 702 Colorado Street Austin TX 78701 US

11/7/2010 11/8/2010 ZZ991 Beneplace 9508 Jollyville Rd. Austin TX 78759 US

11/7/2010 11/8/2010 ZZ994 Brown, McCarroll, LLP 111 Congress Ave., Suite 1400 Austin TX 78701 US

11/7/2010 11/8/2010 ZT012 Freescale Semiconductor Inc 6501 William Cannon Drive West Austin TX 78735 US

11/7/2010 11/8/2010 ZT039 Trilogy, Inc. 6011 West Courtyard Austin TX 78730 US

11/7/2010 11/8/2010 XP631 PSC 6164 West Port Arthur Road Beaumont TX 77705 US LG Rivers

11/30/2010 11/30/2010 AE023 Warrantech Automotive, Inc. 2200 Highway 121 Bedford TX 76021 US Dominic Sansone 817-785-6305 817-785-6304 sansone@warrantech.com

11/7/2010 11/8/2010 XI885 Blue Bell Creameries, L.P. 1101 S Blue Bell Rd BRENHAM TX 77833 US

3/13/2011 3/4/2011 AE046 BeautiControl, Inc. 2121 Midway Road Carrollton TX 75006 US

11/7/2010 11/8/2010 ZZ985 AER P.O 979 1605 Surveyor Rd Carrollton TX 75006 US

8/15/2011 11/8/2010 ZT043 The Reynolds & Reynolds Company 200 Quality Cirle College Station TX 77845 US Michael Pittman Key Hardware Support Tech 979-595-2600 979-229-8645 Michael_pittman@reyrey.com

11/7/2010 11/8/2010 AD988 Texas A & M Univerisity Faculty 1260 TAMU College Station TX 77843 US

11/7/2010 11/8/2010 UH549 CoServ Electric 7701 S Stemmons Corinth TX 76210 US

11/7/2010 11/8/2010 XJ692 Whataburger Inc. 4600 Parkdale Drive Corpus Christi TX 78411 US

11/7/2010 11/8/2010 XJ701 Bay LTD 1414 Corn Products Road Corpus Christi TX 78469 US

7/7/2011 11/8/2010 ZZ988 Austin Industries 3535 Travis Street, Suite 300 Dallas TX 75222 US Jimmy Lindsey Fleet Manager 2144435500 9728771279 jlindsey@austin-ind.com

7/5/2011 7/5/2011 AE102 Reach Media 13760 Noel Road, Suite 750 Dallas TX 75240 US Marla H. Bane Senior VP, Operations & CAO 972-789-1058 marla.bane@reachmediainc.com

3/25/2011 11/8/2010 XH975 Interstate Batteries 12770 Merit Drive, Suite 400 Dallas TX 75251 US Randy Sitzman 972-715-6756 972-455-6545 randy.sitzman@ibsa.com

11/14/2011 11/11/2011 AE124 Ebby Halliday Realtors 4455 Sigma Road Dallas TX 75244 US Tina Swenson Vice President (972) 980-6600 972 980 6636 tinaswenson@ebby.com

3/13/2011 3/4/2011 AE061 Odyssey HealthCare, Inc. 717 N Harwood St, Suite 1500 Dallas TX 75201 US

3/13/2011 3/4/2011 AE072 Southwest Airlines Company 2702 Love Field Drive Dallas TX 75235-1611 US

11/7/2010 11/8/2010 AA887 Balfour Beatty Construction 3100 McKinnon Street, 6th Floor DALLAS TX 75201 US

11/7/2010 11/8/2010 XJ395 Dr. Pepper/Snapple Group 5950 Sherry Lane, Suite 500 Dallas TX 75225 US

11/7/2010 11/8/2010 UH185 Atmos Energy Corp 5430 LBJ Freeway 700 Dallas TX 75240 US

11/7/2010 11/8/2010 AB542 A.H. Belo Corporation 400 S Record St DALLAS TX 75202 US

11/7/2010 11/8/2010 XB919 TD Industries 13850 Diplomat Drive DALLAS TX 75381 US

11/7/2010 11/8/2010 XB954 Texas Industries 1341 West Mockingbird Lane Dallas TX 75247 US

11/7/2010 11/8/2010 WO078 Affiliated Computer Services 2828 N Haskell Ave DALLAS TX 75204 US

11/7/2010 11/8/2010 XC495 Belo Corporation 400 South Record Street Dallas TX 75265 US

11/7/2010 11/8/2010 VK528 Reddy Ice 8750 N Central Expressway #1800 DALLAS TX 75231 US

11/7/2010 11/8/2010 NM351 EXCO Resources, Inc. 12377 Merit Dr, Ste 1700 DALLAS TX 75251 US

11/7/2010 11/8/2010 NN654 Hitachi High Technologies America 1401 North 27th Avenue Dallas TX 75261 US

11/7/2010 11/8/2010 WQ352 Pavestone Company, LP 4835 LBJ Freeway, Ste 700 DALLAS TX 75244 US

11/7/2010 11/8/2010 VS387 Trammell Crow Co 2100 Ross Ave., Suite 400 Dallas TX 75201 US


11/7/2010 11/8/2010 XX742 Fedex Kinkos 13155 Noel Road, Suite 1600 Dallas TX 75240 US

11/7/2010 11/8/2010 NT175 Regency Gas Services LP 1700 Pacific Ave., Suite 2900 Dallas TX 75201 US

11/7/2010 11/8/2010 WA806 Clubcorp USA 3030 LBJ Freeway Suite 700 Dallas TX 75234 US

11/7/2010 11/8/2010 ZZ996 CB Richard Ellis 2001 Ross Avenue, Suite 3400 DALLAS TX 75201 US

11/7/2010 11/8/2010 NZ515 Compucom Systems 7171 Forest Lane Dallas TX 75230 US

11/7/2010 11/8/2010 WC158 Rexel, Inc. 6606 LBJ Freeway, Suite 200 Dallas TX 75240 US

11/7/2010 11/8/2010 WZ387 Brinker International 6750 LBJ Freeway 1100 Dallas TX 75240 US

11/7/2010 11/8/2010 WF146 Merit Energy Company 13727 Noel Road, Suite 500 Dallas TX 75240 US

11/7/2010 11/8/2010 ZT009 Dean Transportation, Inc. 2515 McKinney Ave, Ste 1200 DALLAS TX 75201 US

11/7/2010 11/8/2010 ZT021 Occidental Petroleum Corporation 5005 LBJ Freeway Dallas TX 75244 US

11/7/2010 11/8/2010 ZT023 OneCoast Network 2050 Stemmons Freeway, Suite 137 Dallas TX 75207 US

11/7/2010 11/8/2010 ZT027 Ristken Software 5430 LBJ Freeway, Suite 910 DALLAS TX 75240 US

11/7/2010 11/8/2010 ZT037 Texas Instruments 12500 TI Blvd. MS 8726 Dallas TX 75243 US

11/7/2010 11/8/2010 ZT038 The Susan G. Komen Breast Cancer Foundat 5005 LBJ Freeway; Suite 250 Dallas TX 75244 US

11/7/2010 11/8/2010 NG309 JV Industrial Companies, Ltd. 1109 13th Street DEER PARK TX 77536 US

11/7/2010 11/8/2010 XH448 Hydrochem Industrial Services, Inc 900 Georgia Avenue Deer Park TX 77536 US

11/7/2010 11/8/2010 XF970 Hulcher Services, Inc 611 Kimberly Drive Denton TX 76202 US

11/7/2010 11/8/2010 ZZ989 Auto Kabel 5933 Via Cuesta El Paso TX 79912 US

1/13/2011 11/8/2010 WF186 Ben E Keith 601 East 7th St. Fort Worth TX 76102 US Tom Nesbitt Division Fleet Manager 817-615-4345 214-202-5703 tomnesbitt@benekeith.com

12/10/2010 11/8/2010 NM665 Healthpoint 3909 Hulen Street Fort Worth TX 76107 US Tracy Herbert Field Services 817-900-4000 817-916-2262 tracy.herbert@healthpoint.com

11/7/2010 11/8/2010 WJ514 Carter & Burgess, Inc. 777 Main Street Fort Worth TX 76102 US

11/7/2010 11/8/2010 XB967 Bimbo Bakeries, USA 14401 Statler Blvd Fort Worth TX 76155 US

11/7/2010 11/8/2010 WP203 XTO Energy, Inc. 810 Houston Street Suite 2000 Fort Worth TX 76102 US

11/7/2010 11/8/2010 XT138 Chemical Lime Company 5601 Bridge Street, Suite 200 Fort Worth TX 76112 US

11/7/2010 11/8/2010 XD641 Acme Brick Company 3024 Acme Brick Plaza FORT WORTH TX 76109 US

11/7/2010 11/8/2010 XD709 AMR Corporation - American Airlines 4255 Amon Carter Blvd. MD4406 Fort Worth TX 76155 US

11/7/2010 11/8/2010 WB437 Quicksilver Resources Inc. 777 W Rosedale Street, Suite 300 Fort Worth TX 76104 US

11/7/2010 11/8/2010 ZZ993 BNSF Railway 2500 Lou Menk AOB Level 1 Fort Worth TX 76131 US

11/7/2010 11/8/2010 UH060 Oncor Electric Delivery 1201 S. Sylvania Fort Worth TX 76111 US

11/7/2010 11/8/2010 HC656 Rodman Companies 6831 Ash Street Frisco TX 75034 US

11/7/2010 11/8/2010 NZ957 B29 Investments, LP 201 W. California St GAINESVILLE TX 76240 US

11/7/2010 11/8/2010 ZT003 Complete Production Service 3333 NI35, Building F GAINESVILLE TX 76240 US

11/7/2010 11/8/2010 AC098 BG America's 5444 Westheimer Suite 1200 Houston TX 77056 US Barbara Sharp

11/7/2010 11/8/2010 XD972 Baker Hughes, Inc. 9100 Emmott Road MD 316 HOUSTON TX 77040 US Brenda Davis

12/31/2010 11/8/2010 XL684 Severn Trent Environmental Services, Inc. 16337 Park Row Houston TX 77084 US Carmen Trevino Purchasing Manager 281-578-4235 281-578-4200 ctrevino@stes.com

11/7/2010 11/8/2010 XB849 Citgo 1293 Eldridge Parkway Houston TX 77077 US David Holland

11/7/2010 11/8/2010 XZ459 Targa Resources 1000 Louisiana, Suite 4300 Houston TX 77002 US Don Fishbeck

8/17/2011 8/17/2011 ST101 BP America, Inc. 501 Westlake Park Boulevard Houston TX 77079 US Frits Wondergem 281-504-4398

12/9/2010 11/8/2010 ZT040 U.S. PHYSICAL THERAPY 1300 W Sam Houston Pkwy S Ste 300 HOUSTON TX 77042 US Jeff Todes VP of Administration 713-297-7000 jtodes@usph.com

12/13/2010 11/8/2010 NC455 Wood Group 17420 Katy Freeway Suite 300 Houston TX 77094 US Jennifer Cortez Benefits Analyst 281-828-3500 jennifer.cortez@woodgroup.com

12/17/2010 11/8/2010 VV722 US Concrete 2925 Briarpark, suite 1050 Houston TX 77042 US Jennifer Montez Fleet Administrator 7132607813 7132607848 jmontez@us-concrete.com

8/2/2011 11/8/2010 WP513 MCFA (Mitsubishi Catepillar Forklift America, Inc) 2121 W. Sam Houston Pkwy. N Houston TX 77043 US Morgan Hill HR Assistant 7133651000 morgan.hill@mcfa.com

2/2/2011 11/8/2010 XB033 Air Liquide USA LLC 2700 Post Oak BLVD, Suite 1800 HOUSTON TX 77056 US Rich Campbell Team Leader - Logistics 713-402-2332 281-851-5326 rich.campbell@airliquide.com

3/4/2011 11/8/2010 XC021 Sysco Corporation 1390 Enclave Parkway Houston TX 77077 US Rick Ankrum Sr. Purchasing Manager 281-584-1442 281-584-1390 ankrum.rick@corp.sysco.com

11/7/2010 11/8/2010 WB484 Waste Management, Inc. 1001 Fannin Street, Suite 4000 Houston TX 77002 US Sue Thomas

4/4/2011 4/4/2011 AE087 KBR Connect 601 Jefferson Street Houston TX 77002 US Sue Thomas (936) 653-5294

3/13/2011 3/4/2011 VM594 The Methodist Hospital System 6565 Fannin, GB164 Houston TX 77030 US

11/7/2010 11/8/2010 ZT045 Victory Packaging 3555 Timmons Lane, Suite 1400 HOUSTON TX 77027 US

11/7/2010 11/8/2010 XB274 Linn Operating, Inc. 600 Travis, Ste 5100 HOUSTON TX 77002 US

11/7/2010 11/8/2010 ND253 NetVersant 777 Post Oak Blvd., Suite 400 Houston TX 77076 US

11/7/2010 11/8/2010 AA373 Transwestern Pipeline Co 5444 Westheimer Road HOUSTON TX 77056 US

11/7/2010 11/8/2010 XM430 Stewart and Stevenson 10750 Telge Road HOUSTON TX 77095 US

11/7/2010 11/8/2010 XB837 Halliburton 10200 Bellaire Blvd Houston TX 77072 US

11/7/2010 11/8/2010 XB893 Total Holdings USA, Inc. 1201 Louisiana Street Suite 1800 Houston TX 77002 US

11/7/2010 11/8/2010 VF371 Integrated Electrical Services 1800 West Loop South, Ste 500 Houston TX 77027 US

11/7/2010 11/8/2010 VG089 Total Safety Inc 11111 Wilcrest Green Dr., Suite 300 Houston TX 77042 US

11/7/2010 11/8/2010 XB990 Weatherford International, Inc. 515 Post Oak Boulevard, Suite 600 Houston TX 77027 US

11/7/2010 11/8/2010 XC007 National Oilwell Varco 7909 Parkwood Circle Drive HOUSTON TX 77036 US

11/7/2010 11/8/2010 NJ069 Plains All American Pipeline, L.P. 333 Clay Street, Three Allen Center Suite 1600 HOUSTON TX 77002 US

11/7/2010 11/8/2010 VG581 Cemex USA 920 Memorial City Way Suite 100 Houston TX 77024 US

11/7/2010 11/8/2010 XC287 ChevronTexaco Corporation 111 Bagby Street, Suite 4520 Houston TX 77002 US

LyondellBasell Industries/ Lyondell Chemical 1221 McKinney St. One Houston Center, Suite

11/7/2010 11/8/2010 VK296 Company

700 HOUSTON TX 77010 US

11/7/2010 11/8/2010 VL787 Key Energy Services Inc 1301 McKinney St, Ste 1800 HOUSTON TX 77010 US

11/7/2010 11/8/2010 XU094 McDermott Incorporated 777 N. Eldridge Pkwy. HOUSTON TX 77079 US

11/7/2010 11/8/2010 NN387 FMC Technologies 500 N Sam Houston Pkwy N Houston TX 77067 US

11/7/2010 11/8/2010 XW895 Cooper Industries 600 Travis, Suite 5600 Houston TX 77002 US

11/7/2010 11/8/2010 VP897 Quanta Services 1360 Post Oak Blvd. Suite 2100 Houston TX 77056 US

11/7/2010 11/8/2010 XX252 Burlington Resources 717 Texas Avenue, Suite 2100 Houston TX 77002 US

11/7/2010 11/8/2010 NR927 The Linc Group, LLC 1221 Lamar Suite 1500 HOUSTON TX 77010 US

11/7/2010 11/8/2010 XE153 El Paso Production 1001 Louisiana Street Houston TX 77002 US

11/7/2010 11/8/2010 XY538 Precision Drilling Trust 10370 Richmond Ave., Suite 600 Houston TX 77042 US

11/7/2010 11/8/2010 NY837 Dynegy Inc 1000 Louisiana Street, #5800 Houston TX 77002 US

11/7/2010 11/8/2010 ZZ992 BMC Software, Inc. 2101 CityWest Boulevard Houston TX 77042 US

11/7/2010 11/8/2010 WB502 Exterran 4444 Brittmoore Road Houston TX 77041 US

11/7/2010 11/8/2010 WB514 Solvay North America 3333 Richmond Ave. Houston TX 77098 US

11/7/2010 11/8/2010 ZZ998 CenterPoint Energy 4500 South Shaver, D202 Houston TX 77034 US

11/7/2010 11/8/2010 ZZ999 CIMA Energy, Ltd 1221 McKinney, Suite 4150 Houston TX 77010 US

11/7/2010 11/8/2010 XG956 SCI 1929 Allen Parkway Houston TX 77019 US

11/7/2010 11/8/2010 XH074 Kellogg Brown and Root, LLC 3302 Richardson Street Houston TX 77020 US

11/7/2010 11/8/2010 ED101 EPCO, Inc. 1100 Louisiana HOUSTON TX 77002 US

11/7/2010 11/8/2010 HC236 Intergrated Production Services, Inc. 3700 Buffalo Speedway, Suite 620 Houston TX 77098 US

11/7/2010 11/8/2010 WF589 Cameron 4646 West Sam Houston Pkwy. N. Houston TX 77041 US

11/7/2010 11/8/2010 WF595 Newpark Resources, Inc. 1311 Broadfield Blvd. Ste. 600 Houston TX 77084 US

11/7/2010 11/8/2010 ZT006 Continental Airlines 1600 Smith Street, Suite 2002E Houston TX 77002 US

11/7/2010 11/8/2010 XI962 Hess Corporation 500 Dallas Street, One Allen Center, Suite 1850 Houston TX 77002 US

11/7/2010 11/8/2010 ZT011 ExxonMobil 800 Bell Street Houston TX 77002 US

11/7/2010 11/8/2010 JB191 Smith International, Inc. 16740 Hardy Street HOUSTON TX 77032 US

11/7/2010 11/8/2010 ZT013 General Trk Bodies Mfg. Co. 7110 Jensen Drive Houston TX 77093 US

11/7/2010 11/8/2010 ZT014 Houston Texans Two Reliant Pkwy HOUSTON TX 77054 US

11/7/2010 11/8/2010 ZT017 King Ranch, Inc. Three Riverway, Suite 1600 Houston TX 77056 US


11/7/2010 11/8/2010 ZT030 Shell Oil Products US 700 Milam Pennzoil North Tower Houston TX 77002 US

11/7/2010 11/8/2010 WH501 Spectra Energy Corp 5400 Westheimer Ct Houston TX 77056 US

11/7/2010 11/8/2010 NN304 Flowserve 5215 North O'Connor Blvd. Suite 2300 Irving TX 75039 US

11/7/2010 11/8/2010 WS968 Fluor Corporation 6700 Las Colinas Blvd IRVING TX 75039 US

11/7/2010 11/8/2010 WW367 Broadview Security 8880 Esters Boulevard Irving TX 75063 US

11/7/2010 11/8/2010 ZT007 Dallas Airmotive, Inc. 900 Nolen Dr, Ste 100 IRVING TX 75061 US

11/7/2010 11/8/2010 ZT008 Dallas Cowboys Football Club One Cowboys Parkway Irving TX 75063 US

11/7/2010 11/8/2010 ZT020 Nokia Inc 6000 Connection Drive Irving TX 75039 US

11/7/2010 11/8/2010 XJ269 Zale Corporation 901 West Walnut Hill Lane Irving TX 75038 US

11/7/2010 11/8/2010 XQ169 TIMEC 10845 Strang Rd LA PORTE TX 77571 US

11/7/2010 11/8/2010 ZT019 Lone Star Steel Company 6866 US Hwy. 259 South Lone Star TX 75668 US

11/7/2010 11/8/2010 VD144 Alamosa 5225 S. Loop 289, Suite 120 Lubbock TX 79424 US

11/7/2010 11/8/2010 AD986 HD Waterworks 416 Interchange St. MCKINNEY TX 75071 US

11/7/2010 11/8/2010 XC095 Warren Equipment 3809 South FM 1788 PO Box 60758 Midland TX 79711 US

11/7/2010 11/8/2010 NS036 Total Electric Service & Supply Co. 500 Illinois Ave, Ste 1000 MIDLAND TX 79702 US

11/7/2010 11/8/2010 WV302 Basic Energy Services LP 400 West Illinois Suite 800 Midland TX 79702 US

11/7/2010 11/8/2010 AD987 Stephen F Austin State University 1936 North Street Nacogdoches TX 75961 US

11/7/2010 11/8/2010 XZ231 The Scooter Store 1650 Independence Drive New Braunfels TX 78131 US

11/7/2010 11/8/2010 XD692 Alcatel-Lucent 600 Mountain Ave NEW PROVIDENCE TX 7974 US

11/7/2010 11/8/2010 NL484 ODESSA PUMPS & EQU 3209 N COUNTY W ODESSA TX 79764 US

11/7/2010 11/8/2010 VM170 Red Bull NA 6800 Granite Parkway Suite 850 Plano TX 75024 US Dave McCauley

11/18/2011 11/11/2011 AE123 PFS Web, Inc. 500 N. Central Expressway, Suite 500 Plano TX 75074 US Trace Symonds Dean, PFS University (972) 881-2900 ext 2054 2147990628 tsymonds@pfsweb.com

11/7/2010 11/8/2010 WL740 Crossmark, Inc. 5100 Legacy Drive PLANO TX 75024 US

11/7/2010 11/8/2010 XN372 Rug Doctor L P 4701 Old Shepard Place Plano TX 75093 US

11/7/2010 11/8/2010 VU745 Denbury Resources Inc 5100 Tennyson Parkway, Suite 1200 PLANO TX 75024 US

11/7/2010 11/8/2010 XX994 Cadbury 6900 N Dallas Pkwy, Ste 500 PLANO TX 75024 US

11/7/2010 11/8/2010 HC153 Safety-Kleen Corporation 5400 Legacy Drive Plano TX 75024 US

11/7/2010 11/8/2010 ZT001 Citizens Communications 5600 Headquarters Drive Plano TX 75025 US

11/7/2010 11/8/2010 HC597 Rent-a-Center 5700 Tennyson Parkway suite 100 Plano TX 75024 US

11/7/2010 11/8/2010 ZT041 UGS Corp. 5800 Granite Parkway Suite 600 Plano TX 75024 US

11/7/2010 11/8/2010 XJ714 Lennox Industries 2100 Lake Park Blvd. Richardson TX 75080 US

11/7/2010 11/8/2010 VV074 Dell Computer Corp. RR1-42 Round Rock TX 78682 US

11/7/2010 11/8/2010 VV070 Multi-Chem Group, LLC 2905 Southwest Blvd. SAN ANGELO TX 76904 US Denny Morris

4/8/2011 3/7/2011 AE081 Harte-Hanks, Inc. 9601 McAllister Freeway, Suite 610 San Antonio TX 78216 US Elaine Dernoga Human Resources Team Leader 302-644-0960 elaine_dernoga@harte-hanks.com

11/7/2010 11/8/2010 AC077 ISS Facility Service, Inc. 1019 Central Pkwy N Ste 100 SAN ANTONIO TX 78232 US Joe Mann

12/28/2010 11/8/2010 XI518 Periodical Services Inc 5130 Commerce Pkwy Bldg 19 SAN ANTONIO TX 78218 US Kathy Tucker Fleet Manager 210-662-3317 ktucker@mercretail.com

11/7/2010 11/8/2010 XJ623 Tesoro Petroleum 300 Concord Plaza Drive San Antonio TX 78216-6999 US

11/7/2010 11/8/2010 AA968 NuStar Energy LP 2330 N Loop 1604 West SAN ANTONIO TX 78248 US

11/7/2010 11/8/2010 VG484 Clear Channel Communications 200 East Basse Road San Antonio TX 78209 US

11/7/2010 11/8/2010 XC045 Zachry Construction Corp 527 Logwood San Antonio TX 78224 US

11/7/2010 11/8/2010 XT378 Y C Partners Limited 5425 North Loop 1604 E San Antonio TX 78247 US

11/7/2010 11/8/2010 XD673 Valero Energy One Valero Way San Antonio TX 78249 US

11/7/2010 11/8/2010 XG665 Southwest Research Institute 6220 Culebra Road San Antonio TX 78238 US

11/7/2010 11/8/2010 ZT002 City of San Antonio 1325 N Flores Suite #114 SAN ANTONIO TX 78212 US

11/7/2010 11/8/2010 ZT016 Intertek Automotive Research 5404 Bandera Road San Antonio TX 78238 US

11/7/2010 11/8/2010 AB610 Patterson-UTI 4510 Lamesa Hwy SNYDER TX 79549 US

11/7/2010 11/8/2010 XC018 Schlumberger 300 Schlumberger Drive SUGAR LAND TX 77478 US

11/7/2010 11/8/2010 XH091 Southwest Water Company Service Group 12535 Reed Road SUGAR LAND TX 77478 US

11/7/2010 11/8/2010 XA883 Bechtel Equipment Operations 1006 Park West Drive SUGAR LAND TX 77478 US

11/7/2010 11/8/2010 BA270 Ledwell & Son, Inc. 3300 Waco Street TEXARKANA TX 75501 US

11/7/2010 11/8/2010 XC024 Anadarko Petroleum Corporation 1201 Lake Robbins Drive The Woodlands TX 77380 US

11/7/2010 11/8/2010 XC015 B.J. Services Company, USA 11211 FM 2920 Tomball TX 77375 US

12/8/2010 11/8/2010 XB342 The Dwyer Group 1010 North University Parks Dr Waco TX 76707 US Jill Miller Vendor Program Manager 254-745-2594 254-537-0608 helpdesk@protradenet.com

11/7/2010 11/8/2010 XD001 Texas Farm Bureau 5800 Franklynn Waco TX 76710 US

11/7/2010 11/8/2010 WT121 Equipment Depot, Ltd. 4100 S. Interstate 35 Waco TX 76706 US

11/7/2010 11/8/2010 BA017 Time Manufacturing Co. 7601 Imperial Drive WACO TX 76702 US

7/5/2011 11/8/2010 AE006 Hertz Rent a Car - Licensee 2805 Washington Blvd. Ogden UT 84401 US Jeff Heileson Fleet Operations Manager 801-337-5246 801-540-5125 jheileson@overlandwest.com

11/7/2010 11/8/2010 VH642 Autoliv 1000 West 3300 S. Ogden UT 84401 US

11/7/2010 11/8/2010 ZT049 Omniture 550 East Timpanogos Circle Orem UT 84097 US

11/7/2010 11/8/2010 XH035 Clyde Companies Inc PO Box 1955 Orem UT 84059 US

11/7/2010 11/8/2010 ZT047 Brigham Young University Faculty 315 KMB Provo UT 84602 US

11/7/2010 11/8/2010 XR987 Savage Services Corp. 6340 South 3000 East, Suite 600 Salt Lake City UT 84121 US Bob Atkin

11/14/2011 11/8/2010 ZZ416 Huntsman 500 Huntsman Way Salt Lake City UT 84108 US Jannie Spader Fleet Manager 801-584-5725 801-971-2236 jannie_spader@huntsman.com

1/17/2011 11/8/2010 XY264 Boart Longyear Company 2640 W 1700 South Temple SALT LAKE CITY UT 84104 US Justin Green Fleet Manager 8012323802 8019542449 jgreen@boartlongyear.com

11/7/2010 11/8/2010 XD422 LDS Church 50 E North Temple Rm 2554 Salt Lake City UT 84150 US Mike Sims

12/10/2010 11/8/2010 UH478 Questar Corporation 180 East 100 South Salt Lake City UT 84145 US Pamela Kendall Executive Office Admin 801-324-5778 pamela.kendall@questar.com

11/7/2010 11/8/2010 ZT046 Brashers Salt Lake Auto Auction 780 South 5600 West Salt Lake City UT 84104 US

11/7/2010 11/8/2010 ZT048 Extend Health 2150 South 1300 East, Suite 320 SALT LAKE CITY UT 84106 US

11/7/2010 11/8/2010 XQ799 Dyno Nobel 2650 Decker Lake Blvd Ste 300 Salt Lake City UT 84119 US

11/7/2010 11/8/2010 WP066 Tetra Tech 3752 West 2270 South SALT LAKE CITY UT 84120 US

11/7/2010 11/8/2010 XX931 ALSCO 505 E South Temple Salt Lake City UT 84102 US

11/7/2010 11/8/2010 XG648 Sinclair Oil 550 East South Temple Salt Lake City UT 84130 US

11/7/2010 11/8/2010 NX733 Alpha Natural Resources One Alpha Place ABINGDON VA 24210 US

12/9/2010 11/8/2010 ZT055 Integrated Systems Analysts, Inc. 2001 N. Beauregard Street, Suite 600 ALEXANDRIA VA 22311 US Mary Anderson Exec. VP, Administration 703 824-0700 mary.anderson@isa.com

11/7/2010 11/8/2010 NC238 Consolidated Engineering Services 320 23rd Street South, St 100 Arlington VA 22202 US

11/7/2010 11/8/2010 VP046 Interstate Hotels & Resorts 4501 N Fairfax Dr Ste 500 Arlington VA 22203 US

11/7/2010 11/8/2010 XX600 NRECA 4301 Wilson Boulevard ARLINGTON VA 22203 US

11/7/2010 11/8/2010 XX879 Eddie Bauer, Inc. 10401 NE 8th Street Suite 500 BELLEVUE VA 98004 US

11/7/2010 11/8/2010 ZT064 Volvo Penta of the Americas, Inc. 1300 Volvo Penta Drive Chesapeake VA 23320 US

11/7/2010 11/8/2010 NQ940 Alutiiq 500 Woodlake Drive, Suite 12 Chesapeake VA 23320 US

11/7/2010 11/8/2010 XG199 C.W. Wright Construction Company 11500 Ironbridge Road Chester VA 23831 US

11/7/2010 11/8/2010 ZT063 VeriSign, Inc. 21355 Ridgetop Circle - Lakeside III Dulles VA 20166 US

3/29/2011 3/4/2011 AE047 CGI Group Inc. 4050 Legato Rd Fairfax VA 22033 US

11/7/2010 11/8/2010 NH433 American Red Cross 8111 Gatehouse Rd Falls Church VA 22042 US

11/7/2010 11/8/2010 NW449 USIS 7799 Leesburg Pike, Ste 1100 North FALLS CHURCH VA 22043 US

2/25/2011 11/8/2010 WJ921 ChemTreat, Inc. 4461 Cox Road, Suite 106 Glen Allen VA 23060 US Fran Genovese Fleet Administrator 804-935-2150 frang@chemtreat.com

11/7/2010 11/8/2010 WB092 Service Partners, LLC. 1029 Technology Park Drive Glen Allen VA 23059 US

11/7/2010 11/8/2010 ND437 Avaya Communication 2250 Corporate Park Dr., #205 Herndon VA 20171 US

11/7/2010 11/8/2010 AC649 RCN Telecom Services, Inc. 196 Van Buren Street HERNDON VA 20170 US

11/7/2010 11/8/2010 ZT060 REHAU, Inc. 1501 Edwards Ferry Road, NE Leesburg VA 20176 US

12/16/2010 11/8/2010 WN666 Tri-Dim Filter Corp. 93 Industrial Drive Louisa VA 23093 US Craig Sackett Vice President of Human Resources 540-967-4808 540-967-2600 c.sackett@tridim.com

10/27/2011 10/27/2011 AE120 NADA

SAIC (Science Applications International

8400 Westpark Drive Maclean VA 22102 US Jonathan Banks (703) 749-4709 jbanks@NADA.org

9/17/2011 3/4/2011 AE069 Corporation) 1710 SAIC Drive, McLean VA 22102 US Charles Whitton DCGS FSE 222-222-2222 222-222-2222 charles.l.whitton@saic.com

3/13/2011 11/8/2010 XK066 Gannett Company, Inc. 7950 Jones Branch Drive McLean VA 22102 US

11/7/2010 11/8/2010 VV562 Sunrise Senior Living 7902 Westpark Drive McLean VA 22102 US


11/7/2010 11/8/2010 XE236 EMCOR Group 1420 Spring Hill Rd., Ste. 500 McLean VA 22102 US

11/7/2010 11/8/2010 ZT058 Mount Vernon Ladies Association 3200 Geo. Washington Memorial Mount Vernon VA 22121 US

11/7/2010 11/8/2010 WV125 Ferguson Enterprises 12500 Jefferson Avenue Newport News VA 23602 US Alexis Reece

11/7/2010 11/8/2010 XK963 VA International Terminals PO Box 1387 Norfolk VA 23501 US

11/7/2010 11/8/2010 XX770 Sentara Healthcare 6015 Poplar Hall Dr. Ste. 314 Norfolk VA 23502 US

11/7/2010 11/8/2010 XH972 Titan America 1151 Azalea Garden Road Norfolk VA 23502 US

11/7/2010 11/8/2010 VG379 XO Communications 11111 Sunset Hills Road Reston VA 20190 US

12/7/2010 11/8/2010 XE274 Estes Express 3901 West Broad Street Richmond VA 23230 US Dennis McCurry Fleet Services 804-353-1900 dmccurry@estes-express.com

5/20/2011 11/8/2010 XD607 Media General, Inc. 333 East Franklin Street Richmond VA 23219 US Marc Miller Corporate Sourcing Manager 804-649-6236 memiller@mediageneral.com

3/15/2011 11/8/2010 WM464 Swedish Match NA 1021 E. Cary Street, Suite 1600 RICHMOND VA 23219 US Marianne Stewart Sales Planning Administrator 804-787-5182 804-787-5100 marianne.stewart@smna.com

12/7/2010 11/8/2010 XA186 Philip Morris USA 6601 West Broad Street Richmond VA 23230 US Mark Alvey Senior Purchasing Agent 804-484-8718 mark.a.alvey@altria.com

3/13/2011 3/4/2011 AE058 Hunton & Williams 951 East Byrd Street Richmond VA 23219 US

11/7/2010 11/8/2010 ZT056 K Line America, Inc 8730 Stony Point Parkway, Suite 400 RICHMOND VA 23235 US

11/7/2010 11/8/2010 UH405 Dominion Resources Services, Inc. 701 East Cary Street Richmond VA 23219 US

11/7/2010 11/8/2010 XN482 James River Air Conditioning 1905 Westmoreland Street RICHMOND VA 23230 US

11/7/2010 11/8/2010 AC102 Phillip Morris International 9711 Farrar Court Richmond VA 23236 US

11/7/2010 11/8/2010 XC766 Southern States Cooperative, Inc. 6606 West Broad Street P.O.Box 26234 Richmond VA 23260 US

11/7/2010 11/8/2010 XE053 Overnite Transportation Company 1000 Semmes Avenue Richmond VA 23224 US

11/7/2010 11/8/2010 CC090 Central Coca-Cola Bottling Company 1706 Roseneath Road Richmond VA 23230 US

11/7/2010 11/8/2010 XJ048 MeadWestvaco 1011 Boulder Springs Dr Richmond VA 23225 US

12/7/2010 11/8/2010 ZT053 Dynax America Corporation 568 East Park Drive ROANOKE VA 24019 US Sandra Moore HR Manager 540-777-9502 540-966-6010 smoore@dxa.com

11/7/2010 11/8/2010 ZT057 Metalsa Roanoke Inc 184 Vista Drive Roanoke VA 24019 US

11/7/2010 11/8/2010 WP337 Parts Depot 2177 Dale Avenue, S.E. Roanoke VA 24013 US

11/7/2010 11/8/2010 XU417 Advance Auto Parts 5673 Airport Road Roanoke VA 24001 US

11/7/2010 11/8/2010 XA543 Carter Machinery Co 1330 Lynchburg Turnpike Salem VA 24153 US

11/7/2010 11/8/2010 WV802 Smithfield Foods, Inc. 111 Commerce Street, PO Box 9002 Smithfield VA 23431 US

3/13/2011 3/4/2011 AE079 USA Mobility Versar Center, Suite 420 Springfield VA 22151 US

11/7/2010 11/8/2010 ZT052 America's Promise 909 N. Washington St., Ste.400 STAFFORD VA 22556 US

2/14/2011 11/8/2010 AC449 JK Moving Services 44112 Mercure Circle STERLING VA 20166 US Andrea Bunch Director of Human Resources 703-260-4282 703-260-3004 andrea.bunch@jkmoving.com

12/6/2010 11/8/2010 XL124 Armada Hoffler Construction 222 Central Park Avenue, Suite 2100 Virginia Beach VA 23462 US Darlene Farley Human Resources Director 757-366-4000 757-366-6667 dfarley@armadahoffler.com

11/7/2010 11/8/2010 XK92 Mancon 1961 Diamond Springs Road Virginia Beach VA 23455 US

11/7/2010 11/8/2010 VU921 Osullivan Films Inc. 1944 Valley Avenue Winchester VA 22601 US

11/7/2010 11/8/2010 ZT050 NSK Steering Systems America 110 Shields Drive Bennington VT 5201 US

11/7/2010 11/8/2010 UH290 Central Vermont Public Services 77 Groves Street Rutland VT 5701 US

11/7/2010 11/8/2010 ZT065 BSQUARE Corporation 110 110th Ave NE Suite 200 BELLEVUE WA 98004 US

11/7/2010 11/8/2010 XL337 Infrastux Group, Inc. 10900 North East 4th Street, Suite 1900 Bellevue WA 98004 US

11/7/2010 11/8/2010 V7397 T Mobile 3650 131st Ave. S.E. Suite 200 Bellevue WA 98006 US

11/7/2010 11/8/2010 VE495 Coin Star Inc. 1800 114th Avenue SE BELLEVUE WA 98004 US

12/8/2010 11/8/2010 XA185 Philips Medical Systems 22100 Bothell Everett Highway Bothell WA 98021 US Gage Wagoner Senior Manager NA Fleet 425-487-7930 gage.wagoner@philips.com

11/7/2010 11/8/2010 ZT068 Ring & Pinion Service 10411 Airport Road Everett WA 98204 US

2/9/2011 11/8/2010 AD948 Totem Ocean Trailer Express 32001 32nd Avenue South Suite 200 Federal Way WA 98001 US Shannon Peter HR Specialist (Benefits) 253 449 8183 253 449 8100 shannon.peter@totemocean.com

11/7/2010 11/8/2010 XG003 Weyerhaeuser Company 33663 WeyerhaeuserWay S CH1K32 Federal Way WA 98003 US

11/7/2010 11/8/2010 QS173 Washington State University 442 French Administration Bldg PULLMAN WA 99164 US

11/7/2010 11/8/2010 WM770 Genie Industries and Manufacturing, Inc. 18340 North East 76th Street Redmond WA 98052 US

11/7/2010 11/8/2010 XY889 Microsoft Corporation One Microsoft Way Bldg 100 Redmond WA 98052 US

12/12/2011 12/12/2011 HB924 Alaska Air Group 19300 International Boulevard Seattle WA 98188 US

11/7/2010 11/8/2010 AA158 ZymoGenetics 1201 Eastlake Ave E SEATTLE WA 98102 US Karina Williams

11/7/2010 11/8/2010 ZT069 University of Washington 3903 Brooklyn Ave N.E. Seattle WA 98105 US

11/7/2010 11/8/2010 VL361 Washington Energy Services 2800 Thorndyke Avenue West Seattle WA 98199 US

11/7/2010 11/8/2010 ZT067 Kaiser Aluminum & Chemical Corp. 15000 East Euclid Avenue Spokane WA 99215 US

11/7/2010 11/8/2010 WQ620 Parsons 1216 140th Avenue Court East Sumner WA 98390 US

11/7/2010 11/8/2010 VZ570 Burkhart Dental Supply 2502 So 78th Street Tacoma WA 98409 US

11/7/2010 11/8/2010 UH117 Puget Sound Energy 3130 S 38th St TAC-01 TACOMA WA 98409 US

11/7/2010 11/8/2010 XW962 Goodfellow Bros., Inc. PO Box 598 Wenatchee WA 98807 US

11/7/2010 11/8/2010 XE563 Secura Insurance 2401 South Memorial Drive Appleton WI 54915 US

11/7/2010 11/8/2010 WQ365 Ariens Company 655 West Ryan Street Brillion WI 54110 US Kit Horn

5/27/2011 11/8/2010 WS864 Milwaukee Tool Corporation 13135 West Lisbon Road Brookfield WI 53005 US Jacyln Nett Human Resources Generalist 262-783-8370 jaclyn.nett@milwaukeetool.com

5/24/2011 11/8/2010 AD956 Fiserv 255 Fiserv Drive Brookfield WI 53045 US Roger Olsen Senior Technical Software Support 716-564-4044 716-572-2355 roger.olsen@comcast.net

11/7/2010 11/8/2010 ZT090 Metavante Corporation 4900 West Brown Deer Road Brown Deer WI 53223 US

11/7/2010 11/8/2010 XC729 Michels Corp 817 W. Main Street Brownsville WI 53006 US

11/7/2010 11/8/2010 WP595 ABS Global 1525 River Road De Forest WI 53532 US

11/7/2010 11/8/2010 ZT072 Ameriprise Auto & Home Insurance 3500 Packerland Drive De Pere WI 54115 US

11/7/2010 11/8/2010 XL459 Bauer Built Hwy 25 South, PO Box 248 Durand WI 54736 US

4/29/2011 11/8/2010 XH089 Menard's Inc 5101 Menard Drive Eau Claire WI 54703 US Becky Schaefer Corporate HR Coordinator 715-876-2247 715-876-2081 bschaefe@menard-inc.com

11/7/2010 11/8/2010 ZT080 Green Bay Drop Forge 1341 S. State St GREEN BAY WI 54307 US

11/7/2010 11/8/2010 XV689 Schneider National 3101 South Packerland Drive Green Bay WI 54313 US

11/7/2010 11/8/2010 XZ149 Pomps Tire Service Inc 1123 Cedar Street Green Bay WI 54301 US

11/7/2010 11/8/2010 UH077 Integrys Energy 700 North Adams Green Bay WI 54307 US

11/7/2010 11/8/2010 XJ096 Green Bay Packaging, Inc. 1700 North Webster Court Green Bay WI 54307 US

11/7/2010 11/8/2010 XA306 Joy Mining 1017 Woods Drive Hartland WI 53029 US

11/7/2010 11/8/2010 XD152 Lunda Construction Co. W2332 E. Crosstown Road, P.O. Box 303 Hilbert WI 54129 US

11/7/2010 11/8/2010 ZT105 X-Cel Tooling, Inc. 1000 Industrial Road Iron Ridge WI 53035 US

11/7/2010 11/8/2010 ZT098 Rytec Corporation One Cedar Parkway Jackson WI 53037 US

11/7/2010 11/8/2010 ZT073 Bourns Automotive Division 3200 Palmer Drive Janesville WI 53546 US

11/7/2010 11/8/2010 ZT071 Active Transportation 4316 39th Ave. Kenosha WI 53144 US

2/1/2011 11/8/2010 XY955 Kohler Company 444 Highland Drive Kohler WI 53044 US Tom Wagner Sr. Buyer 9204574441 tom.wagner@kohler.com

11/7/2010 11/8/2010 XB271 American Family Mutual Insurance 6000 American Parkway Madison WI 53783 US Brent Switzky

11/7/2010 11/8/2010 ND234 Velcor Leasing 2005 West Beltline Highway Madison WI 53713 US John O'Conner

11/7/2010 11/8/2010 UH263 Alliant Energy 4902 North Biltmore Lane Madison WI 53707 US

11/7/2010 11/8/2010 ZT102 University of Wisconsin Rm 166 Bascom Hall, 500 Lincoln Drive Madison WI 53706 US

11/7/2010 11/8/2010 NV354 Great Wolf Resorts 122 W. Washington Ave., 6th Flr Madison WI 53703 US

11/7/2010 11/8/2010 UH098 TDS Telecom 525 Junction Rd Madison WI 53717 US

11/7/2010 11/8/2010 ZT104 Winsert, Inc. 2645 Industrial Parkway Marinette WI 54143 US

11/7/2010 11/8/2010 WA837 Copesan W175N5711 Techology Drive Menomonee Falls WI 53051 US

11/7/2010 11/8/2010 ZT074 Charter Manufacturing 1212 West Glen Oaks Lane Mequon WI 53092 US

11/7/2010 11/8/2010 WN133 Church Mutual Insurance 3000 Schuster Lane Merrill WI 54452 US

12/6/2010 11/8/2010 AD957 Ken Cook Company 9929 W Silver Spring Dr Milwaukee WI 53225 US Adam Retzlaff Account Executive - Volvo (414) 847-1237 adamr@kencook.com

11/7/2010 11/8/2010 WB457 Rite-Hite 8900 North Arbon Drive Milwaukee WI 53223 US Mark Kirkish

3/13/2011 11/8/2010 XQ409 Miller Brewing Company 3939 W. Highland Blvd. P. O. Box 482 Milwaukee WI 53201 US

11/7/2010 11/8/2010 AD990 Paratech Ambulance Service, Inc. 9401 West Brown Deer Road MILWAUKEE WI 53224 US

11/7/2010 11/8/2010 ZT083 Huf North America 9020 West Dean Road MILWAUKEE WI 53224 US

11/7/2010 11/8/2010 ZT088 Ken Cook Co. 9929 W. Silver Spring Drive MILWAUKEE WI 53225 US

11/7/2010 11/8/2010 ZT094 Nelson Schmidt 111 East Wisconsin Avenue Milwaukee WI 53202 US

11/7/2010 11/8/2010 ZT097 Pressed Steel Tank Company, Inc. 1445 South 66th Street Milwaukee WI 53214-4937 US

11/7/2010 11/8/2010 ZT100 STRATTEC Security Corp 3333 W. Good Hope Road Milwaukee WI 53209 US

11/7/2010 11/8/2010 ZT103 Veolia Environmental 125 S 84th Street Suite 175 MILWAUKEE WI 53214 US


11/7/2010 11/8/2010 NG529 Aurora Health Care 3031 North Montana Milwaukee WI 53234 US

11/7/2010 11/8/2010 WQ679 Harley-Davidson Motor Co. 3700 West Juneau Avenue Milwaukee WI 53208 US

11/7/2010 11/8/2010 XZ683 Grede Foundries, Inc. 9898 West Blue Mound Road Milwaukee WI 53226 US

11/7/2010 11/8/2010 JD593 Rockwell Automation 1201 South 2nd Street Milwaukee WI 53204 US

11/7/2010 11/8/2010 VZ946 Link Snacks One Snackfood Lane Minong WI 54859 US

11/7/2010 11/8/2010 BX334 Monroe Truck Equipment 1051 W. 7th Street Monroe WI 53566 US

11/7/2010 11/8/2010 XB293 Menasha Corporation 1645 Bergstrom Road Neenah WI 54957 US

11/7/2010 11/8/2010 ZT082 HK Systems 2855 S. James Drive New Berlin WI 53151 US

1/18/2011 11/8/2010 XJ625 Bucyrus International, Inc. 1 Bucyrus Way Oak Creek WI 53154 US Cindy Nettles Fleet Coordinator 4147684938 4147684126 cindy.nettles@bucyrus.com

11/7/2010 11/8/2010 WU883 Morris Material Handling 315 W Forest Hill Avenue Oak Creek WI 53154 US

11/7/2010 11/8/2010 ZT077 Engine Power, Inc. 1830 Executive Drive Oconomowoc WI 53066 US

11/7/2010 11/8/2010 XS249 Mathy Construction 920 10th Avenue North Onalaska WI 54650 US

11/7/2010 11/8/2010 XE507 Oshkosh Truck Corp 2307 Oregon Street Oshkosh WI 54903 US

11/7/2010 11/8/2010 ZT076 Cherry Corporation 11200 88th Avenue Pleasant Prairie WI 53158 US

11/7/2010 11/8/2010 ZT101 TriEnda N7660 Industrial Road Portage WI 53901 US

11/7/2010 11/8/2010 XJ393 Modine Manufacturing Co. 1500 DeKoven Ave. Racine WI 53403 US

11/7/2010 11/8/2010 XZ421 Case New Holland 5729 Washington Ave RACINE WI 53406 US

11/7/2010 11/8/2010 ZT075 Charter Steel 1658 Cold Springs Rd SAUKVILLE WI 53080 US

3/5/2011 11/8/2010 ZT086 J.L. French Corp. 3101 S. Taylor Drive, P.O. Box 1024 Sheboygan WI 53081 US Lynda Faust Benefits Administrator 1-920-453-4305 lfaust@jlfrench.com

11/7/2010 11/8/2010 XC875 Northern Engraving Corporation 803 South Black River Street Sparta WI 54656 US

12/7/2010 11/8/2010 XD209 Sentry Insurance 1800 Northpoint Drive Stevens Point WI 54481 US Steven Anderson Fleet Manager 7153467943 Steven.Anderson@sentry.com

2/21/2011 11/8/2010 ZT087 Diversey Inc. 8310 16th St. MS554 STURTEVANT WI 53177 US Melissa Thery Fleet Coordinator 262-631-2325 262-631-2325 melissa.thery@diversey.com

1/4/2011 11/8/2010 PA187 Miniature Precision Components Inc 820 Wisconsin Street Walworth WI 53184 US Julie Robers HR Assistant 262-275-5791 jrobers@mpc-inc.com

11/7/2010 11/8/2010 XJ920 Payne & Dolan, Inc. N3 W23650 Badinger Road WAUKESHA WI 53187 US

11/7/2010 11/8/2010 NE270 Husco Automotive Tech LLC 2239 Pewaukee Rd WAUKESHA WI 53188 US

7/26/2011 7/25/2011 XG480 West Bend Mutual Insurance Co. 1900 S. 18th Avenue West Bend WI 53095 US Tom Krause Fleet Manager 262-338-5151 800-236-5010x 5151 Tkrause@WBMI.com

11/7/2010 11/8/2010 XE594 State Electric Supply Co 2010 Second Avenue HUNTINGTON WV 25703 US Justin Worrell

More magazines by this user
Similar magazines